<?xml version="1.0" encoding="UTF-8" standalone="no" ?>
<gpx xmlns="http://www.topografix.com/GPX/1/1" xmlns:xsi="http://www.w3.org/2001/XMLSchema-instance" xsi:schemaLocation="http://www.topografix.com/GPX/1/1 http://www.topografix.com/GPX/1/1/gpx.xsd" version="1.1" creator="VisuGPX - https://www.visugpx.com">
  <metadata>
    <name>299_Circuit 86 km Les Herbiers_Les Herbiers édité par cth85.com</name>
    <desc><![CDATA[Circuit de 86 km passant par:
Les Herbiers
D11 Les Epesses
D11 Mallièvre
D11 Treize Vents
D11 La Chapelle Largeau
Moulins
D156 La Tessoualle
D157 Le Puy Saint Bonnet
Saint Christophe du Bois
La Séguinière
D158 Saint André de la Marche
D91 direction La Romagne
D91 Le Longeron
D91, D111 Saint Aubin des Ormeaux
Saint Martin des Tilleuls
La Gaubretière
D755 Les Herbiers
]]></desc>
  </metadata>
  <trk>
    <name><![CDATA[14886596-86_299]]></name>
    <trkseg>
      <trkpt lat="46.86383" lon="-1.00561">
        <ele>120</ele>
        <time>2022-06-02T14:50:53Z</time>
      </trkpt>
      <trkpt lat="46.86335" lon="-1.00614">
        <ele>119</ele>
        <time>2022-06-02T14:51:04Z</time>
      </trkpt>
      <trkpt lat="46.86315" lon="-1.00632">
        <ele>119</ele>
        <time>2022-06-02T14:51:08Z</time>
      </trkpt>
      <trkpt lat="46.8627" lon="-1.00662">
        <ele>118</ele>
        <time>2022-06-02T14:51:17Z</time>
      </trkpt>
      <trkpt lat="46.86234" lon="-1.00681">
        <ele>117</ele>
        <time>2022-06-02T14:51:23Z</time>
      </trkpt>
      <trkpt lat="46.86228" lon="-1.00664">
        <ele>117</ele>
        <time>2022-06-02T14:51:26Z</time>
      </trkpt>
      <trkpt lat="46.86189" lon="-1.00512">
        <ele>115</ele>
        <time>2022-06-02T14:51:46Z</time>
      </trkpt>
      <trkpt lat="46.8617" lon="-1.00489">
        <ele>115</ele>
        <time>2022-06-02T14:51:50Z</time>
      </trkpt>
      <trkpt lat="46.8614" lon="-1.00467">
        <ele>116</ele>
        <time>2022-06-02T14:51:56Z</time>
      </trkpt>
      <trkpt lat="46.86041" lon="-1.00409">
        <ele>115</ele>
        <time>2022-06-02T14:52:15Z</time>
      </trkpt>
      <trkpt lat="46.86052" lon="-1.00363">
        <ele>115</ele>
        <time>2022-06-02T14:52:21Z</time>
      </trkpt>
      <trkpt lat="46.86171" lon="-0.99914">
        <ele>118</ele>
        <time>2022-06-02T14:53:19Z</time>
      </trkpt>
      <trkpt lat="46.86212" lon="-0.99771">
        <ele>120</ele>
        <time>2022-06-02T14:53:38Z</time>
      </trkpt>
      <trkpt lat="46.86221" lon="-0.99734">
        <ele>120</ele>
        <time>2022-06-02T14:53:43Z</time>
      </trkpt>
      <trkpt lat="46.86312" lon="-0.99257">
        <ele>125</ele>
        <time>2022-06-02T14:54:43Z</time>
      </trkpt>
      <trkpt lat="46.86335" lon="-0.99141">
        <ele>128</ele>
        <time>2022-06-02T14:54:58Z</time>
      </trkpt>
      <trkpt lat="46.86345" lon="-0.99102">
        <ele>129</ele>
        <time>2022-06-02T14:55:03Z</time>
      </trkpt>
      <trkpt lat="46.86362" lon="-0.9905">
        <ele>131</ele>
        <time>2022-06-02T14:55:10Z</time>
      </trkpt>
      <trkpt lat="46.86373" lon="-0.99021">
        <ele>132</ele>
        <time>2022-06-02T14:55:14Z</time>
      </trkpt>
      <trkpt lat="46.86399" lon="-0.98966">
        <ele>134</ele>
        <time>2022-06-02T14:55:22Z</time>
      </trkpt>
      <trkpt lat="46.86448" lon="-0.98872">
        <ele>139</ele>
        <time>2022-06-02T14:55:37Z</time>
      </trkpt>
      <trkpt lat="46.86514" lon="-0.98737">
        <ele>145</ele>
        <time>2022-06-02T14:55:57Z</time>
      </trkpt>
      <trkpt lat="46.86527" lon="-0.98706">
        <ele>145</ele>
        <time>2022-06-02T14:56:01Z</time>
      </trkpt>
      <trkpt lat="46.86563" lon="-0.98597">
        <ele>148</ele>
        <time>2022-06-02T14:56:16Z</time>
      </trkpt>
      <trkpt lat="46.86601" lon="-0.98456">
        <ele>149</ele>
        <time>2022-06-02T14:56:34Z</time>
      </trkpt>
      <trkpt lat="46.86608" lon="-0.98423">
        <ele>149</ele>
        <time>2022-06-02T14:56:39Z</time>
      </trkpt>
      <trkpt lat="46.86614" lon="-0.98397">
        <ele>148</ele>
        <time>2022-06-02T14:56:42Z</time>
      </trkpt>
      <trkpt lat="46.86619" lon="-0.98385">
        <ele>147</ele>
        <time>2022-06-02T14:56:44Z</time>
      </trkpt>
      <trkpt lat="46.86629" lon="-0.9837">
        <ele>146</ele>
        <time>2022-06-02T14:56:46Z</time>
      </trkpt>
      <trkpt lat="46.86629" lon="-0.98233">
        <ele>147</ele>
        <time>2022-06-02T14:57:03Z</time>
      </trkpt>
      <trkpt lat="46.86624" lon="-0.98135">
        <ele>150</ele>
        <time>2022-06-02T14:57:15Z</time>
      </trkpt>
      <trkpt lat="46.86637" lon="-0.98132">
        <ele>148</ele>
        <time>2022-06-02T14:57:17Z</time>
      </trkpt>
      <trkpt lat="46.8665" lon="-0.98123">
        <ele>147</ele>
        <time>2022-06-02T14:57:20Z</time>
      </trkpt>
      <trkpt lat="46.86692" lon="-0.98032">
        <ele>144</ele>
        <time>2022-06-02T14:57:33Z</time>
      </trkpt>
      <trkpt lat="46.86837" lon="-0.97683">
        <ele>138</ele>
        <time>2022-06-02T14:58:23Z</time>
      </trkpt>
      <trkpt lat="46.8694" lon="-0.97431">
        <ele>139</ele>
        <time>2022-06-02T14:58:58Z</time>
      </trkpt>
      <trkpt lat="46.86945" lon="-0.97416">
        <ele>139</ele>
        <time>2022-06-02T14:59:01Z</time>
      </trkpt>
      <trkpt lat="46.86953" lon="-0.97379">
        <ele>140</ele>
        <time>2022-06-02T14:59:05Z</time>
      </trkpt>
      <trkpt lat="46.86954" lon="-0.9736">
        <ele>141</ele>
        <time>2022-06-02T14:59:08Z</time>
      </trkpt>
      <trkpt lat="46.86951" lon="-0.97352">
        <ele>141</ele>
        <time>2022-06-02T14:59:09Z</time>
      </trkpt>
      <trkpt lat="46.8695" lon="-0.97339">
        <ele>142</ele>
        <time>2022-06-02T14:59:10Z</time>
      </trkpt>
      <trkpt lat="46.86956" lon="-0.97324">
        <ele>142</ele>
        <time>2022-06-02T14:59:12Z</time>
      </trkpt>
      <trkpt lat="46.86964" lon="-0.97316">
        <ele>142</ele>
        <time>2022-06-02T14:59:14Z</time>
      </trkpt>
      <trkpt lat="46.86971" lon="-0.97303">
        <ele>142</ele>
        <time>2022-06-02T14:59:16Z</time>
      </trkpt>
      <trkpt lat="46.86978" lon="-0.97274">
        <ele>142</ele>
        <time>2022-06-02T14:59:20Z</time>
      </trkpt>
      <trkpt lat="46.86982" lon="-0.9725">
        <ele>142</ele>
        <time>2022-06-02T14:59:23Z</time>
      </trkpt>
      <trkpt lat="46.86985" lon="-0.97194">
        <ele>143</ele>
        <time>2022-06-02T14:59:30Z</time>
      </trkpt>
      <trkpt lat="46.86992" lon="-0.97043">
        <ele>144</ele>
        <time>2022-06-02T14:59:48Z</time>
      </trkpt>
      <trkpt lat="46.87001" lon="-0.96834">
        <ele>144</ele>
        <time>2022-06-02T15:00:14Z</time>
      </trkpt>
      <trkpt lat="46.87009" lon="-0.96763">
        <ele>143</ele>
        <time>2022-06-02T15:00:22Z</time>
      </trkpt>
      <trkpt lat="46.87018" lon="-0.96705">
        <ele>143</ele>
        <time>2022-06-02T15:00:30Z</time>
      </trkpt>
      <trkpt lat="46.87037" lon="-0.96619">
        <ele>143</ele>
        <time>2022-06-02T15:00:41Z</time>
      </trkpt>
      <trkpt lat="46.87048" lon="-0.96579">
        <ele>143</ele>
        <time>2022-06-02T15:00:46Z</time>
      </trkpt>
      <trkpt lat="46.87062" lon="-0.96534">
        <ele>142</ele>
        <time>2022-06-02T15:00:52Z</time>
      </trkpt>
      <trkpt lat="46.87246" lon="-0.96059">
        <ele>147</ele>
        <time>2022-06-02T15:01:58Z</time>
      </trkpt>
      <trkpt lat="46.87266" lon="-0.95997">
        <ele>149</ele>
        <time>2022-06-02T15:02:07Z</time>
      </trkpt>
      <trkpt lat="46.87274" lon="-0.95957">
        <ele>149</ele>
        <time>2022-06-02T15:02:12Z</time>
      </trkpt>
      <trkpt lat="46.87283" lon="-0.95879">
        <ele>149</ele>
        <time>2022-06-02T15:02:21Z</time>
      </trkpt>
      <trkpt lat="46.87311" lon="-0.95551">
        <ele>151</ele>
        <time>2022-06-02T15:03:01Z</time>
      </trkpt>
      <trkpt lat="46.87312" lon="-0.95518">
        <ele>152</ele>
        <time>2022-06-02T15:03:05Z</time>
      </trkpt>
      <trkpt lat="46.87308" lon="-0.9545">
        <ele>153</ele>
        <time>2022-06-02T15:03:14Z</time>
      </trkpt>
      <trkpt lat="46.873" lon="-0.95396">
        <ele>152</ele>
        <time>2022-06-02T15:03:20Z</time>
      </trkpt>
      <trkpt lat="46.87283" lon="-0.95333">
        <ele>149</ele>
        <time>2022-06-02T15:03:29Z</time>
      </trkpt>
      <trkpt lat="46.87229" lon="-0.95185">
        <ele>145</ele>
        <time>2022-06-02T15:03:49Z</time>
      </trkpt>
      <trkpt lat="46.87213" lon="-0.95127">
        <ele>143</ele>
        <time>2022-06-02T15:03:57Z</time>
      </trkpt>
      <trkpt lat="46.87206" lon="-0.95091">
        <ele>142</ele>
        <time>2022-06-02T15:04:01Z</time>
      </trkpt>
      <trkpt lat="46.872" lon="-0.95052">
        <ele>140</ele>
        <time>2022-06-02T15:04:06Z</time>
      </trkpt>
      <trkpt lat="46.87197" lon="-0.95003">
        <ele>139</ele>
        <time>2022-06-02T15:04:12Z</time>
      </trkpt>
      <trkpt lat="46.87196" lon="-0.94969">
        <ele>137</ele>
        <time>2022-06-02T15:04:16Z</time>
      </trkpt>
      <trkpt lat="46.87198" lon="-0.94913">
        <ele>134</ele>
        <time>2022-06-02T15:04:23Z</time>
      </trkpt>
      <trkpt lat="46.87202" lon="-0.94879">
        <ele>133</ele>
        <time>2022-06-02T15:04:27Z</time>
      </trkpt>
      <trkpt lat="46.87254" lon="-0.94604">
        <ele>122</ele>
        <time>2022-06-02T15:05:02Z</time>
      </trkpt>
      <trkpt lat="46.87262" lon="-0.94569">
        <ele>123</ele>
        <time>2022-06-02T15:05:06Z</time>
      </trkpt>
      <trkpt lat="46.87415" lon="-0.93784">
        <ele>149</ele>
        <time>2022-06-02T15:06:46Z</time>
      </trkpt>
      <trkpt lat="46.87426" lon="-0.93717">
        <ele>151</ele>
        <time>2022-06-02T15:06:54Z</time>
      </trkpt>
      <trkpt lat="46.8743" lon="-0.93681">
        <ele>151</ele>
        <time>2022-06-02T15:06:59Z</time>
      </trkpt>
      <trkpt lat="46.87443" lon="-0.93435">
        <ele>156</ele>
        <time>2022-06-02T15:07:29Z</time>
      </trkpt>
      <trkpt lat="46.87451" lon="-0.93323">
        <ele>159</ele>
        <time>2022-06-02T15:07:42Z</time>
      </trkpt>
      <trkpt lat="46.8746" lon="-0.93278">
        <ele>160</ele>
        <time>2022-06-02T15:07:48Z</time>
      </trkpt>
      <trkpt lat="46.8747" lon="-0.93251">
        <ele>161</ele>
        <time>2022-06-02T15:07:52Z</time>
      </trkpt>
      <trkpt lat="46.87487" lon="-0.93218">
        <ele>162</ele>
        <time>2022-06-02T15:07:57Z</time>
      </trkpt>
      <trkpt lat="46.87498" lon="-0.93201">
        <ele>163</ele>
        <time>2022-06-02T15:08:00Z</time>
      </trkpt>
      <trkpt lat="46.87531" lon="-0.93159">
        <ele>168</ele>
        <time>2022-06-02T15:08:07Z</time>
      </trkpt>
      <trkpt lat="46.87543" lon="-0.93135">
        <ele>170</ele>
        <time>2022-06-02T15:08:11Z</time>
      </trkpt>
      <trkpt lat="46.87556" lon="-0.931">
        <ele>172</ele>
        <time>2022-06-02T15:08:16Z</time>
      </trkpt>
      <trkpt lat="46.87589" lon="-0.92964">
        <ele>181</ele>
        <time>2022-06-02T15:08:33Z</time>
      </trkpt>
      <trkpt lat="46.87604" lon="-0.92876">
        <ele>186</ele>
        <time>2022-06-02T15:08:44Z</time>
      </trkpt>
      <trkpt lat="46.87621" lon="-0.92754">
        <ele>191</ele>
        <time>2022-06-02T15:09:00Z</time>
      </trkpt>
      <trkpt lat="46.87625" lon="-0.92684">
        <ele>189</ele>
        <time>2022-06-02T15:09:08Z</time>
      </trkpt>
      <trkpt lat="46.8762" lon="-0.92678">
        <ele>188</ele>
        <time>2022-06-02T15:09:09Z</time>
      </trkpt>
      <trkpt lat="46.87617" lon="-0.92669">
        <ele>187</ele>
        <time>2022-06-02T15:09:11Z</time>
      </trkpt>
      <trkpt lat="46.87616" lon="-0.9266">
        <ele>187</ele>
        <time>2022-06-02T15:09:12Z</time>
      </trkpt>
      <trkpt lat="46.87617" lon="-0.92651">
        <ele>187</ele>
        <time>2022-06-02T15:09:13Z</time>
      </trkpt>
      <trkpt lat="46.87619" lon="-0.92643">
        <ele>187</ele>
        <time>2022-06-02T15:09:14Z</time>
      </trkpt>
      <trkpt lat="46.87624" lon="-0.92636">
        <ele>187</ele>
        <time>2022-06-02T15:09:15Z</time>
      </trkpt>
      <trkpt lat="46.8764" lon="-0.92621">
        <ele>188</ele>
        <time>2022-06-02T15:09:18Z</time>
      </trkpt>
      <trkpt lat="46.8765" lon="-0.92592">
        <ele>188</ele>
        <time>2022-06-02T15:09:22Z</time>
      </trkpt>
      <trkpt lat="46.87677" lon="-0.92536">
        <ele>190</ele>
        <time>2022-06-02T15:09:31Z</time>
      </trkpt>
      <trkpt lat="46.87739" lon="-0.9242">
        <ele>193</ele>
        <time>2022-06-02T15:09:49Z</time>
      </trkpt>
      <trkpt lat="46.87753" lon="-0.92387">
        <ele>194</ele>
        <time>2022-06-02T15:09:53Z</time>
      </trkpt>
      <trkpt lat="46.87762" lon="-0.9235">
        <ele>195</ele>
        <time>2022-06-02T15:09:58Z</time>
      </trkpt>
      <trkpt lat="46.87791" lon="-0.92192">
        <ele>195</ele>
        <time>2022-06-02T15:10:18Z</time>
      </trkpt>
      <trkpt lat="46.878" lon="-0.92151">
        <ele>195</ele>
        <time>2022-06-02T15:10:23Z</time>
      </trkpt>
      <trkpt lat="46.87812" lon="-0.92111">
        <ele>194</ele>
        <time>2022-06-02T15:10:29Z</time>
      </trkpt>
      <trkpt lat="46.87907" lon="-0.91829">
        <ele>198</ele>
        <time>2022-06-02T15:11:07Z</time>
      </trkpt>
      <trkpt lat="46.87931" lon="-0.91762">
        <ele>201</ele>
        <time>2022-06-02T15:11:16Z</time>
      </trkpt>
      <trkpt lat="46.87944" lon="-0.91729">
        <ele>202</ele>
        <time>2022-06-02T15:11:21Z</time>
      </trkpt>
      <trkpt lat="46.88045" lon="-0.91505">
        <ele>206</ele>
        <time>2022-06-02T15:11:53Z</time>
      </trkpt>
      <trkpt lat="46.88064" lon="-0.91467">
        <ele>206</ele>
        <time>2022-06-02T15:11:59Z</time>
      </trkpt>
      <trkpt lat="46.88101" lon="-0.91411">
        <ele>207</ele>
        <time>2022-06-02T15:12:08Z</time>
      </trkpt>
      <trkpt lat="46.88187" lon="-0.91313">
        <ele>208</ele>
        <time>2022-06-02T15:12:28Z</time>
      </trkpt>
      <trkpt lat="46.88217" lon="-0.91275">
        <ele>210</ele>
        <time>2022-06-02T15:12:35Z</time>
      </trkpt>
      <trkpt lat="46.8828" lon="-0.91166">
        <ele>209</ele>
        <time>2022-06-02T15:12:52Z</time>
      </trkpt>
      <trkpt lat="46.88293" lon="-0.91139">
        <ele>208</ele>
        <time>2022-06-02T15:12:56Z</time>
      </trkpt>
      <trkpt lat="46.88303" lon="-0.91113">
        <ele>207</ele>
        <time>2022-06-02T15:13:00Z</time>
      </trkpt>
      <trkpt lat="46.88307" lon="-0.91064">
        <ele>205</ele>
        <time>2022-06-02T15:13:06Z</time>
      </trkpt>
      <trkpt lat="46.88301" lon="-0.91052">
        <ele>205</ele>
        <time>2022-06-02T15:13:08Z</time>
      </trkpt>
      <trkpt lat="46.88299" lon="-0.91044">
        <ele>205</ele>
        <time>2022-06-02T15:13:09Z</time>
      </trkpt>
      <trkpt lat="46.883" lon="-0.91029">
        <ele>204</ele>
        <time>2022-06-02T15:13:11Z</time>
      </trkpt>
      <trkpt lat="46.88303" lon="-0.91021">
        <ele>204</ele>
        <time>2022-06-02T15:13:12Z</time>
      </trkpt>
      <trkpt lat="46.88308" lon="-0.91013">
        <ele>204</ele>
        <time>2022-06-02T15:13:13Z</time>
      </trkpt>
      <trkpt lat="46.88315" lon="-0.91008">
        <ele>204</ele>
        <time>2022-06-02T15:13:14Z</time>
      </trkpt>
      <trkpt lat="46.8832" lon="-0.91006">
        <ele>205</ele>
        <time>2022-06-02T15:13:15Z</time>
      </trkpt>
      <trkpt lat="46.88327" lon="-0.90994">
        <ele>205</ele>
        <time>2022-06-02T15:13:17Z</time>
      </trkpt>
      <trkpt lat="46.88339" lon="-0.90958">
        <ele>206</ele>
        <time>2022-06-02T15:13:22Z</time>
      </trkpt>
      <trkpt lat="46.88363" lon="-0.90858">
        <ele>208</ele>
        <time>2022-06-02T15:13:35Z</time>
      </trkpt>
      <trkpt lat="46.88367" lon="-0.90812">
        <ele>208</ele>
        <time>2022-06-02T15:13:41Z</time>
      </trkpt>
      <trkpt lat="46.88365" lon="-0.90783">
        <ele>208</ele>
        <time>2022-06-02T15:13:44Z</time>
      </trkpt>
      <trkpt lat="46.88359" lon="-0.90744">
        <ele>207</ele>
        <time>2022-06-02T15:13:49Z</time>
      </trkpt>
      <trkpt lat="46.88348" lon="-0.90698">
        <ele>206</ele>
        <time>2022-06-02T15:13:55Z</time>
      </trkpt>
      <trkpt lat="46.8835" lon="-0.90695">
        <ele>206</ele>
        <time>2022-06-02T15:13:55Z</time>
      </trkpt>
      <trkpt lat="46.88354" lon="-0.90685">
        <ele>207</ele>
        <time>2022-06-02T15:13:57Z</time>
      </trkpt>
      <trkpt lat="46.88358" lon="-0.90624">
        <ele>207</ele>
        <time>2022-06-02T15:14:04Z</time>
      </trkpt>
      <trkpt lat="46.88362" lon="-0.90599">
        <ele>208</ele>
        <time>2022-06-02T15:14:07Z</time>
      </trkpt>
      <trkpt lat="46.88385" lon="-0.90505">
        <ele>211</ele>
        <time>2022-06-02T15:14:20Z</time>
      </trkpt>
      <trkpt lat="46.88396" lon="-0.90434">
        <ele>211</ele>
        <time>2022-06-02T15:14:28Z</time>
      </trkpt>
      <trkpt lat="46.88424" lon="-0.90323">
        <ele>210</ele>
        <time>2022-06-02T15:14:43Z</time>
      </trkpt>
      <trkpt lat="46.88436" lon="-0.90267">
        <ele>209</ele>
        <time>2022-06-02T15:14:50Z</time>
      </trkpt>
      <trkpt lat="46.88459" lon="-0.90201">
        <ele>208</ele>
        <time>2022-06-02T15:14:59Z</time>
      </trkpt>
      <trkpt lat="46.88469" lon="-0.90176">
        <ele>208</ele>
        <time>2022-06-02T15:15:02Z</time>
      </trkpt>
      <trkpt lat="46.88474" lon="-0.90169">
        <ele>208</ele>
        <time>2022-06-02T15:15:04Z</time>
      </trkpt>
      <trkpt lat="46.88488" lon="-0.9016">
        <ele>208</ele>
        <time>2022-06-02T15:15:06Z</time>
      </trkpt>
      <trkpt lat="46.88496" lon="-0.90158">
        <ele>209</ele>
        <time>2022-06-02T15:15:08Z</time>
      </trkpt>
      <trkpt lat="46.8854" lon="-0.90159">
        <ele>207</ele>
        <time>2022-06-02T15:15:16Z</time>
      </trkpt>
      <trkpt lat="46.88558" lon="-0.90154">
        <ele>206</ele>
        <time>2022-06-02T15:15:19Z</time>
      </trkpt>
      <trkpt lat="46.88588" lon="-0.90132">
        <ele>205</ele>
        <time>2022-06-02T15:15:25Z</time>
      </trkpt>
      <trkpt lat="46.88592" lon="-0.90128">
        <ele>204</ele>
        <time>2022-06-02T15:15:26Z</time>
      </trkpt>
      <trkpt lat="46.88612" lon="-0.90073">
        <ele>205</ele>
        <time>2022-06-02T15:15:33Z</time>
      </trkpt>
      <trkpt lat="46.88637" lon="-0.89973">
        <ele>207</ele>
        <time>2022-06-02T15:15:46Z</time>
      </trkpt>
      <trkpt lat="46.88676" lon="-0.89865">
        <ele>209</ele>
        <time>2022-06-02T15:16:01Z</time>
      </trkpt>
      <trkpt lat="46.88678" lon="-0.8979">
        <ele>206</ele>
        <time>2022-06-02T15:16:10Z</time>
      </trkpt>
      <trkpt lat="46.88681" lon="-0.89777">
        <ele>206</ele>
        <time>2022-06-02T15:16:12Z</time>
      </trkpt>
      <trkpt lat="46.88686" lon="-0.89767">
        <ele>205</ele>
        <time>2022-06-02T15:16:13Z</time>
      </trkpt>
      <trkpt lat="46.88691" lon="-0.89761">
        <ele>205</ele>
        <time>2022-06-02T15:16:15Z</time>
      </trkpt>
      <trkpt lat="46.8874" lon="-0.89728">
        <ele>205</ele>
        <time>2022-06-02T15:16:24Z</time>
      </trkpt>
      <trkpt lat="46.88751" lon="-0.89714">
        <ele>205</ele>
        <time>2022-06-02T15:16:27Z</time>
      </trkpt>
      <trkpt lat="46.88763" lon="-0.89682">
        <ele>203</ele>
        <time>2022-06-02T15:16:31Z</time>
      </trkpt>
      <trkpt lat="46.88764" lon="-0.89664">
        <ele>202</ele>
        <time>2022-06-02T15:16:33Z</time>
      </trkpt>
      <trkpt lat="46.88778" lon="-0.8965">
        <ele>202</ele>
        <time>2022-06-02T15:16:36Z</time>
      </trkpt>
      <trkpt lat="46.8879" lon="-0.89615">
        <ele>200</ele>
        <time>2022-06-02T15:16:41Z</time>
      </trkpt>
      <trkpt lat="46.88809" lon="-0.8958">
        <ele>199</ele>
        <time>2022-06-02T15:16:47Z</time>
      </trkpt>
      <trkpt lat="46.88852" lon="-0.89543">
        <ele>194</ele>
        <time>2022-06-02T15:16:56Z</time>
      </trkpt>
      <trkpt lat="46.88865" lon="-0.89526">
        <ele>192</ele>
        <time>2022-06-02T15:16:59Z</time>
      </trkpt>
      <trkpt lat="46.88874" lon="-0.89497">
        <ele>190</ele>
        <time>2022-06-02T15:17:03Z</time>
      </trkpt>
      <trkpt lat="46.88893" lon="-0.89394">
        <ele>186</ele>
        <time>2022-06-02T15:17:16Z</time>
      </trkpt>
      <trkpt lat="46.88901" lon="-0.89372">
        <ele>186</ele>
        <time>2022-06-02T15:17:19Z</time>
      </trkpt>
      <trkpt lat="46.88905" lon="-0.89354">
        <ele>186</ele>
        <time>2022-06-02T15:17:21Z</time>
      </trkpt>
      <trkpt lat="46.88907" lon="-0.89306">
        <ele>186</ele>
        <time>2022-06-02T15:17:27Z</time>
      </trkpt>
      <trkpt lat="46.88921" lon="-0.89177">
        <ele>188</ele>
        <time>2022-06-02T15:17:43Z</time>
      </trkpt>
      <trkpt lat="46.88921" lon="-0.89138">
        <ele>188</ele>
        <time>2022-06-02T15:17:47Z</time>
      </trkpt>
      <trkpt lat="46.8892" lon="-0.89119">
        <ele>188</ele>
        <time>2022-06-02T15:17:50Z</time>
      </trkpt>
      <trkpt lat="46.88917" lon="-0.89107">
        <ele>188</ele>
        <time>2022-06-02T15:17:51Z</time>
      </trkpt>
      <trkpt lat="46.88914" lon="-0.89102">
        <ele>188</ele>
        <time>2022-06-02T15:17:52Z</time>
      </trkpt>
      <trkpt lat="46.88928" lon="-0.89068">
        <ele>188</ele>
        <time>2022-06-02T15:17:57Z</time>
      </trkpt>
      <trkpt lat="46.88969" lon="-0.88912">
        <ele>188</ele>
        <time>2022-06-02T15:18:17Z</time>
      </trkpt>
      <trkpt lat="46.89021" lon="-0.88773">
        <ele>185</ele>
        <time>2022-06-02T15:18:36Z</time>
      </trkpt>
      <trkpt lat="46.89051" lon="-0.88703">
        <ele>184</ele>
        <time>2022-06-02T15:18:46Z</time>
      </trkpt>
      <trkpt lat="46.89082" lon="-0.88644">
        <ele>182</ele>
        <time>2022-06-02T15:18:56Z</time>
      </trkpt>
      <trkpt lat="46.89166" lon="-0.8851">
        <ele>180</ele>
        <time>2022-06-02T15:19:18Z</time>
      </trkpt>
      <trkpt lat="46.89184" lon="-0.88475">
        <ele>181</ele>
        <time>2022-06-02T15:19:23Z</time>
      </trkpt>
      <trkpt lat="46.89199" lon="-0.8844">
        <ele>181</ele>
        <time>2022-06-02T15:19:28Z</time>
      </trkpt>
      <trkpt lat="46.89223" lon="-0.88373">
        <ele>183</ele>
        <time>2022-06-02T15:19:37Z</time>
      </trkpt>
      <trkpt lat="46.89239" lon="-0.88315">
        <ele>185</ele>
        <time>2022-06-02T15:19:45Z</time>
      </trkpt>
      <trkpt lat="46.89303" lon="-0.88019">
        <ele>187</ele>
        <time>2022-06-02T15:20:23Z</time>
      </trkpt>
      <trkpt lat="46.89312" lon="-0.87984">
        <ele>187</ele>
        <time>2022-06-02T15:20:27Z</time>
      </trkpt>
      <trkpt lat="46.89325" lon="-0.87947">
        <ele>187</ele>
        <time>2022-06-02T15:20:32Z</time>
      </trkpt>
      <trkpt lat="46.89344" lon="-0.87905">
        <ele>187</ele>
        <time>2022-06-02T15:20:38Z</time>
      </trkpt>
      <trkpt lat="46.89369" lon="-0.87856">
        <ele>188</ele>
        <time>2022-06-02T15:20:46Z</time>
      </trkpt>
      <trkpt lat="46.89405" lon="-0.87799">
        <ele>188</ele>
        <time>2022-06-02T15:20:55Z</time>
      </trkpt>
      <trkpt lat="46.89439" lon="-0.87755">
        <ele>189</ele>
        <time>2022-06-02T15:21:03Z</time>
      </trkpt>
      <trkpt lat="46.89462" lon="-0.87733">
        <ele>189</ele>
        <time>2022-06-02T15:21:08Z</time>
      </trkpt>
      <trkpt lat="46.89492" lon="-0.8771">
        <ele>190</ele>
        <time>2022-06-02T15:21:14Z</time>
      </trkpt>
      <trkpt lat="46.89559" lon="-0.87675">
        <ele>191</ele>
        <time>2022-06-02T15:21:27Z</time>
      </trkpt>
      <trkpt lat="46.89649" lon="-0.8764">
        <ele>194</ele>
        <time>2022-06-02T15:21:43Z</time>
      </trkpt>
      <trkpt lat="46.89702" lon="-0.87625">
        <ele>194</ele>
        <time>2022-06-02T15:21:53Z</time>
      </trkpt>
      <trkpt lat="46.89817" lon="-0.87623">
        <ele>191</ele>
        <time>2022-06-02T15:22:13Z</time>
      </trkpt>
      <trkpt lat="46.8985" lon="-0.87619">
        <ele>190</ele>
        <time>2022-06-02T15:22:19Z</time>
      </trkpt>
      <trkpt lat="46.89869" lon="-0.87614">
        <ele>189</ele>
        <time>2022-06-02T15:22:23Z</time>
      </trkpt>
      <trkpt lat="46.8989" lon="-0.87604">
        <ele>188</ele>
        <time>2022-06-02T15:22:27Z</time>
      </trkpt>
      <trkpt lat="46.90037" lon="-0.87507">
        <ele>181</ele>
        <time>2022-06-02T15:22:55Z</time>
      </trkpt>
      <trkpt lat="46.90063" lon="-0.87482">
        <ele>181</ele>
        <time>2022-06-02T15:23:01Z</time>
      </trkpt>
      <trkpt lat="46.90084" lon="-0.87454">
        <ele>181</ele>
        <time>2022-06-02T15:23:06Z</time>
      </trkpt>
      <trkpt lat="46.9014" lon="-0.87356">
        <ele>180</ele>
        <time>2022-06-02T15:23:21Z</time>
      </trkpt>
      <trkpt lat="46.90158" lon="-0.8733">
        <ele>180</ele>
        <time>2022-06-02T15:23:26Z</time>
      </trkpt>
      <trkpt lat="46.90173" lon="-0.87314">
        <ele>180</ele>
        <time>2022-06-02T15:23:29Z</time>
      </trkpt>
      <trkpt lat="46.90199" lon="-0.87299">
        <ele>179</ele>
        <time>2022-06-02T15:23:34Z</time>
      </trkpt>
      <trkpt lat="46.90212" lon="-0.87293">
        <ele>178</ele>
        <time>2022-06-02T15:23:37Z</time>
      </trkpt>
      <trkpt lat="46.90241" lon="-0.8729">
        <ele>178</ele>
        <time>2022-06-02T15:23:42Z</time>
      </trkpt>
      <trkpt lat="46.90533" lon="-0.87282">
        <ele>166</ele>
        <time>2022-06-02T15:24:34Z</time>
      </trkpt>
      <trkpt lat="46.90915" lon="-0.87224">
        <ele>145</ele>
        <time>2022-06-02T15:25:42Z</time>
      </trkpt>
      <trkpt lat="46.90973" lon="-0.87207">
        <ele>139</ele>
        <time>2022-06-02T15:25:53Z</time>
      </trkpt>
      <trkpt lat="46.91091" lon="-0.87134">
        <ele>128</ele>
        <time>2022-06-02T15:26:15Z</time>
      </trkpt>
      <trkpt lat="46.9111" lon="-0.87107">
        <ele>128</ele>
        <time>2022-06-02T15:26:20Z</time>
      </trkpt>
      <trkpt lat="46.91117" lon="-0.87088">
        <ele>128</ele>
        <time>2022-06-02T15:26:23Z</time>
      </trkpt>
      <trkpt lat="46.91117" lon="-0.87083">
        <ele>129</ele>
        <time>2022-06-02T15:26:23Z</time>
      </trkpt>
      <trkpt lat="46.9112" lon="-0.87074">
        <ele>129</ele>
        <time>2022-06-02T15:26:25Z</time>
      </trkpt>
      <trkpt lat="46.91117" lon="-0.87053">
        <ele>130</ele>
        <time>2022-06-02T15:26:27Z</time>
      </trkpt>
      <trkpt lat="46.91113" lon="-0.86971">
        <ele>132</ele>
        <time>2022-06-02T15:26:37Z</time>
      </trkpt>
      <trkpt lat="46.91111" lon="-0.86954">
        <ele>132</ele>
        <time>2022-06-02T15:26:39Z</time>
      </trkpt>
      <trkpt lat="46.91106" lon="-0.86939">
        <ele>132</ele>
        <time>2022-06-02T15:26:41Z</time>
      </trkpt>
      <trkpt lat="46.91054" lon="-0.86818">
        <ele>131</ele>
        <time>2022-06-02T15:26:59Z</time>
      </trkpt>
      <trkpt lat="46.91039" lon="-0.86787">
        <ele>130</ele>
        <time>2022-06-02T15:27:03Z</time>
      </trkpt>
      <trkpt lat="46.91025" lon="-0.86768">
        <ele>129</ele>
        <time>2022-06-02T15:27:07Z</time>
      </trkpt>
      <trkpt lat="46.91018" lon="-0.86754">
        <ele>128</ele>
        <time>2022-06-02T15:27:09Z</time>
      </trkpt>
      <trkpt lat="46.91014" lon="-0.86739">
        <ele>128</ele>
        <time>2022-06-02T15:27:11Z</time>
      </trkpt>
      <trkpt lat="46.91014" lon="-0.86725">
        <ele>127</ele>
        <time>2022-06-02T15:27:13Z</time>
      </trkpt>
      <trkpt lat="46.91065" lon="-0.8662">
        <ele>128</ele>
        <time>2022-06-02T15:27:28Z</time>
      </trkpt>
      <trkpt lat="46.91088" lon="-0.86578">
        <ele>129</ele>
        <time>2022-06-02T15:27:35Z</time>
      </trkpt>
      <trkpt lat="46.91117" lon="-0.86532">
        <ele>136</ele>
        <time>2022-06-02T15:27:42Z</time>
      </trkpt>
      <trkpt lat="46.91121" lon="-0.86529">
        <ele>136</ele>
        <time>2022-06-02T15:27:43Z</time>
      </trkpt>
      <trkpt lat="46.91128" lon="-0.8653">
        <ele>137</ele>
        <time>2022-06-02T15:27:44Z</time>
      </trkpt>
      <trkpt lat="46.91147" lon="-0.8654">
        <ele>138</ele>
        <time>2022-06-02T15:27:48Z</time>
      </trkpt>
      <trkpt lat="46.9116" lon="-0.86544">
        <ele>138</ele>
        <time>2022-06-02T15:27:50Z</time>
      </trkpt>
      <trkpt lat="46.91197" lon="-0.86546">
        <ele>138</ele>
        <time>2022-06-02T15:27:57Z</time>
      </trkpt>
      <trkpt lat="46.91207" lon="-0.86539">
        <ele>137</ele>
        <time>2022-06-02T15:27:59Z</time>
      </trkpt>
      <trkpt lat="46.91223" lon="-0.86521">
        <ele>137</ele>
        <time>2022-06-02T15:28:02Z</time>
      </trkpt>
      <trkpt lat="46.91238" lon="-0.86489">
        <ele>138</ele>
        <time>2022-06-02T15:28:07Z</time>
      </trkpt>
      <trkpt lat="46.91288" lon="-0.86343">
        <ele>140</ele>
        <time>2022-06-02T15:28:27Z</time>
      </trkpt>
      <trkpt lat="46.91304" lon="-0.86311">
        <ele>138</ele>
        <time>2022-06-02T15:28:32Z</time>
      </trkpt>
      <trkpt lat="46.91369" lon="-0.86187">
        <ele>137</ele>
        <time>2022-06-02T15:28:51Z</time>
      </trkpt>
      <trkpt lat="46.91379" lon="-0.86163">
        <ele>138</ele>
        <time>2022-06-02T15:28:54Z</time>
      </trkpt>
      <trkpt lat="46.91388" lon="-0.86124">
        <ele>139</ele>
        <time>2022-06-02T15:28:59Z</time>
      </trkpt>
      <trkpt lat="46.9139" lon="-0.86102">
        <ele>139</ele>
        <time>2022-06-02T15:29:02Z</time>
      </trkpt>
      <trkpt lat="46.91384" lon="-0.85972">
        <ele>143</ele>
        <time>2022-06-02T15:29:18Z</time>
      </trkpt>
      <trkpt lat="46.91403" lon="-0.85762">
        <ele>146</ele>
        <time>2022-06-02T15:29:44Z</time>
      </trkpt>
      <trkpt lat="46.91404" lon="-0.85736">
        <ele>147</ele>
        <time>2022-06-02T15:29:47Z</time>
      </trkpt>
      <trkpt lat="46.914" lon="-0.8564">
        <ele>149</ele>
        <time>2022-06-02T15:29:58Z</time>
      </trkpt>
      <trkpt lat="46.914" lon="-0.85616">
        <ele>150</ele>
        <time>2022-06-02T15:30:01Z</time>
      </trkpt>
      <trkpt lat="46.91402" lon="-0.85589">
        <ele>152</ele>
        <time>2022-06-02T15:30:05Z</time>
      </trkpt>
      <trkpt lat="46.91404" lon="-0.85573">
        <ele>153</ele>
        <time>2022-06-02T15:30:07Z</time>
      </trkpt>
      <trkpt lat="46.91433" lon="-0.85437">
        <ele>160</ele>
        <time>2022-06-02T15:30:24Z</time>
      </trkpt>
      <trkpt lat="46.91456" lon="-0.85352">
        <ele>159</ele>
        <time>2022-06-02T15:30:35Z</time>
      </trkpt>
      <trkpt lat="46.91463" lon="-0.85335">
        <ele>158</ele>
        <time>2022-06-02T15:30:37Z</time>
      </trkpt>
      <trkpt lat="46.91476" lon="-0.85313">
        <ele>157</ele>
        <time>2022-06-02T15:30:41Z</time>
      </trkpt>
      <trkpt lat="46.91513" lon="-0.85276">
        <ele>154</ele>
        <time>2022-06-02T15:30:49Z</time>
      </trkpt>
      <trkpt lat="46.91631" lon="-0.85166">
        <ele>164</ele>
        <time>2022-06-02T15:31:14Z</time>
      </trkpt>
      <trkpt lat="46.9167" lon="-0.85135">
        <ele>165</ele>
        <time>2022-06-02T15:31:22Z</time>
      </trkpt>
      <trkpt lat="46.91686" lon="-0.85126">
        <ele>165</ele>
        <time>2022-06-02T15:31:25Z</time>
      </trkpt>
      <trkpt lat="46.91706" lon="-0.85117">
        <ele>166</ele>
        <time>2022-06-02T15:31:29Z</time>
      </trkpt>
      <trkpt lat="46.91734" lon="-0.85112">
        <ele>166</ele>
        <time>2022-06-02T15:31:34Z</time>
      </trkpt>
      <trkpt lat="46.91814" lon="-0.85121">
        <ele>169</ele>
        <time>2022-06-02T15:31:48Z</time>
      </trkpt>
      <trkpt lat="46.91845" lon="-0.85118">
        <ele>171</ele>
        <time>2022-06-02T15:31:53Z</time>
      </trkpt>
      <trkpt lat="46.91902" lon="-0.85095">
        <ele>173</ele>
        <time>2022-06-02T15:32:04Z</time>
      </trkpt>
      <trkpt lat="46.91922" lon="-0.85077">
        <ele>175</ele>
        <time>2022-06-02T15:32:08Z</time>
      </trkpt>
      <trkpt lat="46.91928" lon="-0.85068">
        <ele>175</ele>
        <time>2022-06-02T15:32:10Z</time>
      </trkpt>
      <trkpt lat="46.91933" lon="-0.85051">
        <ele>176</ele>
        <time>2022-06-02T15:32:12Z</time>
      </trkpt>
      <trkpt lat="46.91949" lon="-0.84926">
        <ele>180</ele>
        <time>2022-06-02T15:32:27Z</time>
      </trkpt>
      <trkpt lat="46.91959" lon="-0.84868">
        <ele>182</ele>
        <time>2022-06-02T15:32:35Z</time>
      </trkpt>
      <trkpt lat="46.91962" lon="-0.84857">
        <ele>182</ele>
        <time>2022-06-02T15:32:36Z</time>
      </trkpt>
      <trkpt lat="46.9197" lon="-0.84846">
        <ele>182</ele>
        <time>2022-06-02T15:32:38Z</time>
      </trkpt>
      <trkpt lat="46.91981" lon="-0.8484">
        <ele>182</ele>
        <time>2022-06-02T15:32:40Z</time>
      </trkpt>
      <trkpt lat="46.92036" lon="-0.84839">
        <ele>182</ele>
        <time>2022-06-02T15:32:50Z</time>
      </trkpt>
      <trkpt lat="46.92044" lon="-0.84833">
        <ele>181</ele>
        <time>2022-06-02T15:32:51Z</time>
      </trkpt>
      <trkpt lat="46.92055" lon="-0.8482">
        <ele>182</ele>
        <time>2022-06-02T15:32:54Z</time>
      </trkpt>
      <trkpt lat="46.92073" lon="-0.84787">
        <ele>183</ele>
        <time>2022-06-02T15:32:59Z</time>
      </trkpt>
      <trkpt lat="46.92082" lon="-0.84776">
        <ele>183</ele>
        <time>2022-06-02T15:33:01Z</time>
      </trkpt>
      <trkpt lat="46.92105" lon="-0.84767">
        <ele>183</ele>
        <time>2022-06-02T15:33:05Z</time>
      </trkpt>
      <trkpt lat="46.92183" lon="-0.84724">
        <ele>183</ele>
        <time>2022-06-02T15:33:20Z</time>
      </trkpt>
      <trkpt lat="46.92232" lon="-0.84684">
        <ele>183</ele>
        <time>2022-06-02T15:33:30Z</time>
      </trkpt>
      <trkpt lat="46.92399" lon="-0.84574">
        <ele>187</ele>
        <time>2022-06-02T15:34:03Z</time>
      </trkpt>
      <trkpt lat="46.92457" lon="-0.84529">
        <ele>190</ele>
        <time>2022-06-02T15:34:14Z</time>
      </trkpt>
      <trkpt lat="46.92566" lon="-0.84437">
        <ele>191</ele>
        <time>2022-06-02T15:34:37Z</time>
      </trkpt>
      <trkpt lat="46.92587" lon="-0.84409">
        <ele>191</ele>
        <time>2022-06-02T15:34:42Z</time>
      </trkpt>
      <trkpt lat="46.92584" lon="-0.84401">
        <ele>191</ele>
        <time>2022-06-02T15:34:43Z</time>
      </trkpt>
      <trkpt lat="46.92587" lon="-0.84389">
        <ele>191</ele>
        <time>2022-06-02T15:34:45Z</time>
      </trkpt>
      <trkpt lat="46.92593" lon="-0.84384">
        <ele>191</ele>
        <time>2022-06-02T15:34:46Z</time>
      </trkpt>
      <trkpt lat="46.92599" lon="-0.84385">
        <ele>192</ele>
        <time>2022-06-02T15:34:47Z</time>
      </trkpt>
      <trkpt lat="46.92604" lon="-0.84392">
        <ele>192</ele>
        <time>2022-06-02T15:34:48Z</time>
      </trkpt>
      <trkpt lat="46.92633" lon="-0.84375">
        <ele>193</ele>
        <time>2022-06-02T15:34:54Z</time>
      </trkpt>
      <trkpt lat="46.93128" lon="-0.83881">
        <ele>200</ele>
        <time>2022-06-02T15:36:40Z</time>
      </trkpt>
      <trkpt lat="46.93178" lon="-0.83828">
        <ele>204</ele>
        <time>2022-06-02T15:36:51Z</time>
      </trkpt>
      <trkpt lat="46.93194" lon="-0.83806">
        <ele>205</ele>
        <time>2022-06-02T15:36:55Z</time>
      </trkpt>
      <trkpt lat="46.93207" lon="-0.83781">
        <ele>206</ele>
        <time>2022-06-02T15:36:59Z</time>
      </trkpt>
      <trkpt lat="46.93217" lon="-0.83757">
        <ele>208</ele>
        <time>2022-06-02T15:37:02Z</time>
      </trkpt>
      <trkpt lat="46.93255" lon="-0.83648">
        <ele>209</ele>
        <time>2022-06-02T15:37:17Z</time>
      </trkpt>
      <trkpt lat="46.93384" lon="-0.83289">
        <ele>206</ele>
        <time>2022-06-02T15:38:07Z</time>
      </trkpt>
      <trkpt lat="46.93388" lon="-0.83274">
        <ele>206</ele>
        <time>2022-06-02T15:38:08Z</time>
      </trkpt>
      <trkpt lat="46.93395" lon="-0.83255">
        <ele>206</ele>
        <time>2022-06-02T15:38:11Z</time>
      </trkpt>
      <trkpt lat="46.93399" lon="-0.83251">
        <ele>207</ele>
        <time>2022-06-02T15:38:12Z</time>
      </trkpt>
      <trkpt lat="46.93428" lon="-0.83341">
        <ele>206</ele>
        <time>2022-06-02T15:38:24Z</time>
      </trkpt>
      <trkpt lat="46.93433" lon="-0.83333">
        <ele>206</ele>
        <time>2022-06-02T15:38:25Z</time>
      </trkpt>
      <trkpt lat="46.93438" lon="-0.8332">
        <ele>206</ele>
        <time>2022-06-02T15:38:27Z</time>
      </trkpt>
      <trkpt lat="46.93447" lon="-0.8328">
        <ele>207</ele>
        <time>2022-06-02T15:38:32Z</time>
      </trkpt>
      <trkpt lat="46.93453" lon="-0.83264">
        <ele>207</ele>
        <time>2022-06-02T15:38:35Z</time>
      </trkpt>
      <trkpt lat="46.93461" lon="-0.83252">
        <ele>207</ele>
        <time>2022-06-02T15:38:37Z</time>
      </trkpt>
      <trkpt lat="46.93481" lon="-0.83234">
        <ele>207</ele>
        <time>2022-06-02T15:38:41Z</time>
      </trkpt>
      <trkpt lat="46.93507" lon="-0.83214">
        <ele>207</ele>
        <time>2022-06-02T15:38:46Z</time>
      </trkpt>
      <trkpt lat="46.93522" lon="-0.83206">
        <ele>207</ele>
        <time>2022-06-02T15:38:49Z</time>
      </trkpt>
      <trkpt lat="46.93535" lon="-0.83201">
        <ele>207</ele>
        <time>2022-06-02T15:38:51Z</time>
      </trkpt>
      <trkpt lat="46.93593" lon="-0.83195">
        <ele>208</ele>
        <time>2022-06-02T15:39:02Z</time>
      </trkpt>
      <trkpt lat="46.93606" lon="-0.83191">
        <ele>209</ele>
        <time>2022-06-02T15:39:04Z</time>
      </trkpt>
      <trkpt lat="46.93666" lon="-0.83157">
        <ele>212</ele>
        <time>2022-06-02T15:39:15Z</time>
      </trkpt>
      <trkpt lat="46.93741" lon="-0.83093">
        <ele>215</ele>
        <time>2022-06-02T15:39:31Z</time>
      </trkpt>
      <trkpt lat="46.93799" lon="-0.83054">
        <ele>215</ele>
        <time>2022-06-02T15:39:42Z</time>
      </trkpt>
      <trkpt lat="46.93819" lon="-0.83036">
        <ele>214</ele>
        <time>2022-06-02T15:39:46Z</time>
      </trkpt>
      <trkpt lat="46.93853" lon="-0.82997">
        <ele>213</ele>
        <time>2022-06-02T15:39:54Z</time>
      </trkpt>
      <trkpt lat="46.93862" lon="-0.8299">
        <ele>212</ele>
        <time>2022-06-02T15:39:56Z</time>
      </trkpt>
      <trkpt lat="46.93873" lon="-0.82986">
        <ele>211</ele>
        <time>2022-06-02T15:39:58Z</time>
      </trkpt>
      <trkpt lat="46.93905" lon="-0.82987">
        <ele>209</ele>
        <time>2022-06-02T15:40:04Z</time>
      </trkpt>
      <trkpt lat="46.93949" lon="-0.82998">
        <ele>206</ele>
        <time>2022-06-02T15:40:11Z</time>
      </trkpt>
      <trkpt lat="46.93982" lon="-0.8301">
        <ele>204</ele>
        <time>2022-06-02T15:40:18Z</time>
      </trkpt>
      <trkpt lat="46.94068" lon="-0.8305">
        <ele>195</ele>
        <time>2022-06-02T15:40:34Z</time>
      </trkpt>
      <trkpt lat="46.94076" lon="-0.83142">
        <ele>193</ele>
        <time>2022-06-02T15:40:45Z</time>
      </trkpt>
      <trkpt lat="46.94084" lon="-0.83175">
        <ele>192</ele>
        <time>2022-06-02T15:40:49Z</time>
      </trkpt>
      <trkpt lat="46.94135" lon="-0.83304">
        <ele>192</ele>
        <time>2022-06-02T15:41:07Z</time>
      </trkpt>
      <trkpt lat="46.94165" lon="-0.83354">
        <ele>190</ele>
        <time>2022-06-02T15:41:15Z</time>
      </trkpt>
      <trkpt lat="46.94186" lon="-0.83377">
        <ele>187</ele>
        <time>2022-06-02T15:41:20Z</time>
      </trkpt>
      <trkpt lat="46.9425" lon="-0.83419">
        <ele>177</ele>
        <time>2022-06-02T15:41:32Z</time>
      </trkpt>
      <trkpt lat="46.94266" lon="-0.83435">
        <ele>174</ele>
        <time>2022-06-02T15:41:36Z</time>
      </trkpt>
      <trkpt lat="46.94285" lon="-0.83466">
        <ele>170</ele>
        <time>2022-06-02T15:41:41Z</time>
      </trkpt>
      <trkpt lat="46.9434" lon="-0.83596">
        <ele>162</ele>
        <time>2022-06-02T15:42:00Z</time>
      </trkpt>
      <trkpt lat="46.94353" lon="-0.83617">
        <ele>163</ele>
        <time>2022-06-02T15:42:03Z</time>
      </trkpt>
      <trkpt lat="46.94494" lon="-0.83765">
        <ele>171</ele>
        <time>2022-06-02T15:42:34Z</time>
      </trkpt>
      <trkpt lat="46.94496" lon="-0.8377">
        <ele>171</ele>
        <time>2022-06-02T15:42:35Z</time>
      </trkpt>
      <trkpt lat="46.94504" lon="-0.83765">
        <ele>171</ele>
        <time>2022-06-02T15:42:36Z</time>
      </trkpt>
      <trkpt lat="46.94695" lon="-0.837">
        <ele>167</ele>
        <time>2022-06-02T15:43:11Z</time>
      </trkpt>
      <trkpt lat="46.94709" lon="-0.8369">
        <ele>166</ele>
        <time>2022-06-02T15:43:14Z</time>
      </trkpt>
      <trkpt lat="46.94725" lon="-0.83683">
        <ele>166</ele>
        <time>2022-06-02T15:43:17Z</time>
      </trkpt>
      <trkpt lat="46.94757" lon="-0.83666">
        <ele>166</ele>
        <time>2022-06-02T15:43:23Z</time>
      </trkpt>
      <trkpt lat="46.94758" lon="-0.83656">
        <ele>165</ele>
        <time>2022-06-02T15:43:24Z</time>
      </trkpt>
      <trkpt lat="46.94774" lon="-0.83609">
        <ele>162</ele>
        <time>2022-06-02T15:43:30Z</time>
      </trkpt>
      <trkpt lat="46.94783" lon="-0.83574">
        <ele>159</ele>
        <time>2022-06-02T15:43:35Z</time>
      </trkpt>
      <trkpt lat="46.9479" lon="-0.8356">
        <ele>158</ele>
        <time>2022-06-02T15:43:37Z</time>
      </trkpt>
      <trkpt lat="46.94798" lon="-0.8355">
        <ele>156</ele>
        <time>2022-06-02T15:43:39Z</time>
      </trkpt>
      <trkpt lat="46.94808" lon="-0.83546">
        <ele>155</ele>
        <time>2022-06-02T15:43:41Z</time>
      </trkpt>
      <trkpt lat="46.94825" lon="-0.83546">
        <ele>155</ele>
        <time>2022-06-02T15:43:44Z</time>
      </trkpt>
      <trkpt lat="46.9485" lon="-0.83549">
        <ele>152</ele>
        <time>2022-06-02T15:43:48Z</time>
      </trkpt>
      <trkpt lat="46.94949" lon="-0.8358">
        <ele>141</ele>
        <time>2022-06-02T15:44:06Z</time>
      </trkpt>
      <trkpt lat="46.94983" lon="-0.83586">
        <ele>138</ele>
        <time>2022-06-02T15:44:12Z</time>
      </trkpt>
      <trkpt lat="46.94987" lon="-0.83569">
        <ele>137</ele>
        <time>2022-06-02T15:44:15Z</time>
      </trkpt>
      <trkpt lat="46.9499" lon="-0.83544">
        <ele>136</ele>
        <time>2022-06-02T15:44:18Z</time>
      </trkpt>
      <trkpt lat="46.94989" lon="-0.83521">
        <ele>135</ele>
        <time>2022-06-02T15:44:20Z</time>
      </trkpt>
      <trkpt lat="46.94987" lon="-0.83503">
        <ele>135</ele>
        <time>2022-06-02T15:44:23Z</time>
      </trkpt>
      <trkpt lat="46.94978" lon="-0.83474">
        <ele>135</ele>
        <time>2022-06-02T15:44:26Z</time>
      </trkpt>
      <trkpt lat="46.9497" lon="-0.83465">
        <ele>135</ele>
        <time>2022-06-02T15:44:28Z</time>
      </trkpt>
      <trkpt lat="46.94961" lon="-0.8346">
        <ele>135</ele>
        <time>2022-06-02T15:44:30Z</time>
      </trkpt>
      <trkpt lat="46.94918" lon="-0.83455">
        <ele>137</ele>
        <time>2022-06-02T15:44:38Z</time>
      </trkpt>
      <trkpt lat="46.94909" lon="-0.83451">
        <ele>138</ele>
        <time>2022-06-02T15:44:39Z</time>
      </trkpt>
      <trkpt lat="46.94869" lon="-0.83421">
        <ele>138</ele>
        <time>2022-06-02T15:44:47Z</time>
      </trkpt>
      <trkpt lat="46.94831" lon="-0.83408">
        <ele>139</ele>
        <time>2022-06-02T15:44:54Z</time>
      </trkpt>
      <trkpt lat="46.94802" lon="-0.83403">
        <ele>141</ele>
        <time>2022-06-02T15:44:59Z</time>
      </trkpt>
      <trkpt lat="46.94793" lon="-0.83399">
        <ele>142</ele>
        <time>2022-06-02T15:45:01Z</time>
      </trkpt>
      <trkpt lat="46.94788" lon="-0.83388">
        <ele>143</ele>
        <time>2022-06-02T15:45:03Z</time>
      </trkpt>
      <trkpt lat="46.94788" lon="-0.83377">
        <ele>143</ele>
        <time>2022-06-02T15:45:04Z</time>
      </trkpt>
      <trkpt lat="46.9479" lon="-0.83342">
        <ele>144</ele>
        <time>2022-06-02T15:45:08Z</time>
      </trkpt>
      <trkpt lat="46.94803" lon="-0.83261">
        <ele>143</ele>
        <time>2022-06-02T15:45:18Z</time>
      </trkpt>
      <trkpt lat="46.94804" lon="-0.83218">
        <ele>142</ele>
        <time>2022-06-02T15:45:24Z</time>
      </trkpt>
      <trkpt lat="46.94797" lon="-0.83179">
        <ele>141</ele>
        <time>2022-06-02T15:45:29Z</time>
      </trkpt>
      <trkpt lat="46.94736" lon="-0.82977">
        <ele>145</ele>
        <time>2022-06-02T15:45:55Z</time>
      </trkpt>
      <trkpt lat="46.9472" lon="-0.82909">
        <ele>144</ele>
        <time>2022-06-02T15:46:04Z</time>
      </trkpt>
      <trkpt lat="46.94718" lon="-0.82875">
        <ele>142</ele>
        <time>2022-06-02T15:46:08Z</time>
      </trkpt>
      <trkpt lat="46.94717" lon="-0.82836">
        <ele>140</ele>
        <time>2022-06-02T15:46:13Z</time>
      </trkpt>
      <trkpt lat="46.94724" lon="-0.82729">
        <ele>137</ele>
        <time>2022-06-02T15:46:26Z</time>
      </trkpt>
      <trkpt lat="46.94753" lon="-0.82542">
        <ele>133</ele>
        <time>2022-06-02T15:46:49Z</time>
      </trkpt>
      <trkpt lat="46.94757" lon="-0.82499">
        <ele>132</ele>
        <time>2022-06-02T15:46:55Z</time>
      </trkpt>
      <trkpt lat="46.94757" lon="-0.82474">
        <ele>132</ele>
        <time>2022-06-02T15:46:58Z</time>
      </trkpt>
      <trkpt lat="46.94756" lon="-0.82437">
        <ele>132</ele>
        <time>2022-06-02T15:47:02Z</time>
      </trkpt>
      <trkpt lat="46.9475" lon="-0.82402">
        <ele>132</ele>
        <time>2022-06-02T15:47:07Z</time>
      </trkpt>
      <trkpt lat="46.94723" lon="-0.8228">
        <ele>131</ele>
        <time>2022-06-02T15:47:22Z</time>
      </trkpt>
      <trkpt lat="46.94715" lon="-0.82227">
        <ele>130</ele>
        <time>2022-06-02T15:47:29Z</time>
      </trkpt>
      <trkpt lat="46.94696" lon="-0.81928">
        <ele>131</ele>
        <time>2022-06-02T15:48:05Z</time>
      </trkpt>
      <trkpt lat="46.9469" lon="-0.81741">
        <ele>137</ele>
        <time>2022-06-02T15:48:28Z</time>
      </trkpt>
      <trkpt lat="46.94687" lon="-0.81711">
        <ele>138</ele>
        <time>2022-06-02T15:48:32Z</time>
      </trkpt>
      <trkpt lat="46.94672" lon="-0.81649">
        <ele>138</ele>
        <time>2022-06-02T15:48:40Z</time>
      </trkpt>
      <trkpt lat="46.94669" lon="-0.81627">
        <ele>138</ele>
        <time>2022-06-02T15:48:42Z</time>
      </trkpt>
      <trkpt lat="46.94671" lon="-0.81604">
        <ele>138</ele>
        <time>2022-06-02T15:48:45Z</time>
      </trkpt>
      <trkpt lat="46.94678" lon="-0.81582">
        <ele>138</ele>
        <time>2022-06-02T15:48:48Z</time>
      </trkpt>
      <trkpt lat="46.94734" lon="-0.81474">
        <ele>137</ele>
        <time>2022-06-02T15:49:05Z</time>
      </trkpt>
      <trkpt lat="46.94753" lon="-0.81447">
        <ele>137</ele>
        <time>2022-06-02T15:49:09Z</time>
      </trkpt>
      <trkpt lat="46.94785" lon="-0.81414">
        <ele>136</ele>
        <time>2022-06-02T15:49:16Z</time>
      </trkpt>
      <trkpt lat="46.94832" lon="-0.81355">
        <ele>134</ele>
        <time>2022-06-02T15:49:27Z</time>
      </trkpt>
      <trkpt lat="46.94841" lon="-0.81335">
        <ele>133</ele>
        <time>2022-06-02T15:49:30Z</time>
      </trkpt>
      <trkpt lat="46.94845" lon="-0.81313">
        <ele>133</ele>
        <time>2022-06-02T15:49:33Z</time>
      </trkpt>
      <trkpt lat="46.94848" lon="-0.81263">
        <ele>131</ele>
        <time>2022-06-02T15:49:39Z</time>
      </trkpt>
      <trkpt lat="46.94857" lon="-0.81222">
        <ele>131</ele>
        <time>2022-06-02T15:49:44Z</time>
      </trkpt>
      <trkpt lat="46.94869" lon="-0.81189">
        <ele>130</ele>
        <time>2022-06-02T15:49:49Z</time>
      </trkpt>
      <trkpt lat="46.94892" lon="-0.81133">
        <ele>128</ele>
        <time>2022-06-02T15:49:57Z</time>
      </trkpt>
      <trkpt lat="46.94905" lon="-0.81079">
        <ele>127</ele>
        <time>2022-06-02T15:50:04Z</time>
      </trkpt>
      <trkpt lat="46.94911" lon="-0.81037">
        <ele>126</ele>
        <time>2022-06-02T15:50:09Z</time>
      </trkpt>
      <trkpt lat="46.94912" lon="-0.80993">
        <ele>125</ele>
        <time>2022-06-02T15:50:14Z</time>
      </trkpt>
      <trkpt lat="46.94909" lon="-0.80963">
        <ele>126</ele>
        <time>2022-06-02T15:50:18Z</time>
      </trkpt>
      <trkpt lat="46.94901" lon="-0.80925">
        <ele>126</ele>
        <time>2022-06-02T15:50:23Z</time>
      </trkpt>
      <trkpt lat="46.94895" lon="-0.80903">
        <ele>127</ele>
        <time>2022-06-02T15:50:26Z</time>
      </trkpt>
      <trkpt lat="46.94859" lon="-0.8081">
        <ele>129</ele>
        <time>2022-06-02T15:50:39Z</time>
      </trkpt>
      <trkpt lat="46.94853" lon="-0.80786">
        <ele>130</ele>
        <time>2022-06-02T15:50:42Z</time>
      </trkpt>
      <trkpt lat="46.94846" lon="-0.80736">
        <ele>132</ele>
        <time>2022-06-02T15:50:48Z</time>
      </trkpt>
      <trkpt lat="46.94828" lon="-0.80558">
        <ele>145</ele>
        <time>2022-06-02T15:51:10Z</time>
      </trkpt>
      <trkpt lat="46.94827" lon="-0.80536">
        <ele>146</ele>
        <time>2022-06-02T15:51:12Z</time>
      </trkpt>
      <trkpt lat="46.9483" lon="-0.80518">
        <ele>148</ele>
        <time>2022-06-02T15:51:15Z</time>
      </trkpt>
      <trkpt lat="46.94834" lon="-0.80504">
        <ele>150</ele>
        <time>2022-06-02T15:51:17Z</time>
      </trkpt>
      <trkpt lat="46.9484" lon="-0.80494">
        <ele>150</ele>
        <time>2022-06-02T15:51:18Z</time>
      </trkpt>
      <trkpt lat="46.94851" lon="-0.80481">
        <ele>151</ele>
        <time>2022-06-02T15:51:21Z</time>
      </trkpt>
      <trkpt lat="46.94891" lon="-0.80446">
        <ele>151</ele>
        <time>2022-06-02T15:51:29Z</time>
      </trkpt>
      <trkpt lat="46.94905" lon="-0.80431">
        <ele>151</ele>
        <time>2022-06-02T15:51:32Z</time>
      </trkpt>
      <trkpt lat="46.94914" lon="-0.80414">
        <ele>151</ele>
        <time>2022-06-02T15:51:35Z</time>
      </trkpt>
      <trkpt lat="46.94921" lon="-0.80371">
        <ele>150</ele>
        <time>2022-06-02T15:51:40Z</time>
      </trkpt>
      <trkpt lat="46.94926" lon="-0.80359">
        <ele>149</ele>
        <time>2022-06-02T15:51:42Z</time>
      </trkpt>
      <trkpt lat="46.94983" lon="-0.80303">
        <ele>144</ele>
        <time>2022-06-02T15:51:54Z</time>
      </trkpt>
      <trkpt lat="46.94996" lon="-0.80281">
        <ele>144</ele>
        <time>2022-06-02T15:51:58Z</time>
      </trkpt>
      <trkpt lat="46.95004" lon="-0.80258">
        <ele>144</ele>
        <time>2022-06-02T15:52:01Z</time>
      </trkpt>
      <trkpt lat="46.95029" lon="-0.80122">
        <ele>146</ele>
        <time>2022-06-02T15:52:18Z</time>
      </trkpt>
      <trkpt lat="46.95038" lon="-0.80099">
        <ele>146</ele>
        <time>2022-06-02T15:52:21Z</time>
      </trkpt>
      <trkpt lat="46.95048" lon="-0.80079">
        <ele>146</ele>
        <time>2022-06-02T15:52:24Z</time>
      </trkpt>
      <trkpt lat="46.95144" lon="-0.79972">
        <ele>151</ele>
        <time>2022-06-02T15:52:45Z</time>
      </trkpt>
      <trkpt lat="46.95223" lon="-0.7987">
        <ele>157</ele>
        <time>2022-06-02T15:53:04Z</time>
      </trkpt>
      <trkpt lat="46.95235" lon="-0.79854">
        <ele>157</ele>
        <time>2022-06-02T15:53:07Z</time>
      </trkpt>
      <trkpt lat="46.95248" lon="-0.79828">
        <ele>158</ele>
        <time>2022-06-02T15:53:11Z</time>
      </trkpt>
      <trkpt lat="46.95263" lon="-0.79786">
        <ele>157</ele>
        <time>2022-06-02T15:53:17Z</time>
      </trkpt>
      <trkpt lat="46.95268" lon="-0.79762">
        <ele>156</ele>
        <time>2022-06-02T15:53:20Z</time>
      </trkpt>
      <trkpt lat="46.95287" lon="-0.79609">
        <ele>149</ele>
        <time>2022-06-02T15:53:39Z</time>
      </trkpt>
      <trkpt lat="46.95306" lon="-0.79528">
        <ele>147</ele>
        <time>2022-06-02T15:53:49Z</time>
      </trkpt>
      <trkpt lat="46.95313" lon="-0.79505">
        <ele>146</ele>
        <time>2022-06-02T15:53:52Z</time>
      </trkpt>
      <trkpt lat="46.95326" lon="-0.79516">
        <ele>146</ele>
        <time>2022-06-02T15:53:55Z</time>
      </trkpt>
      <trkpt lat="46.95359" lon="-0.79524">
        <ele>147</ele>
        <time>2022-06-02T15:54:01Z</time>
      </trkpt>
      <trkpt lat="46.95426" lon="-0.79577">
        <ele>148</ele>
        <time>2022-06-02T15:54:14Z</time>
      </trkpt>
      <trkpt lat="46.95437" lon="-0.79581">
        <ele>148</ele>
        <time>2022-06-02T15:54:16Z</time>
      </trkpt>
      <trkpt lat="46.95496" lon="-0.79567">
        <ele>147</ele>
        <time>2022-06-02T15:54:27Z</time>
      </trkpt>
      <trkpt lat="46.95505" lon="-0.79567">
        <ele>147</ele>
        <time>2022-06-02T15:54:29Z</time>
      </trkpt>
      <trkpt lat="46.95521" lon="-0.79574">
        <ele>146</ele>
        <time>2022-06-02T15:54:32Z</time>
      </trkpt>
      <trkpt lat="46.95549" lon="-0.79593">
        <ele>146</ele>
        <time>2022-06-02T15:54:37Z</time>
      </trkpt>
      <trkpt lat="46.95596" lon="-0.79632">
        <ele>146</ele>
        <time>2022-06-02T15:54:47Z</time>
      </trkpt>
      <trkpt lat="46.95625" lon="-0.79661">
        <ele>147</ele>
        <time>2022-06-02T15:54:53Z</time>
      </trkpt>
      <trkpt lat="46.9565" lon="-0.79691">
        <ele>148</ele>
        <time>2022-06-02T15:54:59Z</time>
      </trkpt>
      <trkpt lat="46.95688" lon="-0.79743">
        <ele>150</ele>
        <time>2022-06-02T15:55:08Z</time>
      </trkpt>
      <trkpt lat="46.957" lon="-0.79752">
        <ele>150</ele>
        <time>2022-06-02T15:55:10Z</time>
      </trkpt>
      <trkpt lat="46.95716" lon="-0.79758">
        <ele>150</ele>
        <time>2022-06-02T15:55:13Z</time>
      </trkpt>
      <trkpt lat="46.95778" lon="-0.79765">
        <ele>149</ele>
        <time>2022-06-02T15:55:24Z</time>
      </trkpt>
      <trkpt lat="46.958" lon="-0.79771">
        <ele>148</ele>
        <time>2022-06-02T15:55:28Z</time>
      </trkpt>
      <trkpt lat="46.95839" lon="-0.79792">
        <ele>147</ele>
        <time>2022-06-02T15:55:36Z</time>
      </trkpt>
      <trkpt lat="46.95873" lon="-0.79817">
        <ele>145</ele>
        <time>2022-06-02T15:55:42Z</time>
      </trkpt>
      <trkpt lat="46.95886" lon="-0.79828">
        <ele>144</ele>
        <time>2022-06-02T15:55:45Z</time>
      </trkpt>
      <trkpt lat="46.95939" lon="-0.79883">
        <ele>142</ele>
        <time>2022-06-02T15:55:57Z</time>
      </trkpt>
      <trkpt lat="46.95972" lon="-0.79907">
        <ele>140</ele>
        <time>2022-06-02T15:56:03Z</time>
      </trkpt>
      <trkpt lat="46.95991" lon="-0.79914">
        <ele>139</ele>
        <time>2022-06-02T15:56:07Z</time>
      </trkpt>
      <trkpt lat="46.96017" lon="-0.7992">
        <ele>138</ele>
        <time>2022-06-02T15:56:11Z</time>
      </trkpt>
      <trkpt lat="46.96048" lon="-0.79923">
        <ele>137</ele>
        <time>2022-06-02T15:56:17Z</time>
      </trkpt>
      <trkpt lat="46.96078" lon="-0.79923">
        <ele>135</ele>
        <time>2022-06-02T15:56:22Z</time>
      </trkpt>
      <trkpt lat="46.96103" lon="-0.7992">
        <ele>134</ele>
        <time>2022-06-02T15:56:27Z</time>
      </trkpt>
      <trkpt lat="46.96125" lon="-0.79915">
        <ele>133</ele>
        <time>2022-06-02T15:56:31Z</time>
      </trkpt>
      <trkpt lat="46.96203" lon="-0.79889">
        <ele>130</ele>
        <time>2022-06-02T15:56:45Z</time>
      </trkpt>
      <trkpt lat="46.96222" lon="-0.79886">
        <ele>130</ele>
        <time>2022-06-02T15:56:48Z</time>
      </trkpt>
      <trkpt lat="46.96257" lon="-0.79886">
        <ele>129</ele>
        <time>2022-06-02T15:56:55Z</time>
      </trkpt>
      <trkpt lat="46.96273" lon="-0.7989">
        <ele>128</ele>
        <time>2022-06-02T15:56:57Z</time>
      </trkpt>
      <trkpt lat="46.963" lon="-0.79906">
        <ele>127</ele>
        <time>2022-06-02T15:57:03Z</time>
      </trkpt>
      <trkpt lat="46.96313" lon="-0.79918">
        <ele>126</ele>
        <time>2022-06-02T15:57:05Z</time>
      </trkpt>
      <trkpt lat="46.9635" lon="-0.79972">
        <ele>126</ele>
        <time>2022-06-02T15:57:15Z</time>
      </trkpt>
      <trkpt lat="46.96361" lon="-0.79985">
        <ele>126</ele>
        <time>2022-06-02T15:57:17Z</time>
      </trkpt>
      <trkpt lat="46.96377" lon="-0.79996">
        <ele>125</ele>
        <time>2022-06-02T15:57:20Z</time>
      </trkpt>
      <trkpt lat="46.96386" lon="-0.79999">
        <ele>125</ele>
        <time>2022-06-02T15:57:22Z</time>
      </trkpt>
      <trkpt lat="46.96393" lon="-0.79998">
        <ele>125</ele>
        <time>2022-06-02T15:57:23Z</time>
      </trkpt>
      <trkpt lat="46.96401" lon="-0.79996">
        <ele>125</ele>
        <time>2022-06-02T15:57:25Z</time>
      </trkpt>
      <trkpt lat="46.96412" lon="-0.79984">
        <ele>124</ele>
        <time>2022-06-02T15:57:27Z</time>
      </trkpt>
      <trkpt lat="46.96424" lon="-0.79967">
        <ele>125</ele>
        <time>2022-06-02T15:57:30Z</time>
      </trkpt>
      <trkpt lat="46.96437" lon="-0.79961">
        <ele>126</ele>
        <time>2022-06-02T15:57:32Z</time>
      </trkpt>
      <trkpt lat="46.96444" lon="-0.79961">
        <ele>127</ele>
        <time>2022-06-02T15:57:34Z</time>
      </trkpt>
      <trkpt lat="46.96461" lon="-0.79974">
        <ele>128</ele>
        <time>2022-06-02T15:57:37Z</time>
      </trkpt>
      <trkpt lat="46.96491" lon="-0.80007">
        <ele>129</ele>
        <time>2022-06-02T15:57:44Z</time>
      </trkpt>
      <trkpt lat="46.96507" lon="-0.80019">
        <ele>130</ele>
        <time>2022-06-02T15:57:47Z</time>
      </trkpt>
      <trkpt lat="46.96516" lon="-0.80023">
        <ele>131</ele>
        <time>2022-06-02T15:57:49Z</time>
      </trkpt>
      <trkpt lat="46.96603" lon="-0.80042">
        <ele>136</ele>
        <time>2022-06-02T15:58:04Z</time>
      </trkpt>
      <trkpt lat="46.96668" lon="-0.80052">
        <ele>138</ele>
        <time>2022-06-02T15:58:16Z</time>
      </trkpt>
      <trkpt lat="46.96723" lon="-0.80056">
        <ele>140</ele>
        <time>2022-06-02T15:58:26Z</time>
      </trkpt>
      <trkpt lat="46.96854" lon="-0.80054">
        <ele>142</ele>
        <time>2022-06-02T15:58:49Z</time>
      </trkpt>
      <trkpt lat="46.96891" lon="-0.80061">
        <ele>141</ele>
        <time>2022-06-02T15:58:56Z</time>
      </trkpt>
      <trkpt lat="46.96909" lon="-0.8007">
        <ele>141</ele>
        <time>2022-06-02T15:58:59Z</time>
      </trkpt>
      <trkpt lat="46.96924" lon="-0.80082">
        <ele>140</ele>
        <time>2022-06-02T15:59:02Z</time>
      </trkpt>
      <trkpt lat="46.9694" lon="-0.80098">
        <ele>140</ele>
        <time>2022-06-02T15:59:06Z</time>
      </trkpt>
      <trkpt lat="46.96953" lon="-0.80115">
        <ele>140</ele>
        <time>2022-06-02T15:59:09Z</time>
      </trkpt>
      <trkpt lat="46.96967" lon="-0.80139">
        <ele>140</ele>
        <time>2022-06-02T15:59:13Z</time>
      </trkpt>
      <trkpt lat="46.97018" lon="-0.80237">
        <ele>142</ele>
        <time>2022-06-02T15:59:27Z</time>
      </trkpt>
      <trkpt lat="46.97033" lon="-0.8026">
        <ele>142</ele>
        <time>2022-06-02T15:59:31Z</time>
      </trkpt>
      <trkpt lat="46.97052" lon="-0.80282">
        <ele>142</ele>
        <time>2022-06-02T15:59:36Z</time>
      </trkpt>
      <trkpt lat="46.97078" lon="-0.80303">
        <ele>143</ele>
        <time>2022-06-02T15:59:41Z</time>
      </trkpt>
      <trkpt lat="46.9715" lon="-0.80355">
        <ele>146</ele>
        <time>2022-06-02T15:59:55Z</time>
      </trkpt>
      <trkpt lat="46.97243" lon="-0.80451">
        <ele>150</ele>
        <time>2022-06-02T16:00:15Z</time>
      </trkpt>
      <trkpt lat="46.973" lon="-0.80519">
        <ele>151</ele>
        <time>2022-06-02T16:00:29Z</time>
      </trkpt>
      <trkpt lat="46.97404" lon="-0.80626">
        <ele>152</ele>
        <time>2022-06-02T16:00:51Z</time>
      </trkpt>
      <trkpt lat="46.9748" lon="-0.80715">
        <ele>153</ele>
        <time>2022-06-02T16:01:08Z</time>
      </trkpt>
      <trkpt lat="46.97569" lon="-0.8083">
        <ele>152</ele>
        <time>2022-06-02T16:01:30Z</time>
      </trkpt>
      <trkpt lat="46.97641" lon="-0.80936">
        <ele>154</ele>
        <time>2022-06-02T16:01:48Z</time>
      </trkpt>
      <trkpt lat="46.97665" lon="-0.80979">
        <ele>155</ele>
        <time>2022-06-02T16:01:54Z</time>
      </trkpt>
      <trkpt lat="46.97685" lon="-0.81023">
        <ele>157</ele>
        <time>2022-06-02T16:02:01Z</time>
      </trkpt>
      <trkpt lat="46.97706" lon="-0.81053">
        <ele>159</ele>
        <time>2022-06-02T16:02:06Z</time>
      </trkpt>
      <trkpt lat="46.97731" lon="-0.81075">
        <ele>160</ele>
        <time>2022-06-02T16:02:11Z</time>
      </trkpt>
      <trkpt lat="46.97787" lon="-0.81112">
        <ele>164</ele>
        <time>2022-06-02T16:02:22Z</time>
      </trkpt>
      <trkpt lat="46.9781" lon="-0.81132">
        <ele>166</ele>
        <time>2022-06-02T16:02:27Z</time>
      </trkpt>
      <trkpt lat="46.97849" lon="-0.81174">
        <ele>168</ele>
        <time>2022-06-02T16:02:36Z</time>
      </trkpt>
      <trkpt lat="46.97891" lon="-0.81228">
        <ele>167</ele>
        <time>2022-06-02T16:02:46Z</time>
      </trkpt>
      <trkpt lat="46.97913" lon="-0.81262">
        <ele>166</ele>
        <time>2022-06-02T16:02:51Z</time>
      </trkpt>
      <trkpt lat="46.97954" lon="-0.81338">
        <ele>165</ele>
        <time>2022-06-02T16:03:03Z</time>
      </trkpt>
      <trkpt lat="46.97962" lon="-0.81356">
        <ele>165</ele>
        <time>2022-06-02T16:03:06Z</time>
      </trkpt>
      <trkpt lat="46.9801" lon="-0.81541">
        <ele>169</ele>
        <time>2022-06-02T16:03:30Z</time>
      </trkpt>
      <trkpt lat="46.98018" lon="-0.81564">
        <ele>169</ele>
        <time>2022-06-02T16:03:33Z</time>
      </trkpt>
      <trkpt lat="46.98029" lon="-0.81576">
        <ele>170</ele>
        <time>2022-06-02T16:03:35Z</time>
      </trkpt>
      <trkpt lat="46.98043" lon="-0.81588">
        <ele>170</ele>
        <time>2022-06-02T16:03:38Z</time>
      </trkpt>
      <trkpt lat="46.98152" lon="-0.81649">
        <ele>173</ele>
        <time>2022-06-02T16:03:59Z</time>
      </trkpt>
      <trkpt lat="46.98168" lon="-0.81662">
        <ele>173</ele>
        <time>2022-06-02T16:04:02Z</time>
      </trkpt>
      <trkpt lat="46.98181" lon="-0.81674">
        <ele>173</ele>
        <time>2022-06-02T16:04:05Z</time>
      </trkpt>
      <trkpt lat="46.98241" lon="-0.81767">
        <ele>171</ele>
        <time>2022-06-02T16:04:20Z</time>
      </trkpt>
      <trkpt lat="46.98265" lon="-0.81815">
        <ele>170</ele>
        <time>2022-06-02T16:04:28Z</time>
      </trkpt>
      <trkpt lat="46.98325" lon="-0.81948">
        <ele>165</ele>
        <time>2022-06-02T16:04:47Z</time>
      </trkpt>
      <trkpt lat="46.9834" lon="-0.81984">
        <ele>163</ele>
        <time>2022-06-02T16:04:52Z</time>
      </trkpt>
      <trkpt lat="46.98366" lon="-0.82054">
        <ele>159</ele>
        <time>2022-06-02T16:05:02Z</time>
      </trkpt>
      <trkpt lat="46.98486" lon="-0.82336">
        <ele>149</ele>
        <time>2022-06-02T16:05:42Z</time>
      </trkpt>
      <trkpt lat="46.98504" lon="-0.82363">
        <ele>148</ele>
        <time>2022-06-02T16:05:47Z</time>
      </trkpt>
      <trkpt lat="46.98524" lon="-0.82388">
        <ele>147</ele>
        <time>2022-06-02T16:05:51Z</time>
      </trkpt>
      <trkpt lat="46.98544" lon="-0.82409">
        <ele>146</ele>
        <time>2022-06-02T16:05:56Z</time>
      </trkpt>
      <trkpt lat="46.98649" lon="-0.82485">
        <ele>144</ele>
        <time>2022-06-02T16:06:17Z</time>
      </trkpt>
      <trkpt lat="46.98661" lon="-0.82497">
        <ele>145</ele>
        <time>2022-06-02T16:06:19Z</time>
      </trkpt>
      <trkpt lat="46.98712" lon="-0.82557">
        <ele>147</ele>
        <time>2022-06-02T16:06:31Z</time>
      </trkpt>
      <trkpt lat="46.98733" lon="-0.82579">
        <ele>148</ele>
        <time>2022-06-02T16:06:35Z</time>
      </trkpt>
      <trkpt lat="46.98795" lon="-0.82629">
        <ele>148</ele>
        <time>2022-06-02T16:06:48Z</time>
      </trkpt>
      <trkpt lat="46.98848" lon="-0.82675">
        <ele>145</ele>
        <time>2022-06-02T16:06:59Z</time>
      </trkpt>
      <trkpt lat="46.98865" lon="-0.82697">
        <ele>145</ele>
        <time>2022-06-02T16:07:03Z</time>
      </trkpt>
      <trkpt lat="46.98901" lon="-0.82754">
        <ele>146</ele>
        <time>2022-06-02T16:07:12Z</time>
      </trkpt>
      <trkpt lat="46.98911" lon="-0.82777">
        <ele>146</ele>
        <time>2022-06-02T16:07:16Z</time>
      </trkpt>
      <trkpt lat="46.9893" lon="-0.82839">
        <ele>148</ele>
        <time>2022-06-02T16:07:24Z</time>
      </trkpt>
      <trkpt lat="46.98945" lon="-0.82869">
        <ele>149</ele>
        <time>2022-06-02T16:07:28Z</time>
      </trkpt>
      <trkpt lat="46.99016" lon="-0.82969">
        <ele>151</ele>
        <time>2022-06-02T16:07:46Z</time>
      </trkpt>
      <trkpt lat="46.99047" lon="-0.8301">
        <ele>151</ele>
        <time>2022-06-02T16:07:53Z</time>
      </trkpt>
      <trkpt lat="46.99078" lon="-0.83038">
        <ele>151</ele>
        <time>2022-06-02T16:08:00Z</time>
      </trkpt>
      <trkpt lat="46.99109" lon="-0.83064">
        <ele>151</ele>
        <time>2022-06-02T16:08:06Z</time>
      </trkpt>
      <trkpt lat="46.99187" lon="-0.83143">
        <ele>152</ele>
        <time>2022-06-02T16:08:23Z</time>
      </trkpt>
      <trkpt lat="46.99199" lon="-0.8316">
        <ele>152</ele>
        <time>2022-06-02T16:08:26Z</time>
      </trkpt>
      <trkpt lat="46.99209" lon="-0.83183">
        <ele>153</ele>
        <time>2022-06-02T16:08:29Z</time>
      </trkpt>
      <trkpt lat="46.99244" lon="-0.83299">
        <ele>153</ele>
        <time>2022-06-02T16:08:45Z</time>
      </trkpt>
      <trkpt lat="46.99252" lon="-0.83321">
        <ele>152</ele>
        <time>2022-06-02T16:08:48Z</time>
      </trkpt>
      <trkpt lat="46.99264" lon="-0.83339">
        <ele>151</ele>
        <time>2022-06-02T16:08:51Z</time>
      </trkpt>
      <trkpt lat="46.99467" lon="-0.83624">
        <ele>143</ele>
        <time>2022-06-02T16:09:41Z</time>
      </trkpt>
      <trkpt lat="46.99476" lon="-0.83647">
        <ele>144</ele>
        <time>2022-06-02T16:09:44Z</time>
      </trkpt>
      <trkpt lat="46.99482" lon="-0.83673">
        <ele>145</ele>
        <time>2022-06-02T16:09:47Z</time>
      </trkpt>
      <trkpt lat="46.99509" lon="-0.83863">
        <ele>150</ele>
        <time>2022-06-02T16:10:11Z</time>
      </trkpt>
      <trkpt lat="46.99521" lon="-0.83916">
        <ele>151</ele>
        <time>2022-06-02T16:10:18Z</time>
      </trkpt>
      <trkpt lat="46.99534" lon="-0.83968">
        <ele>152</ele>
        <time>2022-06-02T16:10:24Z</time>
      </trkpt>
      <trkpt lat="46.9955" lon="-0.84012">
        <ele>152</ele>
        <time>2022-06-02T16:10:31Z</time>
      </trkpt>
      <trkpt lat="46.99602" lon="-0.84125">
        <ele>147</ele>
        <time>2022-06-02T16:10:47Z</time>
      </trkpt>
      <trkpt lat="46.99637" lon="-0.84184">
        <ele>144</ele>
        <time>2022-06-02T16:10:57Z</time>
      </trkpt>
      <trkpt lat="46.99694" lon="-0.84252">
        <ele>140</ele>
        <time>2022-06-02T16:11:10Z</time>
      </trkpt>
      <trkpt lat="46.99872" lon="-0.84479">
        <ele>132</ele>
        <time>2022-06-02T16:11:52Z</time>
      </trkpt>
      <trkpt lat="46.99924" lon="-0.84541">
        <ele>130</ele>
        <time>2022-06-02T16:12:04Z</time>
      </trkpt>
      <trkpt lat="47.00064" lon="-0.84678">
        <ele>122</ele>
        <time>2022-06-02T16:12:33Z</time>
      </trkpt>
      <trkpt lat="47.00138" lon="-0.84774">
        <ele>119</ele>
        <time>2022-06-02T16:12:51Z</time>
      </trkpt>
      <trkpt lat="47.0018" lon="-0.84821">
        <ele>118</ele>
        <time>2022-06-02T16:13:00Z</time>
      </trkpt>
      <trkpt lat="47.00187" lon="-0.84815">
        <ele>118</ele>
        <time>2022-06-02T16:13:02Z</time>
      </trkpt>
      <trkpt lat="47.00191" lon="-0.84814">
        <ele>118</ele>
        <time>2022-06-02T16:13:03Z</time>
      </trkpt>
      <trkpt lat="47.00198" lon="-0.84817">
        <ele>118</ele>
        <time>2022-06-02T16:13:04Z</time>
      </trkpt>
      <trkpt lat="47.00204" lon="-0.84826">
        <ele>118</ele>
        <time>2022-06-02T16:13:05Z</time>
      </trkpt>
      <trkpt lat="47.00206" lon="-0.84833">
        <ele>118</ele>
        <time>2022-06-02T16:13:06Z</time>
      </trkpt>
      <trkpt lat="47.00204" lon="-0.84846">
        <ele>118</ele>
        <time>2022-06-02T16:13:08Z</time>
      </trkpt>
      <trkpt lat="47.0028" lon="-0.84899">
        <ele>116</ele>
        <time>2022-06-02T16:13:23Z</time>
      </trkpt>
      <trkpt lat="47.00305" lon="-0.8491">
        <ele>116</ele>
        <time>2022-06-02T16:13:28Z</time>
      </trkpt>
      <trkpt lat="47.00322" lon="-0.84925">
        <ele>115</ele>
        <time>2022-06-02T16:13:31Z</time>
      </trkpt>
      <trkpt lat="47.00346" lon="-0.84948">
        <ele>116</ele>
        <time>2022-06-02T16:13:36Z</time>
      </trkpt>
      <trkpt lat="47.0045" lon="-0.85061">
        <ele>121</ele>
        <time>2022-06-02T16:13:59Z</time>
      </trkpt>
      <trkpt lat="47.00461" lon="-0.85084">
        <ele>122</ele>
        <time>2022-06-02T16:14:03Z</time>
      </trkpt>
      <trkpt lat="47.00466" lon="-0.85118">
        <ele>123</ele>
        <time>2022-06-02T16:14:07Z</time>
      </trkpt>
      <trkpt lat="47.00474" lon="-0.85152">
        <ele>123</ele>
        <time>2022-06-02T16:14:11Z</time>
      </trkpt>
      <trkpt lat="47.00482" lon="-0.8517">
        <ele>124</ele>
        <time>2022-06-02T16:14:14Z</time>
      </trkpt>
      <trkpt lat="47.00488" lon="-0.8518">
        <ele>124</ele>
        <time>2022-06-02T16:14:15Z</time>
      </trkpt>
      <trkpt lat="47.00499" lon="-0.85191">
        <ele>125</ele>
        <time>2022-06-02T16:14:18Z</time>
      </trkpt>
      <trkpt lat="47.0049" lon="-0.85222">
        <ele>125</ele>
        <time>2022-06-02T16:14:22Z</time>
      </trkpt>
      <trkpt lat="47.00487" lon="-0.85239">
        <ele>126</ele>
        <time>2022-06-02T16:14:24Z</time>
      </trkpt>
      <trkpt lat="47.00488" lon="-0.85246">
        <ele>126</ele>
        <time>2022-06-02T16:14:25Z</time>
      </trkpt>
      <trkpt lat="47.00481" lon="-0.85314">
        <ele>128</ele>
        <time>2022-06-02T16:14:33Z</time>
      </trkpt>
      <trkpt lat="47.00467" lon="-0.85406">
        <ele>130</ele>
        <time>2022-06-02T16:14:45Z</time>
      </trkpt>
      <trkpt lat="47.00464" lon="-0.85429">
        <ele>131</ele>
        <time>2022-06-02T16:14:48Z</time>
      </trkpt>
      <trkpt lat="47.00461" lon="-0.85472">
        <ele>131</ele>
        <time>2022-06-02T16:14:53Z</time>
      </trkpt>
      <trkpt lat="47.0046" lon="-0.85528">
        <ele>131</ele>
        <time>2022-06-02T16:15:00Z</time>
      </trkpt>
      <trkpt lat="47.00456" lon="-0.85549">
        <ele>131</ele>
        <time>2022-06-02T16:15:02Z</time>
      </trkpt>
      <trkpt lat="47.00454" lon="-0.85554">
        <ele>131</ele>
        <time>2022-06-02T16:15:03Z</time>
      </trkpt>
      <trkpt lat="47.00457" lon="-0.85557">
        <ele>131</ele>
        <time>2022-06-02T16:15:04Z</time>
      </trkpt>
      <trkpt lat="47.00458" lon="-0.85563">
        <ele>131</ele>
        <time>2022-06-02T16:15:04Z</time>
      </trkpt>
      <trkpt lat="47.00457" lon="-0.85568">
        <ele>131</ele>
        <time>2022-06-02T16:15:05Z</time>
      </trkpt>
      <trkpt lat="47.00454" lon="-0.85571">
        <ele>131</ele>
        <time>2022-06-02T16:15:06Z</time>
      </trkpt>
      <trkpt lat="47.00455" lon="-0.85575">
        <ele>131</ele>
        <time>2022-06-02T16:15:06Z</time>
      </trkpt>
      <trkpt lat="47.00457" lon="-0.85601">
        <ele>132</ele>
        <time>2022-06-02T16:15:09Z</time>
      </trkpt>
      <trkpt lat="47.00456" lon="-0.85625">
        <ele>132</ele>
        <time>2022-06-02T16:15:12Z</time>
      </trkpt>
      <trkpt lat="47.00449" lon="-0.85663">
        <ele>132</ele>
        <time>2022-06-02T16:15:17Z</time>
      </trkpt>
      <trkpt lat="47.00423" lon="-0.85775">
        <ele>132</ele>
        <time>2022-06-02T16:15:31Z</time>
      </trkpt>
      <trkpt lat="47.00421" lon="-0.85878">
        <ele>134</ele>
        <time>2022-06-02T16:15:44Z</time>
      </trkpt>
      <trkpt lat="47.0041" lon="-0.86003">
        <ele>136</ele>
        <time>2022-06-02T16:15:59Z</time>
      </trkpt>
      <trkpt lat="47.0041" lon="-0.86259">
        <ele>137</ele>
        <time>2022-06-02T16:16:30Z</time>
      </trkpt>
      <trkpt lat="47.00413" lon="-0.86382">
        <ele>139</ele>
        <time>2022-06-02T16:16:45Z</time>
      </trkpt>
      <trkpt lat="47.00409" lon="-0.86478">
        <ele>141</ele>
        <time>2022-06-02T16:16:57Z</time>
      </trkpt>
      <trkpt lat="47.00401" lon="-0.86549">
        <ele>141</ele>
        <time>2022-06-02T16:17:06Z</time>
      </trkpt>
      <trkpt lat="47.0039" lon="-0.86616">
        <ele>142</ele>
        <time>2022-06-02T16:17:14Z</time>
      </trkpt>
      <trkpt lat="47.00372" lon="-0.86686">
        <ele>143</ele>
        <time>2022-06-02T16:17:23Z</time>
      </trkpt>
      <trkpt lat="47.00348" lon="-0.86761">
        <ele>144</ele>
        <time>2022-06-02T16:17:33Z</time>
      </trkpt>
      <trkpt lat="47.00311" lon="-0.86847">
        <ele>143</ele>
        <time>2022-06-02T16:17:45Z</time>
      </trkpt>
      <trkpt lat="47.00291" lon="-0.86885">
        <ele>143</ele>
        <time>2022-06-02T16:17:51Z</time>
      </trkpt>
      <trkpt lat="47.00167" lon="-0.87092">
        <ele>143</ele>
        <time>2022-06-02T16:18:25Z</time>
      </trkpt>
      <trkpt lat="47.00132" lon="-0.87168">
        <ele>144</ele>
        <time>2022-06-02T16:18:36Z</time>
      </trkpt>
      <trkpt lat="47.00081" lon="-0.87302">
        <ele>145</ele>
        <time>2022-06-02T16:18:54Z</time>
      </trkpt>
      <trkpt lat="47.00007" lon="-0.87538">
        <ele>147</ele>
        <time>2022-06-02T16:19:26Z</time>
      </trkpt>
      <trkpt lat="46.9997" lon="-0.87661">
        <ele>147</ele>
        <time>2022-06-02T16:19:42Z</time>
      </trkpt>
      <trkpt lat="46.99955" lon="-0.87706">
        <ele>148</ele>
        <time>2022-06-02T16:19:48Z</time>
      </trkpt>
      <trkpt lat="46.99938" lon="-0.8775">
        <ele>148</ele>
        <time>2022-06-02T16:19:54Z</time>
      </trkpt>
      <trkpt lat="46.99909" lon="-0.8782">
        <ele>148</ele>
        <time>2022-06-02T16:20:04Z</time>
      </trkpt>
      <trkpt lat="46.99897" lon="-0.87842">
        <ele>149</ele>
        <time>2022-06-02T16:20:08Z</time>
      </trkpt>
      <trkpt lat="46.99883" lon="-0.87861">
        <ele>150</ele>
        <time>2022-06-02T16:20:11Z</time>
      </trkpt>
      <trkpt lat="46.9979" lon="-0.87974">
        <ele>157</ele>
        <time>2022-06-02T16:20:33Z</time>
      </trkpt>
      <trkpt lat="46.99779" lon="-0.87991">
        <ele>158</ele>
        <time>2022-06-02T16:20:36Z</time>
      </trkpt>
      <trkpt lat="46.99769" lon="-0.88006">
        <ele>158</ele>
        <time>2022-06-02T16:20:38Z</time>
      </trkpt>
      <trkpt lat="46.99708" lon="-0.88126">
        <ele>163</ele>
        <time>2022-06-02T16:20:56Z</time>
      </trkpt>
      <trkpt lat="46.99671" lon="-0.88177">
        <ele>164</ele>
        <time>2022-06-02T16:21:05Z</time>
      </trkpt>
      <trkpt lat="46.99666" lon="-0.88189">
        <ele>164</ele>
        <time>2022-06-02T16:21:07Z</time>
      </trkpt>
      <trkpt lat="46.99666" lon="-0.88196">
        <ele>164</ele>
        <time>2022-06-02T16:21:08Z</time>
      </trkpt>
      <trkpt lat="46.9967" lon="-0.88215">
        <ele>163</ele>
        <time>2022-06-02T16:21:10Z</time>
      </trkpt>
      <trkpt lat="46.99728" lon="-0.88369">
        <ele>165</ele>
        <time>2022-06-02T16:21:32Z</time>
      </trkpt>
      <trkpt lat="46.9975" lon="-0.8841">
        <ele>167</ele>
        <time>2022-06-02T16:21:38Z</time>
      </trkpt>
      <trkpt lat="46.99755" lon="-0.8843">
        <ele>167</ele>
        <time>2022-06-02T16:21:40Z</time>
      </trkpt>
      <trkpt lat="46.99757" lon="-0.88448">
        <ele>167</ele>
        <time>2022-06-02T16:21:43Z</time>
      </trkpt>
      <trkpt lat="46.99747" lon="-0.88614">
        <ele>164</ele>
        <time>2022-06-02T16:22:03Z</time>
      </trkpt>
      <trkpt lat="46.99737" lon="-0.88694">
        <ele>160</ele>
        <time>2022-06-02T16:22:13Z</time>
      </trkpt>
      <trkpt lat="46.99726" lon="-0.88855">
        <ele>149</ele>
        <time>2022-06-02T16:22:32Z</time>
      </trkpt>
      <trkpt lat="46.99722" lon="-0.88883">
        <ele>148</ele>
        <time>2022-06-02T16:22:36Z</time>
      </trkpt>
      <trkpt lat="46.99714" lon="-0.88915">
        <ele>146</ele>
        <time>2022-06-02T16:22:40Z</time>
      </trkpt>
      <trkpt lat="46.99694" lon="-0.88977">
        <ele>144</ele>
        <time>2022-06-02T16:22:48Z</time>
      </trkpt>
      <trkpt lat="46.9969" lon="-0.89001">
        <ele>144</ele>
        <time>2022-06-02T16:22:51Z</time>
      </trkpt>
      <trkpt lat="46.99687" lon="-0.891">
        <ele>140</ele>
        <time>2022-06-02T16:23:03Z</time>
      </trkpt>
      <trkpt lat="46.99714" lon="-0.89181">
        <ele>141</ele>
        <time>2022-06-02T16:23:14Z</time>
      </trkpt>
      <trkpt lat="46.99724" lon="-0.89218">
        <ele>141</ele>
        <time>2022-06-02T16:23:19Z</time>
      </trkpt>
      <trkpt lat="46.99727" lon="-0.89218">
        <ele>141</ele>
        <time>2022-06-02T16:23:20Z</time>
      </trkpt>
      <trkpt lat="46.99733" lon="-0.89221">
        <ele>141</ele>
        <time>2022-06-02T16:23:21Z</time>
      </trkpt>
      <trkpt lat="46.99737" lon="-0.89228">
        <ele>141</ele>
        <time>2022-06-02T16:23:22Z</time>
      </trkpt>
      <trkpt lat="46.99749" lon="-0.89224">
        <ele>142</ele>
        <time>2022-06-02T16:23:24Z</time>
      </trkpt>
      <trkpt lat="46.99796" lon="-0.89189">
        <ele>144</ele>
        <time>2022-06-02T16:23:33Z</time>
      </trkpt>
      <trkpt lat="46.99844" lon="-0.8916">
        <ele>144</ele>
        <time>2022-06-02T16:23:43Z</time>
      </trkpt>
      <trkpt lat="46.99875" lon="-0.89146">
        <ele>145</ele>
        <time>2022-06-02T16:23:49Z</time>
      </trkpt>
      <trkpt lat="46.99924" lon="-0.89129">
        <ele>146</ele>
        <time>2022-06-02T16:23:57Z</time>
      </trkpt>
      <trkpt lat="46.99972" lon="-0.89119">
        <ele>145</ele>
        <time>2022-06-02T16:24:06Z</time>
      </trkpt>
      <trkpt lat="47.0016" lon="-0.89091">
        <ele>144</ele>
        <time>2022-06-02T16:24:40Z</time>
      </trkpt>
      <trkpt lat="47.00174" lon="-0.89091">
        <ele>144</ele>
        <time>2022-06-02T16:24:42Z</time>
      </trkpt>
      <trkpt lat="47.00194" lon="-0.89096">
        <ele>144</ele>
        <time>2022-06-02T16:24:46Z</time>
      </trkpt>
      <trkpt lat="47.00207" lon="-0.89104">
        <ele>144</ele>
        <time>2022-06-02T16:24:48Z</time>
      </trkpt>
      <trkpt lat="47.00212" lon="-0.89094">
        <ele>144</ele>
        <time>2022-06-02T16:24:50Z</time>
      </trkpt>
      <trkpt lat="47.00219" lon="-0.89086">
        <ele>143</ele>
        <time>2022-06-02T16:24:51Z</time>
      </trkpt>
      <trkpt lat="47.00227" lon="-0.89082">
        <ele>143</ele>
        <time>2022-06-02T16:24:53Z</time>
      </trkpt>
      <trkpt lat="47.00235" lon="-0.89082">
        <ele>143</ele>
        <time>2022-06-02T16:24:54Z</time>
      </trkpt>
      <trkpt lat="47.00243" lon="-0.89086">
        <ele>143</ele>
        <time>2022-06-02T16:24:56Z</time>
      </trkpt>
      <trkpt lat="47.00249" lon="-0.89092">
        <ele>143</ele>
        <time>2022-06-02T16:24:57Z</time>
      </trkpt>
      <trkpt lat="47.00254" lon="-0.891">
        <ele>143</ele>
        <time>2022-06-02T16:24:58Z</time>
      </trkpt>
      <trkpt lat="47.00257" lon="-0.89109">
        <ele>143</ele>
        <time>2022-06-02T16:25:00Z</time>
      </trkpt>
      <trkpt lat="47.00258" lon="-0.8912">
        <ele>143</ele>
        <time>2022-06-02T16:25:01Z</time>
      </trkpt>
      <trkpt lat="47.00256" lon="-0.89132">
        <ele>143</ele>
        <time>2022-06-02T16:25:03Z</time>
      </trkpt>
      <trkpt lat="47.00253" lon="-0.89142">
        <ele>144</ele>
        <time>2022-06-02T16:25:04Z</time>
      </trkpt>
      <trkpt lat="47.00247" lon="-0.89151">
        <ele>144</ele>
        <time>2022-06-02T16:25:05Z</time>
      </trkpt>
      <trkpt lat="47.0024" lon="-0.89157">
        <ele>144</ele>
        <time>2022-06-02T16:25:07Z</time>
      </trkpt>
      <trkpt lat="47.00232" lon="-0.89159">
        <ele>144</ele>
        <time>2022-06-02T16:25:08Z</time>
      </trkpt>
      <trkpt lat="47.00223" lon="-0.89157">
        <ele>144</ele>
        <time>2022-06-02T16:25:10Z</time>
      </trkpt>
      <trkpt lat="47.00216" lon="-0.89152">
        <ele>145</ele>
        <time>2022-06-02T16:25:11Z</time>
      </trkpt>
      <trkpt lat="47.0021" lon="-0.89143">
        <ele>145</ele>
        <time>2022-06-02T16:25:13Z</time>
      </trkpt>
      <trkpt lat="47.00167" lon="-0.89186">
        <ele>146</ele>
        <time>2022-06-02T16:25:22Z</time>
      </trkpt>
      <trkpt lat="47.00169" lon="-0.89194">
        <ele>146</ele>
        <time>2022-06-02T16:25:23Z</time>
      </trkpt>
      <trkpt lat="47.00168" lon="-0.89198">
        <ele>146</ele>
        <time>2022-06-02T16:25:24Z</time>
      </trkpt>
      <trkpt lat="47.00164" lon="-0.89204">
        <ele>146</ele>
        <time>2022-06-02T16:25:25Z</time>
      </trkpt>
      <trkpt lat="47.00176" lon="-0.89239">
        <ele>146</ele>
        <time>2022-06-02T16:25:29Z</time>
      </trkpt>
      <trkpt lat="47.00189" lon="-0.89292">
        <ele>145</ele>
        <time>2022-06-02T16:25:36Z</time>
      </trkpt>
      <trkpt lat="47.00197" lon="-0.89337">
        <ele>145</ele>
        <time>2022-06-02T16:25:42Z</time>
      </trkpt>
      <trkpt lat="47.00208" lon="-0.8942">
        <ele>145</ele>
        <time>2022-06-02T16:25:52Z</time>
      </trkpt>
      <trkpt lat="47.00212" lon="-0.89422">
        <ele>144</ele>
        <time>2022-06-02T16:25:53Z</time>
      </trkpt>
      <trkpt lat="47.00213" lon="-0.89425">
        <ele>144</ele>
        <time>2022-06-02T16:25:53Z</time>
      </trkpt>
      <trkpt lat="47.00211" lon="-0.8943">
        <ele>144</ele>
        <time>2022-06-02T16:25:54Z</time>
      </trkpt>
      <trkpt lat="47.00209" lon="-0.89432">
        <ele>144</ele>
        <time>2022-06-02T16:25:54Z</time>
      </trkpt>
      <trkpt lat="47.00209" lon="-0.89443">
        <ele>144</ele>
        <time>2022-06-02T16:25:56Z</time>
      </trkpt>
      <trkpt lat="47.00211" lon="-0.89458">
        <ele>144</ele>
        <time>2022-06-02T16:25:58Z</time>
      </trkpt>
      <trkpt lat="47.00227" lon="-0.89534">
        <ele>144</ele>
        <time>2022-06-02T16:26:07Z</time>
      </trkpt>
      <trkpt lat="47.00235" lon="-0.89613">
        <ele>143</ele>
        <time>2022-06-02T16:26:17Z</time>
      </trkpt>
      <trkpt lat="47.00256" lon="-0.89705">
        <ele>140</ele>
        <time>2022-06-02T16:26:29Z</time>
      </trkpt>
      <trkpt lat="47.00263" lon="-0.89727">
        <ele>139</ele>
        <time>2022-06-02T16:26:32Z</time>
      </trkpt>
      <trkpt lat="47.0029" lon="-0.89794">
        <ele>136</ele>
        <time>2022-06-02T16:26:41Z</time>
      </trkpt>
      <trkpt lat="47.003" lon="-0.89837">
        <ele>135</ele>
        <time>2022-06-02T16:26:47Z</time>
      </trkpt>
      <trkpt lat="47.00312" lon="-0.89879">
        <ele>135</ele>
        <time>2022-06-02T16:26:52Z</time>
      </trkpt>
      <trkpt lat="47.00425" lon="-0.90149">
        <ele>129</ele>
        <time>2022-06-02T16:27:31Z</time>
      </trkpt>
      <trkpt lat="47.00448" lon="-0.9019">
        <ele>130</ele>
        <time>2022-06-02T16:27:37Z</time>
      </trkpt>
      <trkpt lat="47.00503" lon="-0.90276">
        <ele>129</ele>
        <time>2022-06-02T16:27:51Z</time>
      </trkpt>
      <trkpt lat="47.00529" lon="-0.90315">
        <ele>127</ele>
        <time>2022-06-02T16:27:58Z</time>
      </trkpt>
      <trkpt lat="47.00544" lon="-0.90338">
        <ele>126</ele>
        <time>2022-06-02T16:28:02Z</time>
      </trkpt>
      <trkpt lat="47.00553" lon="-0.90361">
        <ele>126</ele>
        <time>2022-06-02T16:28:05Z</time>
      </trkpt>
      <trkpt lat="47.00559" lon="-0.9038">
        <ele>126</ele>
        <time>2022-06-02T16:28:08Z</time>
      </trkpt>
      <trkpt lat="47.00563" lon="-0.9041">
        <ele>126</ele>
        <time>2022-06-02T16:28:11Z</time>
      </trkpt>
      <trkpt lat="47.00562" lon="-0.90436">
        <ele>126</ele>
        <time>2022-06-02T16:28:14Z</time>
      </trkpt>
      <trkpt lat="47.00552" lon="-0.90513">
        <ele>127</ele>
        <time>2022-06-02T16:28:24Z</time>
      </trkpt>
      <trkpt lat="47.00552" lon="-0.90539">
        <ele>127</ele>
        <time>2022-06-02T16:28:27Z</time>
      </trkpt>
      <trkpt lat="47.00553" lon="-0.90553">
        <ele>127</ele>
        <time>2022-06-02T16:28:29Z</time>
      </trkpt>
      <trkpt lat="47.00558" lon="-0.90578">
        <ele>126</ele>
        <time>2022-06-02T16:28:32Z</time>
      </trkpt>
      <trkpt lat="47.00566" lon="-0.90601">
        <ele>126</ele>
        <time>2022-06-02T16:28:35Z</time>
      </trkpt>
      <trkpt lat="47.00577" lon="-0.90622">
        <ele>126</ele>
        <time>2022-06-02T16:28:38Z</time>
      </trkpt>
      <trkpt lat="47.006" lon="-0.90657">
        <ele>125</ele>
        <time>2022-06-02T16:28:44Z</time>
      </trkpt>
      <trkpt lat="47.00616" lon="-0.90693">
        <ele>124</ele>
        <time>2022-06-02T16:28:49Z</time>
      </trkpt>
      <trkpt lat="47.0063" lon="-0.90741">
        <ele>124</ele>
        <time>2022-06-02T16:28:56Z</time>
      </trkpt>
      <trkpt lat="47.00646" lon="-0.90809">
        <ele>124</ele>
        <time>2022-06-02T16:29:04Z</time>
      </trkpt>
      <trkpt lat="47.00701" lon="-0.9099">
        <ele>121</ele>
        <time>2022-06-02T16:29:29Z</time>
      </trkpt>
      <trkpt lat="47.00719" lon="-0.91065">
        <ele>120</ele>
        <time>2022-06-02T16:29:38Z</time>
      </trkpt>
      <trkpt lat="47.00746" lon="-0.91143">
        <ele>120</ele>
        <time>2022-06-02T16:29:49Z</time>
      </trkpt>
      <trkpt lat="47.00754" lon="-0.91176">
        <ele>120</ele>
        <time>2022-06-02T16:29:53Z</time>
      </trkpt>
      <trkpt lat="47.00764" lon="-0.91245">
        <ele>119</ele>
        <time>2022-06-02T16:30:02Z</time>
      </trkpt>
      <trkpt lat="47.00777" lon="-0.91351">
        <ele>117</ele>
        <time>2022-06-02T16:30:15Z</time>
      </trkpt>
      <trkpt lat="47.00778" lon="-0.91382">
        <ele>116</ele>
        <time>2022-06-02T16:30:18Z</time>
      </trkpt>
      <trkpt lat="47.00778" lon="-0.91438">
        <ele>115</ele>
        <time>2022-06-02T16:30:25Z</time>
      </trkpt>
      <trkpt lat="47.0078" lon="-0.91465">
        <ele>115</ele>
        <time>2022-06-02T16:30:29Z</time>
      </trkpt>
      <trkpt lat="47.00789" lon="-0.91511">
        <ele>114</ele>
        <time>2022-06-02T16:30:34Z</time>
      </trkpt>
      <trkpt lat="47.00813" lon="-0.91581">
        <ele>113</ele>
        <time>2022-06-02T16:30:44Z</time>
      </trkpt>
      <trkpt lat="47.00836" lon="-0.91643">
        <ele>111</ele>
        <time>2022-06-02T16:30:52Z</time>
      </trkpt>
      <trkpt lat="47.00854" lon="-0.91682">
        <ele>111</ele>
        <time>2022-06-02T16:30:58Z</time>
      </trkpt>
      <trkpt lat="47.00913" lon="-0.9179">
        <ele>111</ele>
        <time>2022-06-02T16:31:15Z</time>
      </trkpt>
      <trkpt lat="47.00943" lon="-0.91855">
        <ele>112</ele>
        <time>2022-06-02T16:31:24Z</time>
      </trkpt>
      <trkpt lat="47.00956" lon="-0.91888">
        <ele>112</ele>
        <time>2022-06-02T16:31:29Z</time>
      </trkpt>
      <trkpt lat="47.00979" lon="-0.91959">
        <ele>113</ele>
        <time>2022-06-02T16:31:39Z</time>
      </trkpt>
      <trkpt lat="47.00986" lon="-0.9199">
        <ele>113</ele>
        <time>2022-06-02T16:31:43Z</time>
      </trkpt>
      <trkpt lat="47.00989" lon="-0.92012">
        <ele>113</ele>
        <time>2022-06-02T16:31:45Z</time>
      </trkpt>
      <trkpt lat="47.00997" lon="-0.92147">
        <ele>111</ele>
        <time>2022-06-02T16:32:02Z</time>
      </trkpt>
      <trkpt lat="47.01002" lon="-0.92188">
        <ele>111</ele>
        <time>2022-06-02T16:32:07Z</time>
      </trkpt>
      <trkpt lat="47.01008" lon="-0.9222">
        <ele>111</ele>
        <time>2022-06-02T16:32:11Z</time>
      </trkpt>
      <trkpt lat="47.01027" lon="-0.92285">
        <ele>110</ele>
        <time>2022-06-02T16:32:19Z</time>
      </trkpt>
      <trkpt lat="47.01034" lon="-0.92304">
        <ele>110</ele>
        <time>2022-06-02T16:32:22Z</time>
      </trkpt>
      <trkpt lat="47.01041" lon="-0.92317">
        <ele>110</ele>
        <time>2022-06-02T16:32:24Z</time>
      </trkpt>
      <trkpt lat="47.0105" lon="-0.9233">
        <ele>110</ele>
        <time>2022-06-02T16:32:26Z</time>
      </trkpt>
      <trkpt lat="47.01145" lon="-0.92419">
        <ele>111</ele>
        <time>2022-06-02T16:32:46Z</time>
      </trkpt>
      <trkpt lat="47.01211" lon="-0.9249">
        <ele>109</ele>
        <time>2022-06-02T16:33:01Z</time>
      </trkpt>
      <trkpt lat="47.01231" lon="-0.92506">
        <ele>108</ele>
        <time>2022-06-02T16:33:05Z</time>
      </trkpt>
      <trkpt lat="47.01265" lon="-0.92525">
        <ele>108</ele>
        <time>2022-06-02T16:33:11Z</time>
      </trkpt>
      <trkpt lat="47.01287" lon="-0.92532">
        <ele>108</ele>
        <time>2022-06-02T16:33:15Z</time>
      </trkpt>
      <trkpt lat="47.01352" lon="-0.92535">
        <ele>109</ele>
        <time>2022-06-02T16:33:27Z</time>
      </trkpt>
      <trkpt lat="47.01363" lon="-0.92538">
        <ele>109</ele>
        <time>2022-06-02T16:33:29Z</time>
      </trkpt>
      <trkpt lat="47.01401" lon="-0.92564">
        <ele>108</ele>
        <time>2022-06-02T16:33:36Z</time>
      </trkpt>
      <trkpt lat="47.01462" lon="-0.92613">
        <ele>106</ele>
        <time>2022-06-02T16:33:49Z</time>
      </trkpt>
      <trkpt lat="47.01491" lon="-0.92626">
        <ele>106</ele>
        <time>2022-06-02T16:33:54Z</time>
      </trkpt>
      <trkpt lat="47.01501" lon="-0.92624">
        <ele>106</ele>
        <time>2022-06-02T16:33:56Z</time>
      </trkpt>
      <trkpt lat="47.01509" lon="-0.92631">
        <ele>106</ele>
        <time>2022-06-02T16:33:58Z</time>
      </trkpt>
      <trkpt lat="47.01512" lon="-0.92642">
        <ele>106</ele>
        <time>2022-06-02T16:33:59Z</time>
      </trkpt>
      <trkpt lat="47.01512" lon="-0.92648">
        <ele>105</ele>
        <time>2022-06-02T16:34:00Z</time>
      </trkpt>
      <trkpt lat="47.01526" lon="-0.92671">
        <ele>105</ele>
        <time>2022-06-02T16:34:04Z</time>
      </trkpt>
      <trkpt lat="47.01555" lon="-0.927">
        <ele>105</ele>
        <time>2022-06-02T16:34:10Z</time>
      </trkpt>
      <trkpt lat="47.01592" lon="-0.92738">
        <ele>105</ele>
        <time>2022-06-02T16:34:18Z</time>
      </trkpt>
      <trkpt lat="47.01611" lon="-0.92753">
        <ele>104</ele>
        <time>2022-06-02T16:34:22Z</time>
      </trkpt>
      <trkpt lat="47.01632" lon="-0.9276">
        <ele>104</ele>
        <time>2022-06-02T16:34:25Z</time>
      </trkpt>
      <trkpt lat="47.01637" lon="-0.92757">
        <ele>104</ele>
        <time>2022-06-02T16:34:26Z</time>
      </trkpt>
      <trkpt lat="47.01647" lon="-0.92757">
        <ele>104</ele>
        <time>2022-06-02T16:34:28Z</time>
      </trkpt>
      <trkpt lat="47.01656" lon="-0.92765">
        <ele>104</ele>
        <time>2022-06-02T16:34:30Z</time>
      </trkpt>
      <trkpt lat="47.01659" lon="-0.92771">
        <ele>104</ele>
        <time>2022-06-02T16:34:31Z</time>
      </trkpt>
      <trkpt lat="47.01661" lon="-0.92785">
        <ele>104</ele>
        <time>2022-06-02T16:34:33Z</time>
      </trkpt>
      <trkpt lat="47.01661" lon="-0.92793">
        <ele>104</ele>
        <time>2022-06-02T16:34:34Z</time>
      </trkpt>
      <trkpt lat="47.01669" lon="-0.92809">
        <ele>104</ele>
        <time>2022-06-02T16:34:36Z</time>
      </trkpt>
      <trkpt lat="47.01684" lon="-0.9283">
        <ele>104</ele>
        <time>2022-06-02T16:34:40Z</time>
      </trkpt>
      <trkpt lat="47.01721" lon="-0.92872">
        <ele>103</ele>
        <time>2022-06-02T16:34:48Z</time>
      </trkpt>
      <trkpt lat="47.01798" lon="-0.92972">
        <ele>100</ele>
        <time>2022-06-02T16:35:06Z</time>
      </trkpt>
      <trkpt lat="47.01915" lon="-0.93129">
        <ele>100</ele>
        <time>2022-06-02T16:35:35Z</time>
      </trkpt>
      <trkpt lat="47.01976" lon="-0.93217">
        <ele>99</ele>
        <time>2022-06-02T16:35:50Z</time>
      </trkpt>
      <trkpt lat="47.02002" lon="-0.93261">
        <ele>99</ele>
        <time>2022-06-02T16:35:57Z</time>
      </trkpt>
      <trkpt lat="47.02061" lon="-0.9337">
        <ele>98</ele>
        <time>2022-06-02T16:36:14Z</time>
      </trkpt>
      <trkpt lat="47.02094" lon="-0.93424">
        <ele>98</ele>
        <time>2022-06-02T16:36:23Z</time>
      </trkpt>
      <trkpt lat="47.02211" lon="-0.93656">
        <ele>88</ele>
        <time>2022-06-02T16:36:58Z</time>
      </trkpt>
      <trkpt lat="47.02216" lon="-0.93674">
        <ele>88</ele>
        <time>2022-06-02T16:37:00Z</time>
      </trkpt>
      <trkpt lat="47.0222" lon="-0.93698">
        <ele>87</ele>
        <time>2022-06-02T16:37:03Z</time>
      </trkpt>
      <trkpt lat="47.02225" lon="-0.93755">
        <ele>86</ele>
        <time>2022-06-02T16:37:10Z</time>
      </trkpt>
      <trkpt lat="47.02237" lon="-0.93804">
        <ele>87</ele>
        <time>2022-06-02T16:37:16Z</time>
      </trkpt>
      <trkpt lat="47.02248" lon="-0.93828">
        <ele>88</ele>
        <time>2022-06-02T16:37:20Z</time>
      </trkpt>
      <trkpt lat="47.02276" lon="-0.93863">
        <ele>89</ele>
        <time>2022-06-02T16:37:26Z</time>
      </trkpt>
      <trkpt lat="47.02494" lon="-0.94114">
        <ele>98</ele>
        <time>2022-06-02T16:38:16Z</time>
      </trkpt>
      <trkpt lat="47.02516" lon="-0.94149">
        <ele>97</ele>
        <time>2022-06-02T16:38:21Z</time>
      </trkpt>
      <trkpt lat="47.0257" lon="-0.94253">
        <ele>98</ele>
        <time>2022-06-02T16:38:37Z</time>
      </trkpt>
      <trkpt lat="47.02583" lon="-0.94273">
        <ele>98</ele>
        <time>2022-06-02T16:38:41Z</time>
      </trkpt>
      <trkpt lat="47.02669" lon="-0.94346">
        <ele>97</ele>
        <time>2022-06-02T16:38:58Z</time>
      </trkpt>
      <trkpt lat="47.02672" lon="-0.94342">
        <ele>97</ele>
        <time>2022-06-02T16:38:59Z</time>
      </trkpt>
      <trkpt lat="47.02675" lon="-0.94342">
        <ele>97</ele>
        <time>2022-06-02T16:39:00Z</time>
      </trkpt>
      <trkpt lat="47.02686" lon="-0.94326">
        <ele>96</ele>
        <time>2022-06-02T16:39:02Z</time>
      </trkpt>
      <trkpt lat="47.02771" lon="-0.94241">
        <ele>92</ele>
        <time>2022-06-02T16:39:21Z</time>
      </trkpt>
      <trkpt lat="47.02796" lon="-0.94224">
        <ele>92</ele>
        <time>2022-06-02T16:39:25Z</time>
      </trkpt>
      <trkpt lat="47.02814" lon="-0.94217">
        <ele>91</ele>
        <time>2022-06-02T16:39:29Z</time>
      </trkpt>
      <trkpt lat="47.02834" lon="-0.94214">
        <ele>90</ele>
        <time>2022-06-02T16:39:32Z</time>
      </trkpt>
      <trkpt lat="47.02854" lon="-0.94214">
        <ele>90</ele>
        <time>2022-06-02T16:39:36Z</time>
      </trkpt>
      <trkpt lat="47.02887" lon="-0.94226">
        <ele>90</ele>
        <time>2022-06-02T16:39:42Z</time>
      </trkpt>
      <trkpt lat="47.029" lon="-0.94234">
        <ele>89</ele>
        <time>2022-06-02T16:39:45Z</time>
      </trkpt>
      <trkpt lat="47.0291" lon="-0.94244">
        <ele>89</ele>
        <time>2022-06-02T16:39:47Z</time>
      </trkpt>
      <trkpt lat="47.02915" lon="-0.94239">
        <ele>89</ele>
        <time>2022-06-02T16:39:48Z</time>
      </trkpt>
      <trkpt lat="47.02918" lon="-0.9424">
        <ele>89</ele>
        <time>2022-06-02T16:39:48Z</time>
      </trkpt>
      <trkpt lat="47.02921" lon="-0.94245">
        <ele>89</ele>
        <time>2022-06-02T16:39:49Z</time>
      </trkpt>
      <trkpt lat="47.02921" lon="-0.94253">
        <ele>89</ele>
        <time>2022-06-02T16:39:50Z</time>
      </trkpt>
      <trkpt lat="47.02974" lon="-0.94301">
        <ele>88</ele>
        <time>2022-06-02T16:40:01Z</time>
      </trkpt>
      <trkpt lat="47.02977" lon="-0.94298">
        <ele>88</ele>
        <time>2022-06-02T16:40:02Z</time>
      </trkpt>
      <trkpt lat="47.02985" lon="-0.94296">
        <ele>88</ele>
        <time>2022-06-02T16:40:03Z</time>
      </trkpt>
      <trkpt lat="47.03011" lon="-0.94237">
        <ele>89</ele>
        <time>2022-06-02T16:40:12Z</time>
      </trkpt>
      <trkpt lat="47.03019" lon="-0.94223">
        <ele>89</ele>
        <time>2022-06-02T16:40:14Z</time>
      </trkpt>
      <trkpt lat="47.03037" lon="-0.94206">
        <ele>89</ele>
        <time>2022-06-02T16:40:18Z</time>
      </trkpt>
      <trkpt lat="47.03125" lon="-0.94159">
        <ele>88</ele>
        <time>2022-06-02T16:40:34Z</time>
      </trkpt>
      <trkpt lat="47.03164" lon="-0.94144">
        <ele>88</ele>
        <time>2022-06-02T16:40:42Z</time>
      </trkpt>
      <trkpt lat="47.03237" lon="-0.94128">
        <ele>89</ele>
        <time>2022-06-02T16:40:55Z</time>
      </trkpt>
      <trkpt lat="47.0326" lon="-0.94117">
        <ele>90</ele>
        <time>2022-06-02T16:40:59Z</time>
      </trkpt>
      <trkpt lat="47.03363" lon="-0.9403">
        <ele>91</ele>
        <time>2022-06-02T16:41:20Z</time>
      </trkpt>
      <trkpt lat="47.03407" lon="-0.93985">
        <ele>90</ele>
        <time>2022-06-02T16:41:30Z</time>
      </trkpt>
      <trkpt lat="47.03431" lon="-0.93949">
        <ele>89</ele>
        <time>2022-06-02T16:41:36Z</time>
      </trkpt>
      <trkpt lat="47.03427" lon="-0.93939">
        <ele>89</ele>
        <time>2022-06-02T16:41:37Z</time>
      </trkpt>
      <trkpt lat="47.0343" lon="-0.93929">
        <ele>89</ele>
        <time>2022-06-02T16:41:39Z</time>
      </trkpt>
      <trkpt lat="47.03435" lon="-0.93925">
        <ele>88</ele>
        <time>2022-06-02T16:41:40Z</time>
      </trkpt>
      <trkpt lat="47.0344" lon="-0.93927">
        <ele>88</ele>
        <time>2022-06-02T16:41:41Z</time>
      </trkpt>
      <trkpt lat="47.03453" lon="-0.93899">
        <ele>87</ele>
        <time>2022-06-02T16:41:45Z</time>
      </trkpt>
      <trkpt lat="47.03488" lon="-0.93794">
        <ele>84</ele>
        <time>2022-06-02T16:41:59Z</time>
      </trkpt>
      <trkpt lat="47.03496" lon="-0.93773">
        <ele>84</ele>
        <time>2022-06-02T16:42:02Z</time>
      </trkpt>
      <trkpt lat="47.03508" lon="-0.93751">
        <ele>84</ele>
        <time>2022-06-02T16:42:05Z</time>
      </trkpt>
      <trkpt lat="47.03517" lon="-0.9374">
        <ele>84</ele>
        <time>2022-06-02T16:42:07Z</time>
      </trkpt>
      <trkpt lat="47.03533" lon="-0.93727">
        <ele>84</ele>
        <time>2022-06-02T16:42:10Z</time>
      </trkpt>
      <trkpt lat="47.03557" lon="-0.93717">
        <ele>85</ele>
        <time>2022-06-02T16:42:15Z</time>
      </trkpt>
      <trkpt lat="47.0359" lon="-0.93715">
        <ele>85</ele>
        <time>2022-06-02T16:42:21Z</time>
      </trkpt>
      <trkpt lat="47.0361" lon="-0.93711">
        <ele>86</ele>
        <time>2022-06-02T16:42:24Z</time>
      </trkpt>
      <trkpt lat="47.0363" lon="-0.93696">
        <ele>87</ele>
        <time>2022-06-02T16:42:28Z</time>
      </trkpt>
      <trkpt lat="47.03652" lon="-0.93674">
        <ele>88</ele>
        <time>2022-06-02T16:42:33Z</time>
      </trkpt>
      <trkpt lat="47.03678" lon="-0.93652">
        <ele>89</ele>
        <time>2022-06-02T16:42:38Z</time>
      </trkpt>
      <trkpt lat="47.03708" lon="-0.93634">
        <ele>91</ele>
        <time>2022-06-02T16:42:44Z</time>
      </trkpt>
      <trkpt lat="47.03771" lon="-0.93607">
        <ele>93</ele>
        <time>2022-06-02T16:42:56Z</time>
      </trkpt>
      <trkpt lat="47.038" lon="-0.93609">
        <ele>94</ele>
        <time>2022-06-02T16:43:01Z</time>
      </trkpt>
      <trkpt lat="47.03881" lon="-0.93597">
        <ele>95</ele>
        <time>2022-06-02T16:43:16Z</time>
      </trkpt>
      <trkpt lat="47.03949" lon="-0.93599">
        <ele>94</ele>
        <time>2022-06-02T16:43:28Z</time>
      </trkpt>
      <trkpt lat="47.04169" lon="-0.93615">
        <ele>93</ele>
        <time>2022-06-02T16:44:07Z</time>
      </trkpt>
      <trkpt lat="47.04182" lon="-0.93612">
        <ele>93</ele>
        <time>2022-06-02T16:44:09Z</time>
      </trkpt>
      <trkpt lat="47.0425" lon="-0.93579">
        <ele>94</ele>
        <time>2022-06-02T16:44:22Z</time>
      </trkpt>
      <trkpt lat="47.0427" lon="-0.93575">
        <ele>94</ele>
        <time>2022-06-02T16:44:26Z</time>
      </trkpt>
      <trkpt lat="47.04289" lon="-0.93577">
        <ele>95</ele>
        <time>2022-06-02T16:44:29Z</time>
      </trkpt>
      <trkpt lat="47.04303" lon="-0.93582">
        <ele>95</ele>
        <time>2022-06-02T16:44:31Z</time>
      </trkpt>
      <trkpt lat="47.04329" lon="-0.93604">
        <ele>94</ele>
        <time>2022-06-02T16:44:37Z</time>
      </trkpt>
      <trkpt lat="47.04342" lon="-0.93611">
        <ele>94</ele>
        <time>2022-06-02T16:44:39Z</time>
      </trkpt>
      <trkpt lat="47.04362" lon="-0.93615">
        <ele>94</ele>
        <time>2022-06-02T16:44:43Z</time>
      </trkpt>
      <trkpt lat="47.04374" lon="-0.93615">
        <ele>94</ele>
        <time>2022-06-02T16:44:45Z</time>
      </trkpt>
      <trkpt lat="47.04418" lon="-0.93607">
        <ele>94</ele>
        <time>2022-06-02T16:44:53Z</time>
      </trkpt>
      <trkpt lat="47.04444" lon="-0.93609">
        <ele>94</ele>
        <time>2022-06-02T16:44:58Z</time>
      </trkpt>
      <trkpt lat="47.04472" lon="-0.93618">
        <ele>94</ele>
        <time>2022-06-02T16:45:03Z</time>
      </trkpt>
      <trkpt lat="47.04498" lon="-0.93634">
        <ele>94</ele>
        <time>2022-06-02T16:45:08Z</time>
      </trkpt>
      <trkpt lat="47.04533" lon="-0.9366">
        <ele>93</ele>
        <time>2022-06-02T16:45:15Z</time>
      </trkpt>
      <trkpt lat="47.04606" lon="-0.93726">
        <ele>92</ele>
        <time>2022-06-02T16:45:30Z</time>
      </trkpt>
      <trkpt lat="47.04692" lon="-0.93787">
        <ele>91</ele>
        <time>2022-06-02T16:45:47Z</time>
      </trkpt>
      <trkpt lat="47.04779" lon="-0.93836">
        <ele>90</ele>
        <time>2022-06-02T16:46:03Z</time>
      </trkpt>
      <trkpt lat="47.04943" lon="-0.93922">
        <ele>88</ele>
        <time>2022-06-02T16:46:34Z</time>
      </trkpt>
      <trkpt lat="47.0498" lon="-0.93933">
        <ele>88</ele>
        <time>2022-06-02T16:46:41Z</time>
      </trkpt>
      <trkpt lat="47.05025" lon="-0.93938">
        <ele>88</ele>
        <time>2022-06-02T16:46:49Z</time>
      </trkpt>
      <trkpt lat="47.05093" lon="-0.93952">
        <ele>87</ele>
        <time>2022-06-02T16:47:01Z</time>
      </trkpt>
      <trkpt lat="47.05178" lon="-0.9398">
        <ele>86</ele>
        <time>2022-06-02T16:47:17Z</time>
      </trkpt>
      <trkpt lat="47.05223" lon="-0.93997">
        <ele>86</ele>
        <time>2022-06-02T16:47:25Z</time>
      </trkpt>
      <trkpt lat="47.05298" lon="-0.94018">
        <ele>85</ele>
        <time>2022-06-02T16:47:39Z</time>
      </trkpt>
      <trkpt lat="47.05348" lon="-0.94024">
        <ele>85</ele>
        <time>2022-06-02T16:47:48Z</time>
      </trkpt>
      <trkpt lat="47.05408" lon="-0.9402">
        <ele>85</ele>
        <time>2022-06-02T16:47:58Z</time>
      </trkpt>
      <trkpt lat="47.05469" lon="-0.94002">
        <ele>85</ele>
        <time>2022-06-02T16:48:09Z</time>
      </trkpt>
      <trkpt lat="47.05529" lon="-0.93977">
        <ele>84</ele>
        <time>2022-06-02T16:48:21Z</time>
      </trkpt>
      <trkpt lat="47.05532" lon="-0.93992">
        <ele>84</ele>
        <time>2022-06-02T16:48:22Z</time>
      </trkpt>
      <trkpt lat="47.05534" lon="-0.94003">
        <ele>85</ele>
        <time>2022-06-02T16:48:24Z</time>
      </trkpt>
      <trkpt lat="47.05538" lon="-0.94005">
        <ele>85</ele>
        <time>2022-06-02T16:48:25Z</time>
      </trkpt>
      <trkpt lat="47.05586" lon="-0.9399">
        <ele>84</ele>
        <time>2022-06-02T16:48:33Z</time>
      </trkpt>
      <trkpt lat="47.05589" lon="-0.94012">
        <ele>84</ele>
        <time>2022-06-02T16:48:36Z</time>
      </trkpt>
      <trkpt lat="47.05535" lon="-0.94029">
        <ele>85</ele>
        <time>2022-06-02T16:48:46Z</time>
      </trkpt>
      <trkpt lat="47.05531" lon="-0.94015">
        <ele>85</ele>
        <time>2022-06-02T16:48:48Z</time>
      </trkpt>
      <trkpt lat="47.05527" lon="-0.9399">
        <ele>84</ele>
        <time>2022-06-02T16:48:51Z</time>
      </trkpt>
      <trkpt lat="47.05525" lon="-0.93979">
        <ele>84</ele>
        <time>2022-06-02T16:48:52Z</time>
      </trkpt>
      <trkpt lat="47.05555" lon="-0.93966">
        <ele>84</ele>
        <time>2022-06-02T16:48:58Z</time>
      </trkpt>
      <trkpt lat="47.05592" lon="-0.9396">
        <ele>83</ele>
        <time>2022-06-02T16:49:04Z</time>
      </trkpt>
      <trkpt lat="47.05592" lon="-0.93956">
        <ele>83</ele>
        <time>2022-06-02T16:49:05Z</time>
      </trkpt>
      <trkpt lat="47.05595" lon="-0.93948">
        <ele>83</ele>
        <time>2022-06-02T16:49:06Z</time>
      </trkpt>
      <trkpt lat="47.056" lon="-0.93945">
        <ele>83</ele>
        <time>2022-06-02T16:49:07Z</time>
      </trkpt>
      <trkpt lat="47.05606" lon="-0.93947">
        <ele>83</ele>
        <time>2022-06-02T16:49:08Z</time>
      </trkpt>
      <trkpt lat="47.05609" lon="-0.93954">
        <ele>83</ele>
        <time>2022-06-02T16:49:09Z</time>
      </trkpt>
      <trkpt lat="47.05666" lon="-0.93942">
        <ele>82</ele>
        <time>2022-06-02T16:49:19Z</time>
      </trkpt>
      <trkpt lat="47.05742" lon="-0.93942">
        <ele>79</ele>
        <time>2022-06-02T16:49:33Z</time>
      </trkpt>
      <trkpt lat="47.05819" lon="-0.93954">
        <ele>76</ele>
        <time>2022-06-02T16:49:47Z</time>
      </trkpt>
      <trkpt lat="47.05862" lon="-0.93948">
        <ele>74</ele>
        <time>2022-06-02T16:49:54Z</time>
      </trkpt>
      <trkpt lat="47.05872" lon="-0.9394">
        <ele>73</ele>
        <time>2022-06-02T16:49:56Z</time>
      </trkpt>
      <trkpt lat="47.05967" lon="-0.93969">
        <ele>69</ele>
        <time>2022-06-02T16:50:14Z</time>
      </trkpt>
      <trkpt lat="47.05975" lon="-0.93969">
        <ele>69</ele>
        <time>2022-06-02T16:50:15Z</time>
      </trkpt>
      <trkpt lat="47.05977" lon="-0.93963">
        <ele>69</ele>
        <time>2022-06-02T16:50:16Z</time>
      </trkpt>
      <trkpt lat="47.05983" lon="-0.9396">
        <ele>69</ele>
        <time>2022-06-02T16:50:17Z</time>
      </trkpt>
      <trkpt lat="47.05989" lon="-0.93928">
        <ele>69</ele>
        <time>2022-06-02T16:50:21Z</time>
      </trkpt>
      <trkpt lat="47.06001" lon="-0.93746">
        <ele>65</ele>
        <time>2022-06-02T16:50:43Z</time>
      </trkpt>
      <trkpt lat="47.06003" lon="-0.93723">
        <ele>65</ele>
        <time>2022-06-02T16:50:46Z</time>
      </trkpt>
      <trkpt lat="47.06007" lon="-0.93655">
        <ele>65</ele>
        <time>2022-06-02T16:50:54Z</time>
      </trkpt>
      <trkpt lat="47.06018" lon="-0.9366">
        <ele>65</ele>
        <time>2022-06-02T16:50:56Z</time>
      </trkpt>
      <trkpt lat="47.06052" lon="-0.93711">
        <ele>65</ele>
        <time>2022-06-02T16:51:05Z</time>
      </trkpt>
      <trkpt lat="47.06106" lon="-0.93709">
        <ele>66</ele>
        <time>2022-06-02T16:51:14Z</time>
      </trkpt>
      <trkpt lat="47.06138" lon="-0.93729">
        <ele>67</ele>
        <time>2022-06-02T16:51:21Z</time>
      </trkpt>
      <trkpt lat="47.06149" lon="-0.9374">
        <ele>67</ele>
        <time>2022-06-02T16:51:23Z</time>
      </trkpt>
      <trkpt lat="47.06157" lon="-0.93752">
        <ele>67</ele>
        <time>2022-06-02T16:51:25Z</time>
      </trkpt>
      <trkpt lat="47.06171" lon="-0.93791">
        <ele>67</ele>
        <time>2022-06-02T16:51:30Z</time>
      </trkpt>
      <trkpt lat="47.06177" lon="-0.938">
        <ele>67</ele>
        <time>2022-06-02T16:51:32Z</time>
      </trkpt>
      <trkpt lat="47.06183" lon="-0.93806">
        <ele>68</ele>
        <time>2022-06-02T16:51:33Z</time>
      </trkpt>
      <trkpt lat="47.06194" lon="-0.93811">
        <ele>69</ele>
        <time>2022-06-02T16:51:35Z</time>
      </trkpt>
      <trkpt lat="47.06221" lon="-0.93814">
        <ele>71</ele>
        <time>2022-06-02T16:51:40Z</time>
      </trkpt>
      <trkpt lat="47.0623" lon="-0.93812">
        <ele>72</ele>
        <time>2022-06-02T16:51:42Z</time>
      </trkpt>
      <trkpt lat="47.06278" lon="-0.93782">
        <ele>77</ele>
        <time>2022-06-02T16:51:51Z</time>
      </trkpt>
      <trkpt lat="47.06352" lon="-0.93759">
        <ele>85</ele>
        <time>2022-06-02T16:52:04Z</time>
      </trkpt>
      <trkpt lat="47.06367" lon="-0.93751">
        <ele>86</ele>
        <time>2022-06-02T16:52:07Z</time>
      </trkpt>
      <trkpt lat="47.06396" lon="-0.93728">
        <ele>89</ele>
        <time>2022-06-02T16:52:13Z</time>
      </trkpt>
      <trkpt lat="47.06456" lon="-0.93688">
        <ele>96</ele>
        <time>2022-06-02T16:52:25Z</time>
      </trkpt>
      <trkpt lat="47.06471" lon="-0.93681">
        <ele>98</ele>
        <time>2022-06-02T16:52:28Z</time>
      </trkpt>
      <trkpt lat="47.06508" lon="-0.93671">
        <ele>101</ele>
        <time>2022-06-02T16:52:34Z</time>
      </trkpt>
      <trkpt lat="47.06551" lon="-0.93653">
        <ele>104</ele>
        <time>2022-06-02T16:52:42Z</time>
      </trkpt>
      <trkpt lat="47.06567" lon="-0.93651">
        <ele>105</ele>
        <time>2022-06-02T16:52:45Z</time>
      </trkpt>
      <trkpt lat="47.06583" lon="-0.93651">
        <ele>106</ele>
        <time>2022-06-02T16:52:48Z</time>
      </trkpt>
      <trkpt lat="47.06602" lon="-0.93654">
        <ele>107</ele>
        <time>2022-06-02T16:52:51Z</time>
      </trkpt>
      <trkpt lat="47.06631" lon="-0.93662">
        <ele>108</ele>
        <time>2022-06-02T16:52:57Z</time>
      </trkpt>
      <trkpt lat="47.06781" lon="-0.93684">
        <ele>112</ele>
        <time>2022-06-02T16:53:24Z</time>
      </trkpt>
      <trkpt lat="47.06847" lon="-0.937">
        <ele>113</ele>
        <time>2022-06-02T16:53:35Z</time>
      </trkpt>
      <trkpt lat="47.06972" lon="-0.93754">
        <ele>117</ele>
        <time>2022-06-02T16:53:59Z</time>
      </trkpt>
      <trkpt lat="47.06986" lon="-0.93756">
        <ele>117</ele>
        <time>2022-06-02T16:54:01Z</time>
      </trkpt>
      <trkpt lat="47.07001" lon="-0.93751">
        <ele>117</ele>
        <time>2022-06-02T16:54:04Z</time>
      </trkpt>
      <trkpt lat="47.07002" lon="-0.93735">
        <ele>117</ele>
        <time>2022-06-02T16:54:06Z</time>
      </trkpt>
      <trkpt lat="47.07006" lon="-0.93723">
        <ele>116</ele>
        <time>2022-06-02T16:54:07Z</time>
      </trkpt>
      <trkpt lat="47.07015" lon="-0.93715">
        <ele>116</ele>
        <time>2022-06-02T16:54:09Z</time>
      </trkpt>
      <trkpt lat="47.07024" lon="-0.93715">
        <ele>117</ele>
        <time>2022-06-02T16:54:11Z</time>
      </trkpt>
      <trkpt lat="47.07035" lon="-0.93723">
        <ele>117</ele>
        <time>2022-06-02T16:54:13Z</time>
      </trkpt>
      <trkpt lat="47.0704" lon="-0.93716">
        <ele>117</ele>
        <time>2022-06-02T16:54:14Z</time>
      </trkpt>
      <trkpt lat="47.07048" lon="-0.9371">
        <ele>117</ele>
        <time>2022-06-02T16:54:16Z</time>
      </trkpt>
      <trkpt lat="47.07087" lon="-0.93679">
        <ele>117</ele>
        <time>2022-06-02T16:54:24Z</time>
      </trkpt>
      <trkpt lat="47.07186" lon="-0.93595">
        <ele>123</ele>
        <time>2022-06-02T16:54:44Z</time>
      </trkpt>
      <trkpt lat="47.07187" lon="-0.93582">
        <ele>123</ele>
        <time>2022-06-02T16:54:46Z</time>
      </trkpt>
      <trkpt lat="47.0719" lon="-0.93577">
        <ele>123</ele>
        <time>2022-06-02T16:54:47Z</time>
      </trkpt>
      <trkpt lat="47.07198" lon="-0.93573">
        <ele>123</ele>
        <time>2022-06-02T16:54:48Z</time>
      </trkpt>
      <trkpt lat="47.07206" lon="-0.93579">
        <ele>123</ele>
        <time>2022-06-02T16:54:50Z</time>
      </trkpt>
      <trkpt lat="47.07435" lon="-0.9338">
        <ele>125</ele>
        <time>2022-06-02T16:55:37Z</time>
      </trkpt>
      <trkpt lat="47.07432" lon="-0.93364">
        <ele>125</ele>
        <time>2022-06-02T16:55:39Z</time>
      </trkpt>
      <trkpt lat="47.07435" lon="-0.93349">
        <ele>125</ele>
        <time>2022-06-02T16:55:41Z</time>
      </trkpt>
      <trkpt lat="47.07439" lon="-0.93342">
        <ele>124</ele>
        <time>2022-06-02T16:55:42Z</time>
      </trkpt>
      <trkpt lat="47.07449" lon="-0.93336">
        <ele>124</ele>
        <time>2022-06-02T16:55:44Z</time>
      </trkpt>
      <trkpt lat="47.07459" lon="-0.93337">
        <ele>125</ele>
        <time>2022-06-02T16:55:46Z</time>
      </trkpt>
      <trkpt lat="47.07463" lon="-0.93341">
        <ele>125</ele>
        <time>2022-06-02T16:55:47Z</time>
      </trkpt>
      <trkpt lat="47.0747" lon="-0.93352">
        <ele>125</ele>
        <time>2022-06-02T16:55:48Z</time>
      </trkpt>
      <trkpt lat="47.07472" lon="-0.93367">
        <ele>125</ele>
        <time>2022-06-02T16:55:50Z</time>
      </trkpt>
      <trkpt lat="47.07469" lon="-0.93381">
        <ele>126</ele>
        <time>2022-06-02T16:55:52Z</time>
      </trkpt>
      <trkpt lat="47.07461" lon="-0.93391">
        <ele>126</ele>
        <time>2022-06-02T16:55:54Z</time>
      </trkpt>
      <trkpt lat="47.07455" lon="-0.93394">
        <ele>126</ele>
        <time>2022-06-02T16:55:55Z</time>
      </trkpt>
      <trkpt lat="47.07466" lon="-0.93453">
        <ele>127</ele>
        <time>2022-06-02T16:56:02Z</time>
      </trkpt>
      <trkpt lat="47.07472" lon="-0.93484">
        <ele>128</ele>
        <time>2022-06-02T16:56:06Z</time>
      </trkpt>
      <trkpt lat="47.07483" lon="-0.93513">
        <ele>128</ele>
        <time>2022-06-02T16:56:10Z</time>
      </trkpt>
      <trkpt lat="47.07522" lon="-0.93613">
        <ele>129</ele>
        <time>2022-06-02T16:56:24Z</time>
      </trkpt>
      <trkpt lat="47.0756" lon="-0.93738">
        <ele>126</ele>
        <time>2022-06-02T16:56:41Z</time>
      </trkpt>
      <trkpt lat="47.07709" lon="-0.94116">
        <ele>115</ele>
        <time>2022-06-02T16:57:34Z</time>
      </trkpt>
      <trkpt lat="47.07725" lon="-0.94155">
        <ele>114</ele>
        <time>2022-06-02T16:57:39Z</time>
      </trkpt>
      <trkpt lat="47.07758" lon="-0.94209">
        <ele>112</ele>
        <time>2022-06-02T16:57:48Z</time>
      </trkpt>
      <trkpt lat="47.078" lon="-0.9426">
        <ele>110</ele>
        <time>2022-06-02T16:57:58Z</time>
      </trkpt>
      <trkpt lat="47.07823" lon="-0.94284">
        <ele>109</ele>
        <time>2022-06-02T16:58:03Z</time>
      </trkpt>
      <trkpt lat="47.07854" lon="-0.94308">
        <ele>108</ele>
        <time>2022-06-02T16:58:09Z</time>
      </trkpt>
      <trkpt lat="47.07905" lon="-0.94331">
        <ele>107</ele>
        <time>2022-06-02T16:58:19Z</time>
      </trkpt>
      <trkpt lat="47.07977" lon="-0.9435">
        <ele>106</ele>
        <time>2022-06-02T16:58:32Z</time>
      </trkpt>
      <trkpt lat="47.07994" lon="-0.94358">
        <ele>105</ele>
        <time>2022-06-02T16:58:35Z</time>
      </trkpt>
      <trkpt lat="47.08028" lon="-0.9438">
        <ele>105</ele>
        <time>2022-06-02T16:58:41Z</time>
      </trkpt>
      <trkpt lat="47.08048" lon="-0.94399">
        <ele>105</ele>
        <time>2022-06-02T16:58:46Z</time>
      </trkpt>
      <trkpt lat="47.08076" lon="-0.94436">
        <ele>106</ele>
        <time>2022-06-02T16:58:52Z</time>
      </trkpt>
      <trkpt lat="47.08086" lon="-0.94454">
        <ele>106</ele>
        <time>2022-06-02T16:58:55Z</time>
      </trkpt>
      <trkpt lat="47.08096" lon="-0.94479">
        <ele>106</ele>
        <time>2022-06-02T16:58:59Z</time>
      </trkpt>
      <trkpt lat="47.0815" lon="-0.94638">
        <ele>110</ele>
        <time>2022-06-02T16:59:20Z</time>
      </trkpt>
      <trkpt lat="47.08171" lon="-0.94689">
        <ele>112</ele>
        <time>2022-06-02T16:59:27Z</time>
      </trkpt>
      <trkpt lat="47.08338" lon="-0.94984">
        <ele>114</ele>
        <time>2022-06-02T17:00:14Z</time>
      </trkpt>
      <trkpt lat="47.08365" lon="-0.95045">
        <ele>113</ele>
        <time>2022-06-02T17:00:23Z</time>
      </trkpt>
      <trkpt lat="47.08383" lon="-0.95089">
        <ele>112</ele>
        <time>2022-06-02T17:00:29Z</time>
      </trkpt>
      <trkpt lat="47.08421" lon="-0.95196">
        <ele>109</ele>
        <time>2022-06-02T17:00:44Z</time>
      </trkpt>
      <trkpt lat="47.08489" lon="-0.95409">
        <ele>110</ele>
        <time>2022-06-02T17:01:12Z</time>
      </trkpt>
      <trkpt lat="47.08507" lon="-0.95486">
        <ele>111</ele>
        <time>2022-06-02T17:01:22Z</time>
      </trkpt>
      <trkpt lat="47.08521" lon="-0.95577">
        <ele>111</ele>
        <time>2022-06-02T17:01:33Z</time>
      </trkpt>
      <trkpt lat="47.08529" lon="-0.95615">
        <ele>111</ele>
        <time>2022-06-02T17:01:38Z</time>
      </trkpt>
      <trkpt lat="47.08541" lon="-0.95654">
        <ele>111</ele>
        <time>2022-06-02T17:01:43Z</time>
      </trkpt>
      <trkpt lat="47.08617" lon="-0.95882">
        <ele>110</ele>
        <time>2022-06-02T17:02:14Z</time>
      </trkpt>
      <trkpt lat="47.08629" lon="-0.95951">
        <ele>109</ele>
        <time>2022-06-02T17:02:23Z</time>
      </trkpt>
      <trkpt lat="47.08654" lon="-0.96151">
        <ele>103</ele>
        <time>2022-06-02T17:02:47Z</time>
      </trkpt>
      <trkpt lat="47.08664" lon="-0.96261">
        <ele>102</ele>
        <time>2022-06-02T17:03:01Z</time>
      </trkpt>
      <trkpt lat="47.08673" lon="-0.96304">
        <ele>101</ele>
        <time>2022-06-02T17:03:06Z</time>
      </trkpt>
      <trkpt lat="47.08687" lon="-0.96352">
        <ele>100</ele>
        <time>2022-06-02T17:03:12Z</time>
      </trkpt>
      <trkpt lat="47.08705" lon="-0.96396">
        <ele>100</ele>
        <time>2022-06-02T17:03:19Z</time>
      </trkpt>
      <trkpt lat="47.08726" lon="-0.96435">
        <ele>101</ele>
        <time>2022-06-02T17:03:25Z</time>
      </trkpt>
      <trkpt lat="47.08746" lon="-0.96462">
        <ele>102</ele>
        <time>2022-06-02T17:03:30Z</time>
      </trkpt>
      <trkpt lat="47.08815" lon="-0.96541">
        <ele>106</ele>
        <time>2022-06-02T17:03:45Z</time>
      </trkpt>
      <trkpt lat="47.08841" lon="-0.96583">
        <ele>107</ele>
        <time>2022-06-02T17:03:52Z</time>
      </trkpt>
      <trkpt lat="47.08851" lon="-0.96609">
        <ele>107</ele>
        <time>2022-06-02T17:03:56Z</time>
      </trkpt>
      <trkpt lat="47.08966" lon="-0.9696">
        <ele>103</ele>
        <time>2022-06-02T17:04:43Z</time>
      </trkpt>
      <trkpt lat="47.08986" lon="-0.97033">
        <ele>100</ele>
        <time>2022-06-02T17:04:52Z</time>
      </trkpt>
      <trkpt lat="47.0901" lon="-0.97134">
        <ele>98</ele>
        <time>2022-06-02T17:05:05Z</time>
      </trkpt>
      <trkpt lat="47.09018" lon="-0.97173">
        <ele>97</ele>
        <time>2022-06-02T17:05:10Z</time>
      </trkpt>
      <trkpt lat="47.09027" lon="-0.97242">
        <ele>95</ele>
        <time>2022-06-02T17:05:19Z</time>
      </trkpt>
      <trkpt lat="47.09032" lon="-0.97334">
        <ele>95</ele>
        <time>2022-06-02T17:05:30Z</time>
      </trkpt>
      <trkpt lat="47.09025" lon="-0.97489">
        <ele>90</ele>
        <time>2022-06-02T17:05:49Z</time>
      </trkpt>
      <trkpt lat="47.09024" lon="-0.97527">
        <ele>89</ele>
        <time>2022-06-02T17:05:53Z</time>
      </trkpt>
      <trkpt lat="47.09027" lon="-0.97554">
        <ele>89</ele>
        <time>2022-06-02T17:05:57Z</time>
      </trkpt>
      <trkpt lat="47.09034" lon="-0.976">
        <ele>89</ele>
        <time>2022-06-02T17:06:02Z</time>
      </trkpt>
      <trkpt lat="47.09102" lon="-0.97872">
        <ele>93</ele>
        <time>2022-06-02T17:06:37Z</time>
      </trkpt>
      <trkpt lat="47.09115" lon="-0.97914">
        <ele>94</ele>
        <time>2022-06-02T17:06:43Z</time>
      </trkpt>
      <trkpt lat="47.09266" lon="-0.98326">
        <ele>89</ele>
        <time>2022-06-02T17:07:40Z</time>
      </trkpt>
      <trkpt lat="47.09297" lon="-0.98421">
        <ele>89</ele>
        <time>2022-06-02T17:07:52Z</time>
      </trkpt>
      <trkpt lat="47.0936" lon="-0.98597">
        <ele>86</ele>
        <time>2022-06-02T17:08:17Z</time>
      </trkpt>
      <trkpt lat="47.09396" lon="-0.98729">
        <ele>87</ele>
        <time>2022-06-02T17:08:34Z</time>
      </trkpt>
      <trkpt lat="47.09412" lon="-0.98776">
        <ele>88</ele>
        <time>2022-06-02T17:08:40Z</time>
      </trkpt>
      <trkpt lat="47.09757" lon="-0.99656">
        <ele>90</ele>
        <time>2022-06-02T17:10:43Z</time>
      </trkpt>
      <trkpt lat="47.09828" lon="-0.99828">
        <ele>94</ele>
        <time>2022-06-02T17:11:08Z</time>
      </trkpt>
      <trkpt lat="47.09898" lon="-0.99992">
        <ele>100</ele>
        <time>2022-06-02T17:11:31Z</time>
      </trkpt>
      <trkpt lat="47.09909" lon="-1.00009">
        <ele>100</ele>
        <time>2022-06-02T17:11:34Z</time>
      </trkpt>
      <trkpt lat="47.09914" lon="-1.00033">
        <ele>101</ele>
        <time>2022-06-02T17:11:37Z</time>
      </trkpt>
      <trkpt lat="47.09911" lon="-1.00051">
        <ele>102</ele>
        <time>2022-06-02T17:11:39Z</time>
      </trkpt>
      <trkpt lat="47.09903" lon="-1.00067">
        <ele>102</ele>
        <time>2022-06-02T17:11:41Z</time>
      </trkpt>
      <trkpt lat="47.09882" lon="-1.001">
        <ele>103</ele>
        <time>2022-06-02T17:11:47Z</time>
      </trkpt>
      <trkpt lat="47.09844" lon="-1.00151">
        <ele>104</ele>
        <time>2022-06-02T17:11:56Z</time>
      </trkpt>
      <trkpt lat="47.09818" lon="-1.00191">
        <ele>104</ele>
        <time>2022-06-02T17:12:03Z</time>
      </trkpt>
      <trkpt lat="47.09793" lon="-1.00242">
        <ele>104</ele>
        <time>2022-06-02T17:12:10Z</time>
      </trkpt>
      <trkpt lat="47.09716" lon="-1.00412">
        <ele>106</ele>
        <time>2022-06-02T17:12:35Z</time>
      </trkpt>
      <trkpt lat="47.09686" lon="-1.00485">
        <ele>105</ele>
        <time>2022-06-02T17:12:45Z</time>
      </trkpt>
      <trkpt lat="47.0969" lon="-1.00489">
        <ele>105</ele>
        <time>2022-06-02T17:12:46Z</time>
      </trkpt>
      <trkpt lat="47.09694" lon="-1.00501">
        <ele>105</ele>
        <time>2022-06-02T17:12:48Z</time>
      </trkpt>
      <trkpt lat="47.09693" lon="-1.00514">
        <ele>105</ele>
        <time>2022-06-02T17:12:50Z</time>
      </trkpt>
      <trkpt lat="47.0969" lon="-1.00519">
        <ele>105</ele>
        <time>2022-06-02T17:12:50Z</time>
      </trkpt>
      <trkpt lat="47.09681" lon="-1.00526">
        <ele>104</ele>
        <time>2022-06-02T17:12:52Z</time>
      </trkpt>
      <trkpt lat="47.09676" lon="-1.00526">
        <ele>104</ele>
        <time>2022-06-02T17:12:53Z</time>
      </trkpt>
      <trkpt lat="47.09668" lon="-1.00519">
        <ele>105</ele>
        <time>2022-06-02T17:12:55Z</time>
      </trkpt>
      <trkpt lat="47.09665" lon="-1.00513">
        <ele>105</ele>
        <time>2022-06-02T17:12:56Z</time>
      </trkpt>
      <trkpt lat="47.09551" lon="-1.00591">
        <ele>106</ele>
        <time>2022-06-02T17:13:18Z</time>
      </trkpt>
      <trkpt lat="47.09503" lon="-1.0062">
        <ele>106</ele>
        <time>2022-06-02T17:13:27Z</time>
      </trkpt>
      <trkpt lat="47.09458" lon="-1.00643">
        <ele>106</ele>
        <time>2022-06-02T17:13:36Z</time>
      </trkpt>
      <trkpt lat="47.09459" lon="-1.00653">
        <ele>106</ele>
        <time>2022-06-02T17:13:37Z</time>
      </trkpt>
      <trkpt lat="47.09457" lon="-1.00663">
        <ele>106</ele>
        <time>2022-06-02T17:13:38Z</time>
      </trkpt>
      <trkpt lat="47.09453" lon="-1.00671">
        <ele>106</ele>
        <time>2022-06-02T17:13:39Z</time>
      </trkpt>
      <trkpt lat="47.09448" lon="-1.00677">
        <ele>106</ele>
        <time>2022-06-02T17:13:41Z</time>
      </trkpt>
      <trkpt lat="47.09441" lon="-1.00679">
        <ele>106</ele>
        <time>2022-06-02T17:13:42Z</time>
      </trkpt>
      <trkpt lat="47.09435" lon="-1.00679">
        <ele>106</ele>
        <time>2022-06-02T17:13:43Z</time>
      </trkpt>
      <trkpt lat="47.09426" lon="-1.00672">
        <ele>106</ele>
        <time>2022-06-02T17:13:45Z</time>
      </trkpt>
      <trkpt lat="47.09421" lon="-1.00659">
        <ele>106</ele>
        <time>2022-06-02T17:13:46Z</time>
      </trkpt>
      <trkpt lat="47.09373" lon="-1.00677">
        <ele>106</ele>
        <time>2022-06-02T17:13:55Z</time>
      </trkpt>
      <trkpt lat="47.09319" lon="-1.00692">
        <ele>107</ele>
        <time>2022-06-02T17:14:05Z</time>
      </trkpt>
      <trkpt lat="47.09248" lon="-1.00709">
        <ele>107</ele>
        <time>2022-06-02T17:14:18Z</time>
      </trkpt>
      <trkpt lat="47.09248" lon="-1.00718">
        <ele>107</ele>
        <time>2022-06-02T17:14:19Z</time>
      </trkpt>
      <trkpt lat="47.09243" lon="-1.00735">
        <ele>107</ele>
        <time>2022-06-02T17:14:21Z</time>
      </trkpt>
      <trkpt lat="47.09233" lon="-1.00746">
        <ele>107</ele>
        <time>2022-06-02T17:14:23Z</time>
      </trkpt>
      <trkpt lat="47.09225" lon="-1.00748">
        <ele>107</ele>
        <time>2022-06-02T17:14:25Z</time>
      </trkpt>
      <trkpt lat="47.09218" lon="-1.00746">
        <ele>107</ele>
        <time>2022-06-02T17:14:26Z</time>
      </trkpt>
      <trkpt lat="47.09211" lon="-1.0074">
        <ele>107</ele>
        <time>2022-06-02T17:14:28Z</time>
      </trkpt>
      <trkpt lat="47.09206" lon="-1.00732">
        <ele>107</ele>
        <time>2022-06-02T17:14:29Z</time>
      </trkpt>
      <trkpt lat="47.09203" lon="-1.00722">
        <ele>107</ele>
        <time>2022-06-02T17:14:30Z</time>
      </trkpt>
      <trkpt lat="47.09052" lon="-1.00753">
        <ele>105</ele>
        <time>2022-06-02T17:14:57Z</time>
      </trkpt>
      <trkpt lat="47.09003" lon="-1.00759">
        <ele>105</ele>
        <time>2022-06-02T17:15:06Z</time>
      </trkpt>
      <trkpt lat="47.08921" lon="-1.00765">
        <ele>102</ele>
        <time>2022-06-02T17:15:21Z</time>
      </trkpt>
      <trkpt lat="47.08879" lon="-1.00773">
        <ele>101</ele>
        <time>2022-06-02T17:15:28Z</time>
      </trkpt>
      <trkpt lat="47.08854" lon="-1.00782">
        <ele>100</ele>
        <time>2022-06-02T17:15:33Z</time>
      </trkpt>
      <trkpt lat="47.08821" lon="-1.008">
        <ele>100</ele>
        <time>2022-06-02T17:15:39Z</time>
      </trkpt>
      <trkpt lat="47.0878" lon="-1.00828">
        <ele>98</ele>
        <time>2022-06-02T17:15:47Z</time>
      </trkpt>
      <trkpt lat="47.08763" lon="-1.00844">
        <ele>98</ele>
        <time>2022-06-02T17:15:51Z</time>
      </trkpt>
      <trkpt lat="47.08642" lon="-1.00978">
        <ele>90</ele>
        <time>2022-06-02T17:16:18Z</time>
      </trkpt>
      <trkpt lat="47.08603" lon="-1.01016">
        <ele>87</ele>
        <time>2022-06-02T17:16:26Z</time>
      </trkpt>
      <trkpt lat="47.08571" lon="-1.01039">
        <ele>85</ele>
        <time>2022-06-02T17:16:32Z</time>
      </trkpt>
      <trkpt lat="47.08549" lon="-1.01052">
        <ele>85</ele>
        <time>2022-06-02T17:16:37Z</time>
      </trkpt>
      <trkpt lat="47.08508" lon="-1.0107">
        <ele>83</ele>
        <time>2022-06-02T17:16:44Z</time>
      </trkpt>
      <trkpt lat="47.0844" lon="-1.01092">
        <ele>83</ele>
        <time>2022-06-02T17:16:57Z</time>
      </trkpt>
      <trkpt lat="47.08383" lon="-1.01108">
        <ele>84</ele>
        <time>2022-06-02T17:17:07Z</time>
      </trkpt>
      <trkpt lat="47.08251" lon="-1.0114">
        <ele>84</ele>
        <time>2022-06-02T17:17:31Z</time>
      </trkpt>
      <trkpt lat="47.08225" lon="-1.0115">
        <ele>84</ele>
        <time>2022-06-02T17:17:36Z</time>
      </trkpt>
      <trkpt lat="47.08201" lon="-1.01163">
        <ele>83</ele>
        <time>2022-06-02T17:17:40Z</time>
      </trkpt>
      <trkpt lat="47.0816" lon="-1.01192">
        <ele>82</ele>
        <time>2022-06-02T17:17:48Z</time>
      </trkpt>
      <trkpt lat="47.08135" lon="-1.01216">
        <ele>80</ele>
        <time>2022-06-02T17:17:53Z</time>
      </trkpt>
      <trkpt lat="47.08112" lon="-1.01244">
        <ele>78</ele>
        <time>2022-06-02T17:17:59Z</time>
      </trkpt>
      <trkpt lat="47.08074" lon="-1.01299">
        <ele>75</ele>
        <time>2022-06-02T17:18:08Z</time>
      </trkpt>
      <trkpt lat="47.07801" lon="-1.01715">
        <ele>80</ele>
        <time>2022-06-02T17:19:18Z</time>
      </trkpt>
      <trkpt lat="47.07774" lon="-1.01754">
        <ele>79</ele>
        <time>2022-06-02T17:19:25Z</time>
      </trkpt>
      <trkpt lat="47.07742" lon="-1.01791">
        <ele>76</ele>
        <time>2022-06-02T17:19:32Z</time>
      </trkpt>
      <trkpt lat="47.07717" lon="-1.01814">
        <ele>73</ele>
        <time>2022-06-02T17:19:38Z</time>
      </trkpt>
      <trkpt lat="47.07694" lon="-1.01834">
        <ele>71</ele>
        <time>2022-06-02T17:19:42Z</time>
      </trkpt>
      <trkpt lat="47.07551" lon="-1.01935">
        <ele>52</ele>
        <time>2022-06-02T17:20:11Z</time>
      </trkpt>
      <trkpt lat="47.07506" lon="-1.01966">
        <ele>56</ele>
        <time>2022-06-02T17:20:19Z</time>
      </trkpt>
      <trkpt lat="47.07405" lon="-1.0204">
        <ele>65</ele>
        <time>2022-06-02T17:20:39Z</time>
      </trkpt>
      <trkpt lat="47.0737" lon="-1.02075">
        <ele>66</ele>
        <time>2022-06-02T17:20:47Z</time>
      </trkpt>
      <trkpt lat="47.07339" lon="-1.02118">
        <ele>68</ele>
        <time>2022-06-02T17:20:55Z</time>
      </trkpt>
      <trkpt lat="47.07279" lon="-1.02226">
        <ele>73</ele>
        <time>2022-06-02T17:21:11Z</time>
      </trkpt>
      <trkpt lat="47.07243" lon="-1.02277">
        <ele>76</ele>
        <time>2022-06-02T17:21:20Z</time>
      </trkpt>
      <trkpt lat="47.07208" lon="-1.02316">
        <ele>79</ele>
        <time>2022-06-02T17:21:28Z</time>
      </trkpt>
      <trkpt lat="47.07176" lon="-1.02344">
        <ele>81</ele>
        <time>2022-06-02T17:21:35Z</time>
      </trkpt>
      <trkpt lat="47.07112" lon="-1.02384">
        <ele>84</ele>
        <time>2022-06-02T17:21:47Z</time>
      </trkpt>
      <trkpt lat="47.06996" lon="-1.02429">
        <ele>94</ele>
        <time>2022-06-02T17:22:09Z</time>
      </trkpt>
      <trkpt lat="47.06965" lon="-1.02446">
        <ele>96</ele>
        <time>2022-06-02T17:22:14Z</time>
      </trkpt>
      <trkpt lat="47.06922" lon="-1.02478">
        <ele>98</ele>
        <time>2022-06-02T17:22:23Z</time>
      </trkpt>
      <trkpt lat="47.06876" lon="-1.02523">
        <ele>98</ele>
        <time>2022-06-02T17:22:33Z</time>
      </trkpt>
      <trkpt lat="47.06747" lon="-1.02688">
        <ele>90</ele>
        <time>2022-06-02T17:23:03Z</time>
      </trkpt>
      <trkpt lat="47.06687" lon="-1.02769">
        <ele>90</ele>
        <time>2022-06-02T17:23:18Z</time>
      </trkpt>
      <trkpt lat="47.06522" lon="-1.03006">
        <ele>107</ele>
        <time>2022-06-02T17:23:59Z</time>
      </trkpt>
      <trkpt lat="47.06457" lon="-1.03079">
        <ele>111</ele>
        <time>2022-06-02T17:24:13Z</time>
      </trkpt>
      <trkpt lat="47.06427" lon="-1.03108">
        <ele>114</ele>
        <time>2022-06-02T17:24:20Z</time>
      </trkpt>
      <trkpt lat="47.06423" lon="-1.03118">
        <ele>114</ele>
        <time>2022-06-02T17:24:21Z</time>
      </trkpt>
      <trkpt lat="47.06417" lon="-1.03124">
        <ele>114</ele>
        <time>2022-06-02T17:24:22Z</time>
      </trkpt>
      <trkpt lat="47.06408" lon="-1.03123">
        <ele>115</ele>
        <time>2022-06-02T17:24:24Z</time>
      </trkpt>
      <trkpt lat="47.06404" lon="-1.03119">
        <ele>114</ele>
        <time>2022-06-02T17:24:25Z</time>
      </trkpt>
      <trkpt lat="47.06368" lon="-1.03129">
        <ele>115</ele>
        <time>2022-06-02T17:24:31Z</time>
      </trkpt>
      <trkpt lat="47.06316" lon="-1.03132">
        <ele>115</ele>
        <time>2022-06-02T17:24:41Z</time>
      </trkpt>
      <trkpt lat="47.06276" lon="-1.03124">
        <ele>114</ele>
        <time>2022-06-02T17:24:48Z</time>
      </trkpt>
      <trkpt lat="47.06253" lon="-1.03115">
        <ele>113</ele>
        <time>2022-06-02T17:24:52Z</time>
      </trkpt>
      <trkpt lat="47.05978" lon="-1.02966">
        <ele>109</ele>
        <time>2022-06-02T17:25:44Z</time>
      </trkpt>
      <trkpt lat="47.05941" lon="-1.02955">
        <ele>109</ele>
        <time>2022-06-02T17:25:51Z</time>
      </trkpt>
      <trkpt lat="47.05933" lon="-1.02956">
        <ele>109</ele>
        <time>2022-06-02T17:25:52Z</time>
      </trkpt>
      <trkpt lat="47.05925" lon="-1.02961">
        <ele>109</ele>
        <time>2022-06-02T17:25:54Z</time>
      </trkpt>
      <trkpt lat="47.05916" lon="-1.02959">
        <ele>110</ele>
        <time>2022-06-02T17:25:56Z</time>
      </trkpt>
      <trkpt lat="47.05909" lon="-1.0295">
        <ele>109</ele>
        <time>2022-06-02T17:25:57Z</time>
      </trkpt>
      <trkpt lat="47.05906" lon="-1.02939">
        <ele>109</ele>
        <time>2022-06-02T17:25:59Z</time>
      </trkpt>
      <trkpt lat="47.05896" lon="-1.02922">
        <ele>109</ele>
        <time>2022-06-02T17:26:01Z</time>
      </trkpt>
      <trkpt lat="47.05868" lon="-1.02896">
        <ele>109</ele>
        <time>2022-06-02T17:26:07Z</time>
      </trkpt>
      <trkpt lat="47.05802" lon="-1.0285">
        <ele>113</ele>
        <time>2022-06-02T17:26:20Z</time>
      </trkpt>
      <trkpt lat="47.05753" lon="-1.02811">
        <ele>116</ele>
        <time>2022-06-02T17:26:30Z</time>
      </trkpt>
      <trkpt lat="47.05716" lon="-1.02778">
        <ele>117</ele>
        <time>2022-06-02T17:26:38Z</time>
      </trkpt>
      <trkpt lat="47.05658" lon="-1.02714">
        <ele>118</ele>
        <time>2022-06-02T17:26:51Z</time>
      </trkpt>
      <trkpt lat="47.05634" lon="-1.02695">
        <ele>119</ele>
        <time>2022-06-02T17:26:56Z</time>
      </trkpt>
      <trkpt lat="47.05629" lon="-1.02697">
        <ele>120</ele>
        <time>2022-06-02T17:26:57Z</time>
      </trkpt>
      <trkpt lat="47.0562" lon="-1.02697">
        <ele>120</ele>
        <time>2022-06-02T17:26:58Z</time>
      </trkpt>
      <trkpt lat="47.05612" lon="-1.0269">
        <ele>120</ele>
        <time>2022-06-02T17:27:00Z</time>
      </trkpt>
      <trkpt lat="47.05564" lon="-1.02698">
        <ele>122</ele>
        <time>2022-06-02T17:27:08Z</time>
      </trkpt>
      <trkpt lat="47.05531" lon="-1.02698">
        <ele>123</ele>
        <time>2022-06-02T17:27:14Z</time>
      </trkpt>
      <trkpt lat="47.05499" lon="-1.02701">
        <ele>124</ele>
        <time>2022-06-02T17:27:20Z</time>
      </trkpt>
      <trkpt lat="47.05413" lon="-1.02724">
        <ele>127</ele>
        <time>2022-06-02T17:27:36Z</time>
      </trkpt>
      <trkpt lat="47.05396" lon="-1.02731">
        <ele>127</ele>
        <time>2022-06-02T17:27:39Z</time>
      </trkpt>
      <trkpt lat="47.05376" lon="-1.02744">
        <ele>127</ele>
        <time>2022-06-02T17:27:43Z</time>
      </trkpt>
      <trkpt lat="47.05324" lon="-1.02798">
        <ele>129</ele>
        <time>2022-06-02T17:27:54Z</time>
      </trkpt>
      <trkpt lat="47.04625" lon="-1.03543">
        <ele>120</ele>
        <time>2022-06-02T17:30:28Z</time>
      </trkpt>
      <trkpt lat="47.04612" lon="-1.03554">
        <ele>120</ele>
        <time>2022-06-02T17:30:30Z</time>
      </trkpt>
      <trkpt lat="47.04586" lon="-1.03571">
        <ele>121</ele>
        <time>2022-06-02T17:30:35Z</time>
      </trkpt>
      <trkpt lat="47.04558" lon="-1.0358">
        <ele>122</ele>
        <time>2022-06-02T17:30:41Z</time>
      </trkpt>
      <trkpt lat="47.04516" lon="-1.03583">
        <ele>124</ele>
        <time>2022-06-02T17:30:48Z</time>
      </trkpt>
      <trkpt lat="47.04217" lon="-1.03574">
        <ele>129</ele>
        <time>2022-06-02T17:31:41Z</time>
      </trkpt>
      <trkpt lat="47.04191" lon="-1.03577">
        <ele>128</ele>
        <time>2022-06-02T17:31:46Z</time>
      </trkpt>
      <trkpt lat="47.04173" lon="-1.03583">
        <ele>128</ele>
        <time>2022-06-02T17:31:49Z</time>
      </trkpt>
      <trkpt lat="47.03881" lon="-1.0373">
        <ele>130</ele>
        <time>2022-06-02T17:32:44Z</time>
      </trkpt>
      <trkpt lat="47.03762" lon="-1.03793">
        <ele>133</ele>
        <time>2022-06-02T17:33:07Z</time>
      </trkpt>
      <trkpt lat="47.03517" lon="-1.0393">
        <ele>130</ele>
        <time>2022-06-02T17:33:53Z</time>
      </trkpt>
      <trkpt lat="47.03474" lon="-1.03958">
        <ele>130</ele>
        <time>2022-06-02T17:34:02Z</time>
      </trkpt>
      <trkpt lat="47.03422" lon="-1.04008">
        <ele>132</ele>
        <time>2022-06-02T17:34:13Z</time>
      </trkpt>
      <trkpt lat="47.03395" lon="-1.04043">
        <ele>131</ele>
        <time>2022-06-02T17:34:19Z</time>
      </trkpt>
      <trkpt lat="47.03068" lon="-1.04553">
        <ele>128</ele>
        <time>2022-06-02T17:35:44Z</time>
      </trkpt>
      <trkpt lat="47.03028" lon="-1.04601">
        <ele>127</ele>
        <time>2022-06-02T17:35:53Z</time>
      </trkpt>
      <trkpt lat="47.0252" lon="-1.0509">
        <ele>125</ele>
        <time>2022-06-02T17:37:41Z</time>
      </trkpt>
      <trkpt lat="47.02481" lon="-1.05128">
        <ele>126</ele>
        <time>2022-06-02T17:37:50Z</time>
      </trkpt>
      <trkpt lat="47.02451" lon="-1.05163">
        <ele>127</ele>
        <time>2022-06-02T17:37:56Z</time>
      </trkpt>
      <trkpt lat="47.02428" lon="-1.05196">
        <ele>127</ele>
        <time>2022-06-02T17:38:02Z</time>
      </trkpt>
      <trkpt lat="47.02397" lon="-1.05245">
        <ele>128</ele>
        <time>2022-06-02T17:38:10Z</time>
      </trkpt>
      <trkpt lat="47.02379" lon="-1.05276">
        <ele>129</ele>
        <time>2022-06-02T17:38:15Z</time>
      </trkpt>
      <trkpt lat="47.02356" lon="-1.05321">
        <ele>130</ele>
        <time>2022-06-02T17:38:22Z</time>
      </trkpt>
      <trkpt lat="47.02331" lon="-1.05407">
        <ele>129</ele>
        <time>2022-06-02T17:38:33Z</time>
      </trkpt>
      <trkpt lat="47.02333" lon="-1.05418">
        <ele>129</ele>
        <time>2022-06-02T17:38:35Z</time>
      </trkpt>
      <trkpt lat="47.02332" lon="-1.05427">
        <ele>129</ele>
        <time>2022-06-02T17:38:36Z</time>
      </trkpt>
      <trkpt lat="47.02324" lon="-1.0544">
        <ele>129</ele>
        <time>2022-06-02T17:38:38Z</time>
      </trkpt>
      <trkpt lat="47.02318" lon="-1.05443">
        <ele>129</ele>
        <time>2022-06-02T17:38:39Z</time>
      </trkpt>
      <trkpt lat="47.02311" lon="-1.05442">
        <ele>129</ele>
        <time>2022-06-02T17:38:40Z</time>
      </trkpt>
      <trkpt lat="47.02305" lon="-1.05436">
        <ele>129</ele>
        <time>2022-06-02T17:38:42Z</time>
      </trkpt>
      <trkpt lat="47.02296" lon="-1.0544">
        <ele>129</ele>
        <time>2022-06-02T17:38:43Z</time>
      </trkpt>
      <trkpt lat="47.02283" lon="-1.05449">
        <ele>129</ele>
        <time>2022-06-02T17:38:46Z</time>
      </trkpt>
      <trkpt lat="47.02258" lon="-1.05493">
        <ele>129</ele>
        <time>2022-06-02T17:38:53Z</time>
      </trkpt>
      <trkpt lat="47.02238" lon="-1.0552">
        <ele>129</ele>
        <time>2022-06-02T17:38:58Z</time>
      </trkpt>
      <trkpt lat="47.02211" lon="-1.05546">
        <ele>128</ele>
        <time>2022-06-02T17:39:03Z</time>
      </trkpt>
      <trkpt lat="47.02213" lon="-1.05557">
        <ele>128</ele>
        <time>2022-06-02T17:39:05Z</time>
      </trkpt>
      <trkpt lat="47.02211" lon="-1.05568">
        <ele>128</ele>
        <time>2022-06-02T17:39:06Z</time>
      </trkpt>
      <trkpt lat="47.02208" lon="-1.05572">
        <ele>128</ele>
        <time>2022-06-02T17:39:07Z</time>
      </trkpt>
      <trkpt lat="47.022" lon="-1.05576">
        <ele>128</ele>
        <time>2022-06-02T17:39:08Z</time>
      </trkpt>
      <trkpt lat="47.02193" lon="-1.05573">
        <ele>128</ele>
        <time>2022-06-02T17:39:10Z</time>
      </trkpt>
      <trkpt lat="47.0219" lon="-1.0557">
        <ele>128</ele>
        <time>2022-06-02T17:39:10Z</time>
      </trkpt>
      <trkpt lat="47.02187" lon="-1.0556">
        <ele>128</ele>
        <time>2022-06-02T17:39:12Z</time>
      </trkpt>
      <trkpt lat="47.02176" lon="-1.05564">
        <ele>128</ele>
        <time>2022-06-02T17:39:14Z</time>
      </trkpt>
      <trkpt lat="47.02146" lon="-1.05586">
        <ele>127</ele>
        <time>2022-06-02T17:39:20Z</time>
      </trkpt>
      <trkpt lat="47.02101" lon="-1.05625">
        <ele>127</ele>
        <time>2022-06-02T17:39:29Z</time>
      </trkpt>
      <trkpt lat="47.02067" lon="-1.0567">
        <ele>127</ele>
        <time>2022-06-02T17:39:37Z</time>
      </trkpt>
      <trkpt lat="47.02004" lon="-1.05803">
        <ele>124</ele>
        <time>2022-06-02T17:39:57Z</time>
      </trkpt>
      <trkpt lat="47.01968" lon="-1.05863">
        <ele>123</ele>
        <time>2022-06-02T17:40:06Z</time>
      </trkpt>
      <trkpt lat="47.01952" lon="-1.05883">
        <ele>123</ele>
        <time>2022-06-02T17:40:10Z</time>
      </trkpt>
      <trkpt lat="47.01919" lon="-1.05918">
        <ele>122</ele>
        <time>2022-06-02T17:40:17Z</time>
      </trkpt>
      <trkpt lat="47.01897" lon="-1.05951">
        <ele>120</ele>
        <time>2022-06-02T17:40:23Z</time>
      </trkpt>
      <trkpt lat="47.01842" lon="-1.06">
        <ele>117</ele>
        <time>2022-06-02T17:40:34Z</time>
      </trkpt>
      <trkpt lat="47.01838" lon="-1.06007">
        <ele>117</ele>
        <time>2022-06-02T17:40:36Z</time>
      </trkpt>
      <trkpt lat="47.01835" lon="-1.06021">
        <ele>117</ele>
        <time>2022-06-02T17:40:37Z</time>
      </trkpt>
      <trkpt lat="47.01836" lon="-1.06031">
        <ele>116</ele>
        <time>2022-06-02T17:40:39Z</time>
      </trkpt>
      <trkpt lat="47.01845" lon="-1.06058">
        <ele>116</ele>
        <time>2022-06-02T17:40:42Z</time>
      </trkpt>
      <trkpt lat="47.01847" lon="-1.06069">
        <ele>115</ele>
        <time>2022-06-02T17:40:44Z</time>
      </trkpt>
      <trkpt lat="47.01845" lon="-1.06076">
        <ele>115</ele>
        <time>2022-06-02T17:40:45Z</time>
      </trkpt>
      <trkpt lat="47.01837" lon="-1.06089">
        <ele>115</ele>
        <time>2022-06-02T17:40:47Z</time>
      </trkpt>
      <trkpt lat="47.01804" lon="-1.06104">
        <ele>113</ele>
        <time>2022-06-02T17:40:53Z</time>
      </trkpt>
      <trkpt lat="47.01755" lon="-1.06141">
        <ele>111</ele>
        <time>2022-06-02T17:41:03Z</time>
      </trkpt>
      <trkpt lat="47.01744" lon="-1.06142">
        <ele>111</ele>
        <time>2022-06-02T17:41:05Z</time>
      </trkpt>
      <trkpt lat="47.01741" lon="-1.06157">
        <ele>110</ele>
        <time>2022-06-02T17:41:06Z</time>
      </trkpt>
      <trkpt lat="47.01742" lon="-1.06165">
        <ele>110</ele>
        <time>2022-06-02T17:41:07Z</time>
      </trkpt>
      <trkpt lat="47.01766" lon="-1.06262">
        <ele>109</ele>
        <time>2022-06-02T17:41:20Z</time>
      </trkpt>
      <trkpt lat="47.0177" lon="-1.06291">
        <ele>109</ele>
        <time>2022-06-02T17:41:24Z</time>
      </trkpt>
      <trkpt lat="47.01728" lon="-1.06435">
        <ele>107</ele>
        <time>2022-06-02T17:41:43Z</time>
      </trkpt>
      <trkpt lat="47.01661" lon="-1.06672">
        <ele>106</ele>
        <time>2022-06-02T17:42:14Z</time>
      </trkpt>
      <trkpt lat="47.0164" lon="-1.06786">
        <ele>104</ele>
        <time>2022-06-02T17:42:28Z</time>
      </trkpt>
      <trkpt lat="47.01629" lon="-1.06872">
        <ele>101</ele>
        <time>2022-06-02T17:42:39Z</time>
      </trkpt>
      <trkpt lat="47.01618" lon="-1.06915">
        <ele>100</ele>
        <time>2022-06-02T17:42:44Z</time>
      </trkpt>
      <trkpt lat="47.0158" lon="-1.07034">
        <ele>98</ele>
        <time>2022-06-02T17:43:00Z</time>
      </trkpt>
      <trkpt lat="47.01539" lon="-1.07136">
        <ele>96</ele>
        <time>2022-06-02T17:43:15Z</time>
      </trkpt>
      <trkpt lat="47.01528" lon="-1.07172">
        <ele>94</ele>
        <time>2022-06-02T17:43:19Z</time>
      </trkpt>
      <trkpt lat="47.01536" lon="-1.0718">
        <ele>94</ele>
        <time>2022-06-02T17:43:21Z</time>
      </trkpt>
      <trkpt lat="47.01537" lon="-1.07194">
        <ele>93</ele>
        <time>2022-06-02T17:43:23Z</time>
      </trkpt>
      <trkpt lat="47.01533" lon="-1.07205">
        <ele>93</ele>
        <time>2022-06-02T17:43:24Z</time>
      </trkpt>
      <trkpt lat="47.01525" lon="-1.07209">
        <ele>92</ele>
        <time>2022-06-02T17:43:26Z</time>
      </trkpt>
      <trkpt lat="47.01517" lon="-1.07205">
        <ele>92</ele>
        <time>2022-06-02T17:43:27Z</time>
      </trkpt>
      <trkpt lat="47.01513" lon="-1.07196">
        <ele>93</ele>
        <time>2022-06-02T17:43:29Z</time>
      </trkpt>
      <trkpt lat="47.01406" lon="-1.07253">
        <ele>88</ele>
        <time>2022-06-02T17:43:49Z</time>
      </trkpt>
      <trkpt lat="47.01392" lon="-1.07255">
        <ele>88</ele>
        <time>2022-06-02T17:43:51Z</time>
      </trkpt>
      <trkpt lat="47.01358" lon="-1.07251">
        <ele>85</ele>
        <time>2022-06-02T17:43:57Z</time>
      </trkpt>
      <trkpt lat="47.01348" lon="-1.07254">
        <ele>85</ele>
        <time>2022-06-02T17:43:59Z</time>
      </trkpt>
      <trkpt lat="47.01333" lon="-1.07267">
        <ele>84</ele>
        <time>2022-06-02T17:44:02Z</time>
      </trkpt>
      <trkpt lat="47.01319" lon="-1.07291">
        <ele>83</ele>
        <time>2022-06-02T17:44:06Z</time>
      </trkpt>
      <trkpt lat="47.01306" lon="-1.07326">
        <ele>81</ele>
        <time>2022-06-02T17:44:11Z</time>
      </trkpt>
      <trkpt lat="47.01279" lon="-1.07387">
        <ele>79</ele>
        <time>2022-06-02T17:44:20Z</time>
      </trkpt>
      <trkpt lat="47.01263" lon="-1.0741">
        <ele>77</ele>
        <time>2022-06-02T17:44:24Z</time>
      </trkpt>
      <trkpt lat="47.01248" lon="-1.07421">
        <ele>76</ele>
        <time>2022-06-02T17:44:27Z</time>
      </trkpt>
      <trkpt lat="47.01222" lon="-1.07432">
        <ele>74</ele>
        <time>2022-06-02T17:44:32Z</time>
      </trkpt>
      <trkpt lat="47.012" lon="-1.07447">
        <ele>72</ele>
        <time>2022-06-02T17:44:36Z</time>
      </trkpt>
      <trkpt lat="47.01187" lon="-1.0746">
        <ele>72</ele>
        <time>2022-06-02T17:44:39Z</time>
      </trkpt>
      <trkpt lat="47.01174" lon="-1.07486">
        <ele>71</ele>
        <time>2022-06-02T17:44:43Z</time>
      </trkpt>
      <trkpt lat="47.01164" lon="-1.07496">
        <ele>71</ele>
        <time>2022-06-02T17:44:45Z</time>
      </trkpt>
      <trkpt lat="47.01156" lon="-1.07501">
        <ele>70</ele>
        <time>2022-06-02T17:44:46Z</time>
      </trkpt>
      <trkpt lat="47.01146" lon="-1.07499">
        <ele>68</ele>
        <time>2022-06-02T17:44:48Z</time>
      </trkpt>
      <trkpt lat="47.0114" lon="-1.07495">
        <ele>67</ele>
        <time>2022-06-02T17:44:49Z</time>
      </trkpt>
      <trkpt lat="47.01133" lon="-1.07476">
        <ele>66</ele>
        <time>2022-06-02T17:44:52Z</time>
      </trkpt>
      <trkpt lat="47.01111" lon="-1.07383">
        <ele>62</ele>
        <time>2022-06-02T17:45:04Z</time>
      </trkpt>
      <trkpt lat="47.01086" lon="-1.07261">
        <ele>56</ele>
        <time>2022-06-02T17:45:19Z</time>
      </trkpt>
      <trkpt lat="47.01076" lon="-1.07203">
        <ele>53</ele>
        <time>2022-06-02T17:45:27Z</time>
      </trkpt>
      <trkpt lat="47.01065" lon="-1.07139">
        <ele>52</ele>
        <time>2022-06-02T17:45:35Z</time>
      </trkpt>
      <trkpt lat="47.01031" lon="-1.06925">
        <ele>63</ele>
        <time>2022-06-02T17:46:01Z</time>
      </trkpt>
      <trkpt lat="47.0102" lon="-1.06827">
        <ele>68</ele>
        <time>2022-06-02T17:46:13Z</time>
      </trkpt>
      <trkpt lat="47.01014" lon="-1.06724">
        <ele>69</ele>
        <time>2022-06-02T17:46:26Z</time>
      </trkpt>
      <trkpt lat="47.01009" lon="-1.0669">
        <ele>70</ele>
        <time>2022-06-02T17:46:30Z</time>
      </trkpt>
      <trkpt lat="47.00999" lon="-1.06661">
        <ele>71</ele>
        <time>2022-06-02T17:46:34Z</time>
      </trkpt>
      <trkpt lat="47.00985" lon="-1.06636">
        <ele>71</ele>
        <time>2022-06-02T17:46:38Z</time>
      </trkpt>
      <trkpt lat="47.00967" lon="-1.06612">
        <ele>72</ele>
        <time>2022-06-02T17:46:42Z</time>
      </trkpt>
      <trkpt lat="47.00945" lon="-1.0659">
        <ele>74</ele>
        <time>2022-06-02T17:46:47Z</time>
      </trkpt>
      <trkpt lat="47.00925" lon="-1.06574">
        <ele>76</ele>
        <time>2022-06-02T17:46:51Z</time>
      </trkpt>
      <trkpt lat="47.00901" lon="-1.06559">
        <ele>78</ele>
        <time>2022-06-02T17:46:56Z</time>
      </trkpt>
      <trkpt lat="47.00875" lon="-1.06552">
        <ele>78</ele>
        <time>2022-06-02T17:47:00Z</time>
      </trkpt>
      <trkpt lat="47.00846" lon="-1.0655">
        <ele>79</ele>
        <time>2022-06-02T17:47:06Z</time>
      </trkpt>
      <trkpt lat="47.00822" lon="-1.06554">
        <ele>81</ele>
        <time>2022-06-02T17:47:10Z</time>
      </trkpt>
      <trkpt lat="47.00796" lon="-1.06562">
        <ele>82</ele>
        <time>2022-06-02T17:47:15Z</time>
      </trkpt>
      <trkpt lat="47.00586" lon="-1.06661">
        <ele>90</ele>
        <time>2022-06-02T17:47:54Z</time>
      </trkpt>
      <trkpt lat="47.0057" lon="-1.06666">
        <ele>90</ele>
        <time>2022-06-02T17:47:57Z</time>
      </trkpt>
      <trkpt lat="47.00558" lon="-1.06665">
        <ele>91</ele>
        <time>2022-06-02T17:47:59Z</time>
      </trkpt>
      <trkpt lat="47.00545" lon="-1.06661">
        <ele>91</ele>
        <time>2022-06-02T17:48:01Z</time>
      </trkpt>
      <trkpt lat="47.00528" lon="-1.06652">
        <ele>91</ele>
        <time>2022-06-02T17:48:04Z</time>
      </trkpt>
      <trkpt lat="47.00336" lon="-1.065">
        <ele>93</ele>
        <time>2022-06-02T17:48:43Z</time>
      </trkpt>
      <trkpt lat="47.00227" lon="-1.0643">
        <ele>95</ele>
        <time>2022-06-02T17:49:04Z</time>
      </trkpt>
      <trkpt lat="47.00102" lon="-1.06379">
        <ele>96</ele>
        <time>2022-06-02T17:49:28Z</time>
      </trkpt>
      <trkpt lat="47.00087" lon="-1.06379">
        <ele>96</ele>
        <time>2022-06-02T17:49:30Z</time>
      </trkpt>
      <trkpt lat="47.00074" lon="-1.06384">
        <ele>96</ele>
        <time>2022-06-02T17:49:33Z</time>
      </trkpt>
      <trkpt lat="47.00007" lon="-1.06441">
        <ele>95</ele>
        <time>2022-06-02T17:49:46Z</time>
      </trkpt>
      <trkpt lat="46.99988" lon="-1.0645">
        <ele>95</ele>
        <time>2022-06-02T17:49:50Z</time>
      </trkpt>
      <trkpt lat="46.99969" lon="-1.06449">
        <ele>95</ele>
        <time>2022-06-02T17:49:53Z</time>
      </trkpt>
      <trkpt lat="46.99877" lon="-1.06429">
        <ele>95</ele>
        <time>2022-06-02T17:50:10Z</time>
      </trkpt>
      <trkpt lat="46.99844" lon="-1.06429">
        <ele>95</ele>
        <time>2022-06-02T17:50:16Z</time>
      </trkpt>
      <trkpt lat="46.99755" lon="-1.06458">
        <ele>94</ele>
        <time>2022-06-02T17:50:32Z</time>
      </trkpt>
      <trkpt lat="46.99719" lon="-1.06478">
        <ele>93</ele>
        <time>2022-06-02T17:50:39Z</time>
      </trkpt>
      <trkpt lat="46.99685" lon="-1.06362">
        <ele>97</ele>
        <time>2022-06-02T17:50:54Z</time>
      </trkpt>
      <trkpt lat="46.9966" lon="-1.06282">
        <ele>101</ele>
        <time>2022-06-02T17:51:05Z</time>
      </trkpt>
      <trkpt lat="46.99649" lon="-1.06253">
        <ele>102</ele>
        <time>2022-06-02T17:51:09Z</time>
      </trkpt>
      <trkpt lat="46.99606" lon="-1.06172">
        <ele>104</ele>
        <time>2022-06-02T17:51:21Z</time>
      </trkpt>
      <trkpt lat="46.99558" lon="-1.06094">
        <ele>104</ele>
        <time>2022-06-02T17:51:34Z</time>
      </trkpt>
      <trkpt lat="46.99511" lon="-1.06006">
        <ele>105</ele>
        <time>2022-06-02T17:51:48Z</time>
      </trkpt>
      <trkpt lat="46.99491" lon="-1.05978">
        <ele>105</ele>
        <time>2022-06-02T17:51:52Z</time>
      </trkpt>
      <trkpt lat="46.9944" lon="-1.05923">
        <ele>106</ele>
        <time>2022-06-02T17:52:04Z</time>
      </trkpt>
      <trkpt lat="46.99388" lon="-1.05855">
        <ele>108</ele>
        <time>2022-06-02T17:52:16Z</time>
      </trkpt>
      <trkpt lat="46.99366" lon="-1.05821">
        <ele>107</ele>
        <time>2022-06-02T17:52:22Z</time>
      </trkpt>
      <trkpt lat="46.99306" lon="-1.05705">
        <ele>102</ele>
        <time>2022-06-02T17:52:40Z</time>
      </trkpt>
      <trkpt lat="46.99281" lon="-1.05654">
        <ele>101</ele>
        <time>2022-06-02T17:52:47Z</time>
      </trkpt>
      <trkpt lat="46.99259" lon="-1.05603">
        <ele>100</ele>
        <time>2022-06-02T17:52:54Z</time>
      </trkpt>
      <trkpt lat="46.99248" lon="-1.05573">
        <ele>100</ele>
        <time>2022-06-02T17:52:59Z</time>
      </trkpt>
      <trkpt lat="46.99241" lon="-1.05529">
        <ele>101</ele>
        <time>2022-06-02T17:53:04Z</time>
      </trkpt>
      <trkpt lat="46.99233" lon="-1.05446">
        <ele>102</ele>
        <time>2022-06-02T17:53:14Z</time>
      </trkpt>
      <trkpt lat="46.9923" lon="-1.05411">
        <ele>102</ele>
        <time>2022-06-02T17:53:19Z</time>
      </trkpt>
      <trkpt lat="46.99224" lon="-1.05287">
        <ele>105</ele>
        <time>2022-06-02T17:53:34Z</time>
      </trkpt>
      <trkpt lat="46.99222" lon="-1.05085">
        <ele>112</ele>
        <time>2022-06-02T17:53:58Z</time>
      </trkpt>
      <trkpt lat="46.99224" lon="-1.05055">
        <ele>113</ele>
        <time>2022-06-02T17:54:02Z</time>
      </trkpt>
      <trkpt lat="46.99228" lon="-1.0504">
        <ele>114</ele>
        <time>2022-06-02T17:54:04Z</time>
      </trkpt>
      <trkpt lat="46.99222" lon="-1.05026">
        <ele>115</ele>
        <time>2022-06-02T17:54:06Z</time>
      </trkpt>
      <trkpt lat="46.99196" lon="-1.04936">
        <ele>120</ele>
        <time>2022-06-02T17:54:18Z</time>
      </trkpt>
      <trkpt lat="46.9919" lon="-1.0487">
        <ele>123</ele>
        <time>2022-06-02T17:54:26Z</time>
      </trkpt>
      <trkpt lat="46.99188" lon="-1.04842">
        <ele>124</ele>
        <time>2022-06-02T17:54:29Z</time>
      </trkpt>
      <trkpt lat="46.99179" lon="-1.04765">
        <ele>129</ele>
        <time>2022-06-02T17:54:39Z</time>
      </trkpt>
      <trkpt lat="46.99163" lon="-1.04687">
        <ele>133</ele>
        <time>2022-06-02T17:54:48Z</time>
      </trkpt>
      <trkpt lat="46.99158" lon="-1.04622">
        <ele>134</ele>
        <time>2022-06-02T17:54:56Z</time>
      </trkpt>
      <trkpt lat="46.9916" lon="-1.04581">
        <ele>135</ele>
        <time>2022-06-02T17:55:01Z</time>
      </trkpt>
      <trkpt lat="46.9915" lon="-1.0458">
        <ele>134</ele>
        <time>2022-06-02T17:55:03Z</time>
      </trkpt>
      <trkpt lat="46.99109" lon="-1.04554">
        <ele>133</ele>
        <time>2022-06-02T17:55:11Z</time>
      </trkpt>
      <trkpt lat="46.99093" lon="-1.04553">
        <ele>132</ele>
        <time>2022-06-02T17:55:14Z</time>
      </trkpt>
      <trkpt lat="46.99064" lon="-1.04558">
        <ele>131</ele>
        <time>2022-06-02T17:55:19Z</time>
      </trkpt>
      <trkpt lat="46.99043" lon="-1.04569">
        <ele>129</ele>
        <time>2022-06-02T17:55:23Z</time>
      </trkpt>
      <trkpt lat="46.98967" lon="-1.0462">
        <ele>122</ele>
        <time>2022-06-02T17:55:38Z</time>
      </trkpt>
      <trkpt lat="46.98941" lon="-1.04635">
        <ele>118</ele>
        <time>2022-06-02T17:55:43Z</time>
      </trkpt>
      <trkpt lat="46.98937" lon="-1.04636">
        <ele>118</ele>
        <time>2022-06-02T17:55:44Z</time>
      </trkpt>
      <trkpt lat="46.98932" lon="-1.04663">
        <ele>116</ele>
        <time>2022-06-02T17:55:47Z</time>
      </trkpt>
      <trkpt lat="46.98922" lon="-1.04698">
        <ele>114</ele>
        <time>2022-06-02T17:55:52Z</time>
      </trkpt>
      <trkpt lat="46.98913" lon="-1.04717">
        <ele>113</ele>
        <time>2022-06-02T17:55:55Z</time>
      </trkpt>
      <trkpt lat="46.98895" lon="-1.04735">
        <ele>112</ele>
        <time>2022-06-02T17:55:58Z</time>
      </trkpt>
      <trkpt lat="46.9888" lon="-1.0474">
        <ele>111</ele>
        <time>2022-06-02T17:56:01Z</time>
      </trkpt>
      <trkpt lat="46.98783" lon="-1.04737">
        <ele>108</ele>
        <time>2022-06-02T17:56:18Z</time>
      </trkpt>
      <trkpt lat="46.98766" lon="-1.0474">
        <ele>107</ele>
        <time>2022-06-02T17:56:21Z</time>
      </trkpt>
      <trkpt lat="46.9875" lon="-1.04745">
        <ele>107</ele>
        <time>2022-06-02T17:56:24Z</time>
      </trkpt>
      <trkpt lat="46.98697" lon="-1.04773">
        <ele>109</ele>
        <time>2022-06-02T17:56:34Z</time>
      </trkpt>
      <trkpt lat="46.9867" lon="-1.04791">
        <ele>110</ele>
        <time>2022-06-02T17:56:40Z</time>
      </trkpt>
      <trkpt lat="46.98645" lon="-1.0481">
        <ele>110</ele>
        <time>2022-06-02T17:56:45Z</time>
      </trkpt>
      <trkpt lat="46.98488" lon="-1.04966">
        <ele>115</ele>
        <time>2022-06-02T17:57:18Z</time>
      </trkpt>
      <trkpt lat="46.98453" lon="-1.04993">
        <ele>115</ele>
        <time>2022-06-02T17:57:25Z</time>
      </trkpt>
      <trkpt lat="46.9842" lon="-1.05008">
        <ele>115</ele>
        <time>2022-06-02T17:57:32Z</time>
      </trkpt>
      <trkpt lat="46.98267" lon="-1.05054">
        <ele>116</ele>
        <time>2022-06-02T17:57:59Z</time>
      </trkpt>
      <trkpt lat="46.98237" lon="-1.05065">
        <ele>115</ele>
        <time>2022-06-02T17:58:05Z</time>
      </trkpt>
      <trkpt lat="46.98213" lon="-1.05078">
        <ele>115</ele>
        <time>2022-06-02T17:58:09Z</time>
      </trkpt>
      <trkpt lat="46.98162" lon="-1.05117">
        <ele>114</ele>
        <time>2022-06-02T17:58:20Z</time>
      </trkpt>
      <trkpt lat="46.98061" lon="-1.05212">
        <ele>110</ele>
        <time>2022-06-02T17:58:41Z</time>
      </trkpt>
      <trkpt lat="46.98037" lon="-1.05228">
        <ele>110</ele>
        <time>2022-06-02T17:58:46Z</time>
      </trkpt>
      <trkpt lat="46.98025" lon="-1.05231">
        <ele>110</ele>
        <time>2022-06-02T17:58:48Z</time>
      </trkpt>
      <trkpt lat="46.98011" lon="-1.05233">
        <ele>109</ele>
        <time>2022-06-02T17:58:50Z</time>
      </trkpt>
      <trkpt lat="46.97995" lon="-1.05231">
        <ele>109</ele>
        <time>2022-06-02T17:58:53Z</time>
      </trkpt>
      <trkpt lat="46.97978" lon="-1.05224">
        <ele>109</ele>
        <time>2022-06-02T17:58:56Z</time>
      </trkpt>
      <trkpt lat="46.97949" lon="-1.05206">
        <ele>109</ele>
        <time>2022-06-02T17:59:02Z</time>
      </trkpt>
      <trkpt lat="46.97879" lon="-1.05155">
        <ele>110</ele>
        <time>2022-06-02T17:59:16Z</time>
      </trkpt>
      <trkpt lat="46.97841" lon="-1.05139">
        <ele>111</ele>
        <time>2022-06-02T17:59:23Z</time>
      </trkpt>
      <trkpt lat="46.97826" lon="-1.05138">
        <ele>112</ele>
        <time>2022-06-02T17:59:26Z</time>
      </trkpt>
      <trkpt lat="46.97804" lon="-1.05141">
        <ele>113</ele>
        <time>2022-06-02T17:59:30Z</time>
      </trkpt>
      <trkpt lat="46.97786" lon="-1.05147">
        <ele>114</ele>
        <time>2022-06-02T17:59:33Z</time>
      </trkpt>
      <trkpt lat="46.97698" lon="-1.05194">
        <ele>116</ele>
        <time>2022-06-02T17:59:49Z</time>
      </trkpt>
      <trkpt lat="46.97671" lon="-1.05205">
        <ele>117</ele>
        <time>2022-06-02T17:59:54Z</time>
      </trkpt>
      <trkpt lat="46.97646" lon="-1.05207">
        <ele>118</ele>
        <time>2022-06-02T17:59:59Z</time>
      </trkpt>
      <trkpt lat="46.97489" lon="-1.05176">
        <ele>120</ele>
        <time>2022-06-02T18:00:27Z</time>
      </trkpt>
      <trkpt lat="46.97477" lon="-1.05176">
        <ele>121</ele>
        <time>2022-06-02T18:00:29Z</time>
      </trkpt>
      <trkpt lat="46.97384" lon="-1.05196">
        <ele>122</ele>
        <time>2022-06-02T18:00:46Z</time>
      </trkpt>
      <trkpt lat="46.9738" lon="-1.05195">
        <ele>122</ele>
        <time>2022-06-02T18:00:47Z</time>
      </trkpt>
      <trkpt lat="46.97379" lon="-1.05262">
        <ele>122</ele>
        <time>2022-06-02T18:00:55Z</time>
      </trkpt>
      <trkpt lat="46.97381" lon="-1.05339">
        <ele>121</ele>
        <time>2022-06-02T18:01:04Z</time>
      </trkpt>
      <trkpt lat="46.97369" lon="-1.05335">
        <ele>121</ele>
        <time>2022-06-02T18:01:06Z</time>
      </trkpt>
      <trkpt lat="46.9731" lon="-1.05303">
        <ele>122</ele>
        <time>2022-06-02T18:01:18Z</time>
      </trkpt>
      <trkpt lat="46.97207" lon="-1.05287">
        <ele>119</ele>
        <time>2022-06-02T18:01:36Z</time>
      </trkpt>
      <trkpt lat="46.97178" lon="-1.05285">
        <ele>118</ele>
        <time>2022-06-02T18:01:41Z</time>
      </trkpt>
      <trkpt lat="46.97156" lon="-1.05288">
        <ele>118</ele>
        <time>2022-06-02T18:01:45Z</time>
      </trkpt>
      <trkpt lat="46.97075" lon="-1.05309">
        <ele>121</ele>
        <time>2022-06-02T18:02:00Z</time>
      </trkpt>
      <trkpt lat="46.97035" lon="-1.05326">
        <ele>122</ele>
        <time>2022-06-02T18:02:07Z</time>
      </trkpt>
      <trkpt lat="46.97024" lon="-1.05328">
        <ele>122</ele>
        <time>2022-06-02T18:02:09Z</time>
      </trkpt>
      <trkpt lat="46.9701" lon="-1.05327">
        <ele>123</ele>
        <time>2022-06-02T18:02:12Z</time>
      </trkpt>
      <trkpt lat="46.96971" lon="-1.05314">
        <ele>124</ele>
        <time>2022-06-02T18:02:19Z</time>
      </trkpt>
      <trkpt lat="46.96945" lon="-1.05311">
        <ele>125</ele>
        <time>2022-06-02T18:02:23Z</time>
      </trkpt>
      <trkpt lat="46.96908" lon="-1.05315">
        <ele>126</ele>
        <time>2022-06-02T18:02:30Z</time>
      </trkpt>
      <trkpt lat="46.96871" lon="-1.05329">
        <ele>126</ele>
        <time>2022-06-02T18:02:37Z</time>
      </trkpt>
      <trkpt lat="46.96839" lon="-1.05352">
        <ele>125</ele>
        <time>2022-06-02T18:02:43Z</time>
      </trkpt>
      <trkpt lat="46.96809" lon="-1.05379">
        <ele>125</ele>
        <time>2022-06-02T18:02:49Z</time>
      </trkpt>
      <trkpt lat="46.96757" lon="-1.05424">
        <ele>125</ele>
        <time>2022-06-02T18:03:00Z</time>
      </trkpt>
      <trkpt lat="46.96577" lon="-1.05552">
        <ele>123</ele>
        <time>2022-06-02T18:03:36Z</time>
      </trkpt>
      <trkpt lat="46.96553" lon="-1.05564">
        <ele>123</ele>
        <time>2022-06-02T18:03:40Z</time>
      </trkpt>
      <trkpt lat="46.96494" lon="-1.05579">
        <ele>124</ele>
        <time>2022-06-02T18:03:51Z</time>
      </trkpt>
      <trkpt lat="46.96472" lon="-1.05582">
        <ele>125</ele>
        <time>2022-06-02T18:03:55Z</time>
      </trkpt>
      <trkpt lat="46.96443" lon="-1.05579">
        <ele>125</ele>
        <time>2022-06-02T18:04:00Z</time>
      </trkpt>
      <trkpt lat="46.96226" lon="-1.05475">
        <ele>119</ele>
        <time>2022-06-02T18:04:41Z</time>
      </trkpt>
      <trkpt lat="46.96213" lon="-1.05471">
        <ele>118</ele>
        <time>2022-06-02T18:04:43Z</time>
      </trkpt>
      <trkpt lat="46.96203" lon="-1.0547">
        <ele>118</ele>
        <time>2022-06-02T18:04:45Z</time>
      </trkpt>
      <trkpt lat="46.96192" lon="-1.05473">
        <ele>117</ele>
        <time>2022-06-02T18:04:47Z</time>
      </trkpt>
      <trkpt lat="46.96176" lon="-1.05481">
        <ele>116</ele>
        <time>2022-06-02T18:04:50Z</time>
      </trkpt>
      <trkpt lat="46.96119" lon="-1.05521">
        <ele>112</ele>
        <time>2022-06-02T18:05:01Z</time>
      </trkpt>
      <trkpt lat="46.96081" lon="-1.05552">
        <ele>108</ele>
        <time>2022-06-02T18:05:09Z</time>
      </trkpt>
      <trkpt lat="46.95915" lon="-1.05711">
        <ele>112</ele>
        <time>2022-06-02T18:05:44Z</time>
      </trkpt>
      <trkpt lat="46.9588" lon="-1.0574">
        <ele>116</ele>
        <time>2022-06-02T18:05:51Z</time>
      </trkpt>
      <trkpt lat="46.95859" lon="-1.05751">
        <ele>118</ele>
        <time>2022-06-02T18:05:55Z</time>
      </trkpt>
      <trkpt lat="46.95827" lon="-1.05762">
        <ele>120</ele>
        <time>2022-06-02T18:06:01Z</time>
      </trkpt>
      <trkpt lat="46.95798" lon="-1.05768">
        <ele>121</ele>
        <time>2022-06-02T18:06:06Z</time>
      </trkpt>
      <trkpt lat="46.95735" lon="-1.05775">
        <ele>123</ele>
        <time>2022-06-02T18:06:17Z</time>
      </trkpt>
      <trkpt lat="46.95723" lon="-1.05774">
        <ele>123</ele>
        <time>2022-06-02T18:06:20Z</time>
      </trkpt>
      <trkpt lat="46.95708" lon="-1.05771">
        <ele>124</ele>
        <time>2022-06-02T18:06:22Z</time>
      </trkpt>
      <trkpt lat="46.9569" lon="-1.05762">
        <ele>124</ele>
        <time>2022-06-02T18:06:26Z</time>
      </trkpt>
      <trkpt lat="46.9562" lon="-1.05701">
        <ele>125</ele>
        <time>2022-06-02T18:06:40Z</time>
      </trkpt>
      <trkpt lat="46.95604" lon="-1.05692">
        <ele>125</ele>
        <time>2022-06-02T18:06:43Z</time>
      </trkpt>
      <trkpt lat="46.95593" lon="-1.0569">
        <ele>125</ele>
        <time>2022-06-02T18:06:45Z</time>
      </trkpt>
      <trkpt lat="46.95543" lon="-1.05697">
        <ele>125</ele>
        <time>2022-06-02T18:06:54Z</time>
      </trkpt>
      <trkpt lat="46.95525" lon="-1.05704">
        <ele>124</ele>
        <time>2022-06-02T18:06:57Z</time>
      </trkpt>
      <trkpt lat="46.95484" lon="-1.05731">
        <ele>123</ele>
        <time>2022-06-02T18:07:05Z</time>
      </trkpt>
      <trkpt lat="46.95468" lon="-1.05739">
        <ele>123</ele>
        <time>2022-06-02T18:07:08Z</time>
      </trkpt>
      <trkpt lat="46.95442" lon="-1.05744">
        <ele>122</ele>
        <time>2022-06-02T18:07:13Z</time>
      </trkpt>
      <trkpt lat="46.9542" lon="-1.05754">
        <ele>122</ele>
        <time>2022-06-02T18:07:17Z</time>
      </trkpt>
      <trkpt lat="46.95412" lon="-1.05761">
        <ele>122</ele>
        <time>2022-06-02T18:07:19Z</time>
      </trkpt>
      <trkpt lat="46.95404" lon="-1.05772">
        <ele>123</ele>
        <time>2022-06-02T18:07:21Z</time>
      </trkpt>
      <trkpt lat="46.95364" lon="-1.05846">
        <ele>125</ele>
        <time>2022-06-02T18:07:32Z</time>
      </trkpt>
      <trkpt lat="46.95344" lon="-1.05874">
        <ele>126</ele>
        <time>2022-06-02T18:07:37Z</time>
      </trkpt>
      <trkpt lat="46.95319" lon="-1.05901">
        <ele>127</ele>
        <time>2022-06-02T18:07:43Z</time>
      </trkpt>
      <trkpt lat="46.95282" lon="-1.05947">
        <ele>128</ele>
        <time>2022-06-02T18:07:51Z</time>
      </trkpt>
      <trkpt lat="46.95221" lon="-1.06032">
        <ele>130</ele>
        <time>2022-06-02T18:08:06Z</time>
      </trkpt>
      <trkpt lat="46.95202" lon="-1.06055">
        <ele>131</ele>
        <time>2022-06-02T18:08:11Z</time>
      </trkpt>
      <trkpt lat="46.95186" lon="-1.06071">
        <ele>131</ele>
        <time>2022-06-02T18:08:14Z</time>
      </trkpt>
      <trkpt lat="46.95168" lon="-1.06085">
        <ele>132</ele>
        <time>2022-06-02T18:08:18Z</time>
      </trkpt>
      <trkpt lat="46.95096" lon="-1.0611">
        <ele>135</ele>
        <time>2022-06-02T18:08:31Z</time>
      </trkpt>
      <trkpt lat="46.94999" lon="-1.06169">
        <ele>136</ele>
        <time>2022-06-02T18:08:50Z</time>
      </trkpt>
      <trkpt lat="46.94972" lon="-1.06189">
        <ele>137</ele>
        <time>2022-06-02T18:08:55Z</time>
      </trkpt>
      <trkpt lat="46.94919" lon="-1.06236">
        <ele>140</ele>
        <time>2022-06-02T18:09:06Z</time>
      </trkpt>
      <trkpt lat="46.94775" lon="-1.06398">
        <ele>130</ele>
        <time>2022-06-02T18:09:38Z</time>
      </trkpt>
      <trkpt lat="46.94762" lon="-1.06409">
        <ele>129</ele>
        <time>2022-06-02T18:09:41Z</time>
      </trkpt>
      <trkpt lat="46.94746" lon="-1.06421">
        <ele>126</ele>
        <time>2022-06-02T18:09:44Z</time>
      </trkpt>
      <trkpt lat="46.94725" lon="-1.06433">
        <ele>125</ele>
        <time>2022-06-02T18:09:48Z</time>
      </trkpt>
      <trkpt lat="46.94627" lon="-1.06474">
        <ele>124</ele>
        <time>2022-06-02T18:10:06Z</time>
      </trkpt>
      <trkpt lat="46.94636" lon="-1.06525">
        <ele>123</ele>
        <time>2022-06-02T18:10:13Z</time>
      </trkpt>
      <trkpt lat="46.94638" lon="-1.06543">
        <ele>123</ele>
        <time>2022-06-02T18:10:15Z</time>
      </trkpt>
      <trkpt lat="46.94638" lon="-1.06564">
        <ele>123</ele>
        <time>2022-06-02T18:10:18Z</time>
      </trkpt>
      <trkpt lat="46.94629" lon="-1.06601">
        <ele>123</ele>
        <time>2022-06-02T18:10:22Z</time>
      </trkpt>
      <trkpt lat="46.94621" lon="-1.06621">
        <ele>123</ele>
        <time>2022-06-02T18:10:25Z</time>
      </trkpt>
      <trkpt lat="46.9461" lon="-1.06639">
        <ele>123</ele>
        <time>2022-06-02T18:10:28Z</time>
      </trkpt>
      <trkpt lat="46.94491" lon="-1.06762">
        <ele>131</ele>
        <time>2022-06-02T18:10:54Z</time>
      </trkpt>
      <trkpt lat="46.94493" lon="-1.06774">
        <ele>131</ele>
        <time>2022-06-02T18:10:55Z</time>
      </trkpt>
      <trkpt lat="46.94488" lon="-1.06783">
        <ele>132</ele>
        <time>2022-06-02T18:10:57Z</time>
      </trkpt>
      <trkpt lat="46.94481" lon="-1.06785">
        <ele>133</ele>
        <time>2022-06-02T18:10:58Z</time>
      </trkpt>
      <trkpt lat="46.94475" lon="-1.06779">
        <ele>133</ele>
        <time>2022-06-02T18:10:59Z</time>
      </trkpt>
      <trkpt lat="46.94402" lon="-1.06821">
        <ele>137</ele>
        <time>2022-06-02T18:11:13Z</time>
      </trkpt>
      <trkpt lat="46.94377" lon="-1.06838">
        <ele>138</ele>
        <time>2022-06-02T18:11:18Z</time>
      </trkpt>
      <trkpt lat="46.94352" lon="-1.06851">
        <ele>139</ele>
        <time>2022-06-02T18:11:23Z</time>
      </trkpt>
      <trkpt lat="46.94291" lon="-1.0689">
        <ele>139</ele>
        <time>2022-06-02T18:11:35Z</time>
      </trkpt>
      <trkpt lat="46.94273" lon="-1.06833">
        <ele>140</ele>
        <time>2022-06-02T18:11:43Z</time>
      </trkpt>
      <trkpt lat="46.94204" lon="-1.06654">
        <ele>144</ele>
        <time>2022-06-02T18:12:07Z</time>
      </trkpt>
      <trkpt lat="46.94161" lon="-1.06434">
        <ele>151</ele>
        <time>2022-06-02T18:12:35Z</time>
      </trkpt>
      <trkpt lat="46.94157" lon="-1.06409">
        <ele>152</ele>
        <time>2022-06-02T18:12:38Z</time>
      </trkpt>
      <trkpt lat="46.94158" lon="-1.06392">
        <ele>152</ele>
        <time>2022-06-02T18:12:40Z</time>
      </trkpt>
      <trkpt lat="46.94152" lon="-1.06385">
        <ele>153</ele>
        <time>2022-06-02T18:12:42Z</time>
      </trkpt>
      <trkpt lat="46.94129" lon="-1.06343">
        <ele>155</ele>
        <time>2022-06-02T18:12:48Z</time>
      </trkpt>
      <trkpt lat="46.94113" lon="-1.06323">
        <ele>156</ele>
        <time>2022-06-02T18:12:52Z</time>
      </trkpt>
      <trkpt lat="46.94055" lon="-1.06279">
        <ele>160</ele>
        <time>2022-06-02T18:13:04Z</time>
      </trkpt>
      <trkpt lat="46.94025" lon="-1.06262">
        <ele>162</ele>
        <time>2022-06-02T18:13:09Z</time>
      </trkpt>
      <trkpt lat="46.93954" lon="-1.06226">
        <ele>163</ele>
        <time>2022-06-02T18:13:23Z</time>
      </trkpt>
      <trkpt lat="46.93925" lon="-1.06205">
        <ele>164</ele>
        <time>2022-06-02T18:13:29Z</time>
      </trkpt>
      <trkpt lat="46.93905" lon="-1.06187">
        <ele>164</ele>
        <time>2022-06-02T18:13:33Z</time>
      </trkpt>
      <trkpt lat="46.9387" lon="-1.06147">
        <ele>166</ele>
        <time>2022-06-02T18:13:41Z</time>
      </trkpt>
      <trkpt lat="46.93847" lon="-1.06118">
        <ele>167</ele>
        <time>2022-06-02T18:13:46Z</time>
      </trkpt>
      <trkpt lat="46.93826" lon="-1.06084">
        <ele>169</ele>
        <time>2022-06-02T18:13:52Z</time>
      </trkpt>
      <trkpt lat="46.93815" lon="-1.06063">
        <ele>169</ele>
        <time>2022-06-02T18:13:55Z</time>
      </trkpt>
      <trkpt lat="46.938" lon="-1.0603">
        <ele>170</ele>
        <time>2022-06-02T18:14:00Z</time>
      </trkpt>
      <trkpt lat="46.9379" lon="-1.06003">
        <ele>171</ele>
        <time>2022-06-02T18:14:03Z</time>
      </trkpt>
      <trkpt lat="46.93782" lon="-1.05971">
        <ele>172</ele>
        <time>2022-06-02T18:14:08Z</time>
      </trkpt>
      <trkpt lat="46.93767" lon="-1.05887">
        <ele>173</ele>
        <time>2022-06-02T18:14:18Z</time>
      </trkpt>
      <trkpt lat="46.9376" lon="-1.05862">
        <ele>173</ele>
        <time>2022-06-02T18:14:21Z</time>
      </trkpt>
      <trkpt lat="46.93745" lon="-1.05826">
        <ele>173</ele>
        <time>2022-06-02T18:14:26Z</time>
      </trkpt>
      <trkpt lat="46.9373" lon="-1.05799">
        <ele>175</ele>
        <time>2022-06-02T18:14:31Z</time>
      </trkpt>
      <trkpt lat="46.93716" lon="-1.0578">
        <ele>176</ele>
        <time>2022-06-02T18:14:34Z</time>
      </trkpt>
      <trkpt lat="46.93688" lon="-1.05752">
        <ele>177</ele>
        <time>2022-06-02T18:14:40Z</time>
      </trkpt>
      <trkpt lat="46.93628" lon="-1.05709">
        <ele>181</ele>
        <time>2022-06-02T18:14:52Z</time>
      </trkpt>
      <trkpt lat="46.93582" lon="-1.0568">
        <ele>184</ele>
        <time>2022-06-02T18:15:01Z</time>
      </trkpt>
      <trkpt lat="46.93562" lon="-1.0567">
        <ele>184</ele>
        <time>2022-06-02T18:15:05Z</time>
      </trkpt>
      <trkpt lat="46.93514" lon="-1.05652">
        <ele>186</ele>
        <time>2022-06-02T18:15:14Z</time>
      </trkpt>
      <trkpt lat="46.93427" lon="-1.05625">
        <ele>187</ele>
        <time>2022-06-02T18:15:29Z</time>
      </trkpt>
      <trkpt lat="46.9335" lon="-1.05592">
        <ele>185</ele>
        <time>2022-06-02T18:15:44Z</time>
      </trkpt>
      <trkpt lat="46.93186" lon="-1.05513">
        <ele>181</ele>
        <time>2022-06-02T18:16:14Z</time>
      </trkpt>
      <trkpt lat="46.9318" lon="-1.05526">
        <ele>180</ele>
        <time>2022-06-02T18:16:16Z</time>
      </trkpt>
      <trkpt lat="46.93169" lon="-1.05533">
        <ele>180</ele>
        <time>2022-06-02T18:16:18Z</time>
      </trkpt>
      <trkpt lat="46.93162" lon="-1.05533">
        <ele>179</ele>
        <time>2022-06-02T18:16:20Z</time>
      </trkpt>
      <trkpt lat="46.93155" lon="-1.05529">
        <ele>179</ele>
        <time>2022-06-02T18:16:21Z</time>
      </trkpt>
      <trkpt lat="46.9315" lon="-1.05523">
        <ele>179</ele>
        <time>2022-06-02T18:16:22Z</time>
      </trkpt>
      <trkpt lat="46.93145" lon="-1.05508">
        <ele>180</ele>
        <time>2022-06-02T18:16:24Z</time>
      </trkpt>
      <trkpt lat="46.93146" lon="-1.05491">
        <ele>181</ele>
        <time>2022-06-02T18:16:26Z</time>
      </trkpt>
      <trkpt lat="46.93007" lon="-1.05424">
        <ele>182</ele>
        <time>2022-06-02T18:16:52Z</time>
      </trkpt>
      <trkpt lat="46.92188" lon="-1.05024">
        <ele>160</ele>
        <time>2022-06-02T18:19:26Z</time>
      </trkpt>
      <trkpt lat="46.9206" lon="-1.0496">
        <ele>155</ele>
        <time>2022-06-02T18:19:50Z</time>
      </trkpt>
      <trkpt lat="46.91893" lon="-1.0488">
        <ele>150</ele>
        <time>2022-06-02T18:20:21Z</time>
      </trkpt>
      <trkpt lat="46.91797" lon="-1.04831">
        <ele>146</ele>
        <time>2022-06-02T18:20:39Z</time>
      </trkpt>
      <trkpt lat="46.91719" lon="-1.04789">
        <ele>142</ele>
        <time>2022-06-02T18:20:54Z</time>
      </trkpt>
      <trkpt lat="46.91622" lon="-1.04732">
        <ele>138</ele>
        <time>2022-06-02T18:21:13Z</time>
      </trkpt>
      <trkpt lat="46.91185" lon="-1.04517">
        <ele>122</ele>
        <time>2022-06-02T18:22:35Z</time>
      </trkpt>
      <trkpt lat="46.91153" lon="-1.04501">
        <ele>121</ele>
        <time>2022-06-02T18:22:41Z</time>
      </trkpt>
      <trkpt lat="46.91105" lon="-1.04479">
        <ele>118</ele>
        <time>2022-06-02T18:22:50Z</time>
      </trkpt>
      <trkpt lat="46.91055" lon="-1.04461">
        <ele>115</ele>
        <time>2022-06-02T18:22:59Z</time>
      </trkpt>
      <trkpt lat="46.90992" lon="-1.04444">
        <ele>112</ele>
        <time>2022-06-02T18:23:10Z</time>
      </trkpt>
      <trkpt lat="46.90965" lon="-1.0444">
        <ele>114</ele>
        <time>2022-06-02T18:23:15Z</time>
      </trkpt>
      <trkpt lat="46.9091" lon="-1.04436">
        <ele>117</ele>
        <time>2022-06-02T18:23:25Z</time>
      </trkpt>
      <trkpt lat="46.90865" lon="-1.04437">
        <ele>120</ele>
        <time>2022-06-02T18:23:33Z</time>
      </trkpt>
      <trkpt lat="46.90698" lon="-1.04449">
        <ele>123</ele>
        <time>2022-06-02T18:24:03Z</time>
      </trkpt>
      <trkpt lat="46.9058" lon="-1.04454">
        <ele>123</ele>
        <time>2022-06-02T18:24:24Z</time>
      </trkpt>
      <trkpt lat="46.90535" lon="-1.0445">
        <ele>121</ele>
        <time>2022-06-02T18:24:32Z</time>
      </trkpt>
      <trkpt lat="46.90491" lon="-1.04443">
        <ele>120</ele>
        <time>2022-06-02T18:24:40Z</time>
      </trkpt>
      <trkpt lat="46.90409" lon="-1.0442">
        <ele>121</ele>
        <time>2022-06-02T18:24:54Z</time>
      </trkpt>
      <trkpt lat="46.90342" lon="-1.04391">
        <ele>120</ele>
        <time>2022-06-02T18:25:07Z</time>
      </trkpt>
      <trkpt lat="46.90231" lon="-1.04339">
        <ele>118</ele>
        <time>2022-06-02T18:25:28Z</time>
      </trkpt>
      <trkpt lat="46.9021" lon="-1.04339">
        <ele>118</ele>
        <time>2022-06-02T18:25:31Z</time>
      </trkpt>
      <trkpt lat="46.90198" lon="-1.04344">
        <ele>118</ele>
        <time>2022-06-02T18:25:33Z</time>
      </trkpt>
      <trkpt lat="46.90192" lon="-1.04357">
        <ele>118</ele>
        <time>2022-06-02T18:25:35Z</time>
      </trkpt>
      <trkpt lat="46.90189" lon="-1.0436">
        <ele>118</ele>
        <time>2022-06-02T18:25:36Z</time>
      </trkpt>
      <trkpt lat="46.90181" lon="-1.04365">
        <ele>118</ele>
        <time>2022-06-02T18:25:38Z</time>
      </trkpt>
      <trkpt lat="46.90175" lon="-1.04365">
        <ele>118</ele>
        <time>2022-06-02T18:25:39Z</time>
      </trkpt>
      <trkpt lat="46.90167" lon="-1.04362">
        <ele>118</ele>
        <time>2022-06-02T18:25:40Z</time>
      </trkpt>
      <trkpt lat="46.90158" lon="-1.04354">
        <ele>118</ele>
        <time>2022-06-02T18:25:42Z</time>
      </trkpt>
      <trkpt lat="46.90154" lon="-1.04343">
        <ele>118</ele>
        <time>2022-06-02T18:25:44Z</time>
      </trkpt>
      <trkpt lat="46.90152" lon="-1.04331">
        <ele>119</ele>
        <time>2022-06-02T18:25:45Z</time>
      </trkpt>
      <trkpt lat="46.9012" lon="-1.04304">
        <ele>120</ele>
        <time>2022-06-02T18:25:52Z</time>
      </trkpt>
      <trkpt lat="46.89875" lon="-1.0419">
        <ele>119</ele>
        <time>2022-06-02T18:26:37Z</time>
      </trkpt>
      <trkpt lat="46.89639" lon="-1.04059">
        <ele>117</ele>
        <time>2022-06-02T18:27:22Z</time>
      </trkpt>
      <trkpt lat="46.89114" lon="-1.03776">
        <ele>114</ele>
        <time>2022-06-02T18:29:02Z</time>
      </trkpt>
      <trkpt lat="46.89083" lon="-1.03757">
        <ele>115</ele>
        <time>2022-06-02T18:29:08Z</time>
      </trkpt>
      <trkpt lat="46.89054" lon="-1.03735">
        <ele>115</ele>
        <time>2022-06-02T18:29:14Z</time>
      </trkpt>
      <trkpt lat="46.88904" lon="-1.03612">
        <ele>111</ele>
        <time>2022-06-02T18:29:44Z</time>
      </trkpt>
      <trkpt lat="46.8891" lon="-1.03601">
        <ele>112</ele>
        <time>2022-06-02T18:29:46Z</time>
      </trkpt>
      <trkpt lat="46.88906" lon="-1.03583">
        <ele>112</ele>
        <time>2022-06-02T18:29:48Z</time>
      </trkpt>
      <trkpt lat="46.88906" lon="-1.03576">
        <ele>112</ele>
        <time>2022-06-02T18:29:49Z</time>
      </trkpt>
      <trkpt lat="46.88894" lon="-1.03553">
        <ele>112</ele>
        <time>2022-06-02T18:29:53Z</time>
      </trkpt>
      <trkpt lat="46.88884" lon="-1.03551">
        <ele>112</ele>
        <time>2022-06-02T18:29:54Z</time>
      </trkpt>
      <trkpt lat="46.88876" lon="-1.03542">
        <ele>112</ele>
        <time>2022-06-02T18:29:56Z</time>
      </trkpt>
      <trkpt lat="46.88863" lon="-1.03553">
        <ele>112</ele>
        <time>2022-06-02T18:29:59Z</time>
      </trkpt>
      <trkpt lat="46.88857" lon="-1.03516">
        <ele>112</ele>
        <time>2022-06-02T18:30:03Z</time>
      </trkpt>
      <trkpt lat="46.8885" lon="-1.03489">
        <ele>113</ele>
        <time>2022-06-02T18:30:07Z</time>
      </trkpt>
      <trkpt lat="46.88845" lon="-1.03458">
        <ele>114</ele>
        <time>2022-06-02T18:30:11Z</time>
      </trkpt>
      <trkpt lat="46.88842" lon="-1.03427">
        <ele>115</ele>
        <time>2022-06-02T18:30:15Z</time>
      </trkpt>
      <trkpt lat="46.88846" lon="-1.0329">
        <ele>119</ele>
        <time>2022-06-02T18:30:31Z</time>
      </trkpt>
      <trkpt lat="46.88845" lon="-1.03241">
        <ele>120</ele>
        <time>2022-06-02T18:30:37Z</time>
      </trkpt>
      <trkpt lat="46.8884" lon="-1.03196">
        <ele>121</ele>
        <time>2022-06-02T18:30:43Z</time>
      </trkpt>
      <trkpt lat="46.88831" lon="-1.0314">
        <ele>122</ele>
        <time>2022-06-02T18:30:50Z</time>
      </trkpt>
      <trkpt lat="46.88819" lon="-1.03102">
        <ele>122</ele>
        <time>2022-06-02T18:30:55Z</time>
      </trkpt>
      <trkpt lat="46.88803" lon="-1.03063">
        <ele>123</ele>
        <time>2022-06-02T18:31:00Z</time>
      </trkpt>
      <trkpt lat="46.88785" lon="-1.03027">
        <ele>123</ele>
        <time>2022-06-02T18:31:06Z</time>
      </trkpt>
      <trkpt lat="46.88769" lon="-1.03">
        <ele>124</ele>
        <time>2022-06-02T18:31:10Z</time>
      </trkpt>
      <trkpt lat="46.8875" lon="-1.02974">
        <ele>125</ele>
        <time>2022-06-02T18:31:15Z</time>
      </trkpt>
      <trkpt lat="46.88723" lon="-1.02946">
        <ele>126</ele>
        <time>2022-06-02T18:31:21Z</time>
      </trkpt>
      <trkpt lat="46.88692" lon="-1.02919">
        <ele>126</ele>
        <time>2022-06-02T18:31:27Z</time>
      </trkpt>
      <trkpt lat="46.88196" lon="-1.02544">
        <ele>119</ele>
        <time>2022-06-02T18:33:06Z</time>
      </trkpt>
      <trkpt lat="46.88189" lon="-1.02554">
        <ele>119</ele>
        <time>2022-06-02T18:33:08Z</time>
      </trkpt>
      <trkpt lat="46.8818" lon="-1.02555">
        <ele>119</ele>
        <time>2022-06-02T18:33:10Z</time>
      </trkpt>
      <trkpt lat="46.88172" lon="-1.02546">
        <ele>119</ele>
        <time>2022-06-02T18:33:12Z</time>
      </trkpt>
      <trkpt lat="46.8817" lon="-1.0254">
        <ele>119</ele>
        <time>2022-06-02T18:33:12Z</time>
      </trkpt>
      <trkpt lat="46.88171" lon="-1.02526">
        <ele>119</ele>
        <time>2022-06-02T18:33:14Z</time>
      </trkpt>
      <trkpt lat="46.87724" lon="-1.02188">
        <ele>116</ele>
        <time>2022-06-02T18:34:44Z</time>
      </trkpt>
      <trkpt lat="46.87704" lon="-1.02165">
        <ele>116</ele>
        <time>2022-06-02T18:34:48Z</time>
      </trkpt>
      <trkpt lat="46.87698" lon="-1.02173">
        <ele>116</ele>
        <time>2022-06-02T18:34:50Z</time>
      </trkpt>
      <trkpt lat="46.87689" lon="-1.02171">
        <ele>116</ele>
        <time>2022-06-02T18:34:51Z</time>
      </trkpt>
      <trkpt lat="46.87684" lon="-1.02159">
        <ele>116</ele>
        <time>2022-06-02T18:34:53Z</time>
      </trkpt>
      <trkpt lat="46.87685" lon="-1.0215">
        <ele>116</ele>
        <time>2022-06-02T18:34:54Z</time>
      </trkpt>
      <trkpt lat="46.87667" lon="-1.02144">
        <ele>116</ele>
        <time>2022-06-02T18:34:57Z</time>
      </trkpt>
      <trkpt lat="46.87456" lon="-1.01984">
        <ele>110</ele>
        <time>2022-06-02T18:35:40Z</time>
      </trkpt>
      <trkpt lat="46.87393" lon="-1.01939">
        <ele>110</ele>
        <time>2022-06-02T18:35:52Z</time>
      </trkpt>
      <trkpt lat="46.87229" lon="-1.01816">
        <ele>113</ele>
        <time>2022-06-02T18:36:25Z</time>
      </trkpt>
      <trkpt lat="46.87081" lon="-1.01707">
        <ele>111</ele>
        <time>2022-06-02T18:36:54Z</time>
      </trkpt>
      <trkpt lat="46.87078" lon="-1.01712">
        <ele>111</ele>
        <time>2022-06-02T18:36:55Z</time>
      </trkpt>
      <trkpt lat="46.87075" lon="-1.01712">
        <ele>110</ele>
        <time>2022-06-02T18:36:56Z</time>
      </trkpt>
      <trkpt lat="46.87073" lon="-1.01709">
        <ele>110</ele>
        <time>2022-06-02T18:36:56Z</time>
      </trkpt>
      <trkpt lat="46.87072" lon="-1.01706">
        <ele>110</ele>
        <time>2022-06-02T18:36:57Z</time>
      </trkpt>
      <trkpt lat="46.87073" lon="-1.01702">
        <ele>110</ele>
        <time>2022-06-02T18:36:57Z</time>
      </trkpt>
      <trkpt lat="46.87077" lon="-1.017">
        <ele>110</ele>
        <time>2022-06-02T18:36:58Z</time>
      </trkpt>
      <trkpt lat="46.87103" lon="-1.01544">
        <ele>108</ele>
        <time>2022-06-02T18:37:17Z</time>
      </trkpt>
      <trkpt lat="46.87107" lon="-1.01537">
        <ele>109</ele>
        <time>2022-06-02T18:37:19Z</time>
      </trkpt>
      <trkpt lat="46.8711" lon="-1.01428">
        <ele>107</ele>
        <time>2022-06-02T18:37:32Z</time>
      </trkpt>
      <trkpt lat="46.87115" lon="-1.0134">
        <ele>108</ele>
        <time>2022-06-02T18:37:43Z</time>
      </trkpt>
      <trkpt lat="46.87115" lon="-1.0132">
        <ele>108</ele>
        <time>2022-06-02T18:37:45Z</time>
      </trkpt>
      <trkpt lat="46.87114" lon="-1.01307">
        <ele>108</ele>
        <time>2022-06-02T18:37:47Z</time>
      </trkpt>
      <trkpt lat="46.87064" lon="-1.01137">
        <ele>103</ele>
        <time>2022-06-02T18:38:09Z</time>
      </trkpt>
      <trkpt lat="46.8704" lon="-1.0106">
        <ele>102</ele>
        <time>2022-06-02T18:38:19Z</time>
      </trkpt>
      <trkpt lat="46.87006" lon="-1.00942">
        <ele>102</ele>
        <time>2022-06-02T18:38:35Z</time>
      </trkpt>
      <trkpt lat="46.87001" lon="-1.00935">
        <ele>103</ele>
        <time>2022-06-02T18:38:36Z</time>
      </trkpt>
      <trkpt lat="46.86996" lon="-1.00934">
        <ele>103</ele>
        <time>2022-06-02T18:38:37Z</time>
      </trkpt>
      <trkpt lat="46.86996" lon="-1.00928">
        <ele>103</ele>
        <time>2022-06-02T18:38:38Z</time>
      </trkpt>
      <trkpt lat="46.86998" lon="-1.00924">
        <ele>103</ele>
        <time>2022-06-02T18:38:38Z</time>
      </trkpt>
      <trkpt lat="46.86999" lon="-1.00914">
        <ele>103</ele>
        <time>2022-06-02T18:38:40Z</time>
      </trkpt>
      <trkpt lat="46.86983" lon="-1.00859">
        <ele>105</ele>
        <time>2022-06-02T18:38:47Z</time>
      </trkpt>
      <trkpt lat="46.86948" lon="-1.00671">
        <ele>109</ele>
        <time>2022-06-02T18:39:11Z</time>
      </trkpt>
      <trkpt lat="46.86937" lon="-1.00661">
        <ele>109</ele>
        <time>2022-06-02T18:39:13Z</time>
      </trkpt>
      <trkpt lat="46.86853" lon="-1.00633">
        <ele>112</ele>
        <time>2022-06-02T18:39:28Z</time>
      </trkpt>
      <trkpt lat="46.86836" lon="-1.00634">
        <ele>112</ele>
        <time>2022-06-02T18:39:31Z</time>
      </trkpt>
      <trkpt lat="46.86765" lon="-1.00654">
        <ele>111</ele>
        <time>2022-06-02T18:39:44Z</time>
      </trkpt>
      <trkpt lat="46.86714" lon="-1.00674">
        <ele>111</ele>
        <time>2022-06-02T18:39:54Z</time>
      </trkpt>
      <trkpt lat="46.86712" lon="-1.00666">
        <ele>111</ele>
        <time>2022-06-02T18:39:55Z</time>
      </trkpt>
      <trkpt lat="46.86708" lon="-1.0066">
        <ele>111</ele>
        <time>2022-06-02T18:39:56Z</time>
      </trkpt>
      <trkpt lat="46.86664" lon="-1.00646">
        <ele>111</ele>
        <time>2022-06-02T18:40:04Z</time>
      </trkpt>
      <trkpt lat="46.86595" lon="-1.00621">
        <ele>116</ele>
        <time>2022-06-02T18:40:16Z</time>
      </trkpt>
      <trkpt lat="46.86573" lon="-1.00609">
        <ele>117</ele>
        <time>2022-06-02T18:40:20Z</time>
      </trkpt>
      <trkpt lat="46.86523" lon="-1.00577">
        <ele>118</ele>
        <time>2022-06-02T18:40:30Z</time>
      </trkpt>
      <trkpt lat="46.86495" lon="-1.00567">
        <ele>119</ele>
        <time>2022-06-02T18:40:35Z</time>
      </trkpt>
      <trkpt lat="46.86461" lon="-1.00561">
        <ele>120</ele>
        <time>2022-06-02T18:40:41Z</time>
      </trkpt>
      <trkpt lat="46.86426" lon="-1.00564">
        <ele>120</ele>
        <time>2022-06-02T18:40:48Z</time>
      </trkpt>
      <trkpt lat="46.86391" lon="-1.00556">
        <ele>120</ele>
        <time>2022-06-02T18:40:54Z</time>
      </trkpt>
      <trkpt lat="46.86383" lon="-1.00561">
        <ele>120</ele>
        <time>2022-06-02T18:40:55Z</time>
      </trkpt>
    </trkseg>
  </trk>
</gpx>